<?xml version="1.0" encoding="UTF-8" standalone="no" ?>
<gpx xmlns="http://www.topografix.com/GPX/1/1" xmlns:xsi="http://www.w3.org/2001/XMLSchema-instance" xsi:schemaLocation="http://www.topografix.com/GPX/1/1 http://www.topografix.com/GPX/1/1/gpx.xsd" version="1.1" creator="VisuGPX - https://www.visugpx.com">
  <metadata>
    <name>Houdemont st Ode MARCHE ADEPS 2015 ( Oct )</name>
    <desc><![CDATA[Marche adeps à faire un dimanche de beau temps ]]></desc>
  </metadata>
  <trk>
    <name><![CDATA[duo scooby & choupy]]></name>
    <trkseg>
      <trkpt lat="49.9902" lon="5.4711">
        <ele>391</ele>
        <time>2015-10-11T08:08:18Z</time>
      </trkpt>
      <trkpt lat="49.9902" lon="5.4711">
        <ele>390</ele>
        <time>2015-10-11T08:08:23Z</time>
      </trkpt>
      <trkpt lat="49.9902" lon="5.4711">
        <ele>390</ele>
        <time>2015-10-11T08:08:28Z</time>
      </trkpt>
      <trkpt lat="49.99022" lon="5.47109">
        <ele>390</ele>
        <time>2015-10-11T08:08:34Z</time>
      </trkpt>
      <trkpt lat="49.99023" lon="5.47109">
        <ele>390</ele>
        <time>2015-10-11T08:08:40Z</time>
      </trkpt>
      <trkpt lat="49.99024" lon="5.47109">
        <ele>390</ele>
        <time>2015-10-11T08:08:45Z</time>
      </trkpt>
      <trkpt lat="49.99025" lon="5.4711">
        <ele>390</ele>
        <time>2015-10-11T08:08:51Z</time>
      </trkpt>
      <trkpt lat="49.99024" lon="5.47109">
        <ele>390</ele>
        <time>2015-10-11T08:08:59Z</time>
      </trkpt>
      <trkpt lat="49.99023" lon="5.47109">
        <ele>390</ele>
        <time>2015-10-11T08:09:05Z</time>
      </trkpt>
      <trkpt lat="49.99023" lon="5.47109">
        <ele>390</ele>
        <time>2015-10-11T08:09:10Z</time>
      </trkpt>
      <trkpt lat="49.99023" lon="5.47108">
        <ele>391</ele>
        <time>2015-10-11T08:09:17Z</time>
      </trkpt>
      <trkpt lat="49.9902" lon="5.47106">
        <ele>390</ele>
        <time>2015-10-11T08:09:22Z</time>
      </trkpt>
      <trkpt lat="49.99018" lon="5.47105">
        <ele>390</ele>
        <time>2015-10-11T08:09:28Z</time>
      </trkpt>
      <trkpt lat="49.99017" lon="5.47105">
        <ele>390</ele>
        <time>2015-10-11T08:09:33Z</time>
      </trkpt>
      <trkpt lat="49.99017" lon="5.47104">
        <ele>390</ele>
        <time>2015-10-11T08:09:38Z</time>
      </trkpt>
      <trkpt lat="49.99019" lon="5.47103">
        <ele>390</ele>
        <time>2015-10-11T08:09:43Z</time>
      </trkpt>
      <trkpt lat="49.99018" lon="5.47103">
        <ele>390</ele>
        <time>2015-10-11T08:09:48Z</time>
      </trkpt>
      <trkpt lat="49.99018" lon="5.47104">
        <ele>391</ele>
        <time>2015-10-11T08:09:53Z</time>
      </trkpt>
      <trkpt lat="49.99019" lon="5.47104">
        <ele>391</ele>
        <time>2015-10-11T08:09:58Z</time>
      </trkpt>
      <trkpt lat="49.99019" lon="5.47105">
        <ele>390</ele>
        <time>2015-10-11T08:10:04Z</time>
      </trkpt>
      <trkpt lat="49.9902" lon="5.47106">
        <ele>390</ele>
        <time>2015-10-11T08:10:09Z</time>
      </trkpt>
      <trkpt lat="49.99022" lon="5.47105">
        <ele>390</ele>
        <time>2015-10-11T08:10:14Z</time>
      </trkpt>
      <trkpt lat="49.99025" lon="5.47101">
        <ele>390</ele>
        <time>2015-10-11T08:10:19Z</time>
      </trkpt>
      <trkpt lat="49.99028" lon="5.47097">
        <ele>391</ele>
        <time>2015-10-11T08:10:24Z</time>
      </trkpt>
      <trkpt lat="49.9903" lon="5.47092">
        <ele>391</ele>
        <time>2015-10-11T08:10:29Z</time>
      </trkpt>
      <trkpt lat="49.99033" lon="5.47085">
        <ele>391</ele>
        <time>2015-10-11T08:10:34Z</time>
      </trkpt>
      <trkpt lat="49.99035" lon="5.47078">
        <ele>391</ele>
        <time>2015-10-11T08:10:39Z</time>
      </trkpt>
      <trkpt lat="49.99036" lon="5.4707">
        <ele>391</ele>
        <time>2015-10-11T08:10:44Z</time>
      </trkpt>
      <trkpt lat="49.99039" lon="5.4706">
        <ele>391</ele>
        <time>2015-10-11T08:10:50Z</time>
      </trkpt>
      <trkpt lat="49.99039" lon="5.47055">
        <ele>391</ele>
        <time>2015-10-11T08:10:55Z</time>
      </trkpt>
      <trkpt lat="49.99041" lon="5.47051">
        <ele>392</ele>
        <time>2015-10-11T08:11:00Z</time>
      </trkpt>
      <trkpt lat="49.99046" lon="5.47048">
        <ele>392</ele>
        <time>2015-10-11T08:11:05Z</time>
      </trkpt>
      <trkpt lat="49.9905" lon="5.47053">
        <ele>392</ele>
        <time>2015-10-11T08:11:10Z</time>
      </trkpt>
      <trkpt lat="49.99056" lon="5.47059">
        <ele>392</ele>
        <time>2015-10-11T08:11:15Z</time>
      </trkpt>
      <trkpt lat="49.99061" lon="5.47064">
        <ele>393</ele>
        <time>2015-10-11T08:11:20Z</time>
      </trkpt>
      <trkpt lat="49.99068" lon="5.4707">
        <ele>392</ele>
        <time>2015-10-11T08:11:26Z</time>
      </trkpt>
      <trkpt lat="49.99073" lon="5.47076">
        <ele>392</ele>
        <time>2015-10-11T08:11:31Z</time>
      </trkpt>
      <trkpt lat="49.99079" lon="5.47082">
        <ele>392</ele>
        <time>2015-10-11T08:11:36Z</time>
      </trkpt>
      <trkpt lat="49.99085" lon="5.47085">
        <ele>393</ele>
        <time>2015-10-11T08:11:41Z</time>
      </trkpt>
      <trkpt lat="49.9909" lon="5.47089">
        <ele>393</ele>
        <time>2015-10-11T08:11:46Z</time>
      </trkpt>
      <trkpt lat="49.99096" lon="5.47094">
        <ele>393</ele>
        <time>2015-10-11T08:11:51Z</time>
      </trkpt>
      <trkpt lat="49.991" lon="5.47098">
        <ele>394</ele>
        <time>2015-10-11T08:11:56Z</time>
      </trkpt>
      <trkpt lat="49.99105" lon="5.47104">
        <ele>394</ele>
        <time>2015-10-11T08:12:01Z</time>
      </trkpt>
      <trkpt lat="49.99112" lon="5.4711">
        <ele>395</ele>
        <time>2015-10-11T08:12:06Z</time>
      </trkpt>
      <trkpt lat="49.99117" lon="5.47115">
        <ele>395</ele>
        <time>2015-10-11T08:12:11Z</time>
      </trkpt>
      <trkpt lat="49.99123" lon="5.47119">
        <ele>395</ele>
        <time>2015-10-11T08:12:17Z</time>
      </trkpt>
      <trkpt lat="49.99129" lon="5.47123">
        <ele>395</ele>
        <time>2015-10-11T08:12:22Z</time>
      </trkpt>
      <trkpt lat="49.99136" lon="5.47126">
        <ele>395</ele>
        <time>2015-10-11T08:12:27Z</time>
      </trkpt>
      <trkpt lat="49.99142" lon="5.47127">
        <ele>395</ele>
        <time>2015-10-11T08:12:32Z</time>
      </trkpt>
      <trkpt lat="49.99149" lon="5.47123">
        <ele>395</ele>
        <time>2015-10-11T08:12:37Z</time>
      </trkpt>
      <trkpt lat="49.9915" lon="5.47115">
        <ele>396</ele>
        <time>2015-10-11T08:12:42Z</time>
      </trkpt>
      <trkpt lat="49.99153" lon="5.47108">
        <ele>396</ele>
        <time>2015-10-11T08:12:47Z</time>
      </trkpt>
      <trkpt lat="49.99152" lon="5.471">
        <ele>397</ele>
        <time>2015-10-11T08:12:53Z</time>
      </trkpt>
      <trkpt lat="49.99152" lon="5.47091">
        <ele>397</ele>
        <time>2015-10-11T08:12:58Z</time>
      </trkpt>
      <trkpt lat="49.99152" lon="5.47085">
        <ele>398</ele>
        <time>2015-10-11T08:13:03Z</time>
      </trkpt>
      <trkpt lat="49.99153" lon="5.47075">
        <ele>399</ele>
        <time>2015-10-11T08:13:08Z</time>
      </trkpt>
      <trkpt lat="49.99154" lon="5.47067">
        <ele>400</ele>
        <time>2015-10-11T08:13:13Z</time>
      </trkpt>
      <trkpt lat="49.99155" lon="5.47058">
        <ele>400</ele>
        <time>2015-10-11T08:13:18Z</time>
      </trkpt>
      <trkpt lat="49.99155" lon="5.4705">
        <ele>401</ele>
        <time>2015-10-11T08:13:23Z</time>
      </trkpt>
      <trkpt lat="49.99157" lon="5.47043">
        <ele>401</ele>
        <time>2015-10-11T08:13:28Z</time>
      </trkpt>
      <trkpt lat="49.99159" lon="5.47035">
        <ele>402</ele>
        <time>2015-10-11T08:13:33Z</time>
      </trkpt>
      <trkpt lat="49.99161" lon="5.47028">
        <ele>403</ele>
        <time>2015-10-11T08:13:38Z</time>
      </trkpt>
      <trkpt lat="49.99163" lon="5.4702">
        <ele>404</ele>
        <time>2015-10-11T08:13:44Z</time>
      </trkpt>
      <trkpt lat="49.99165" lon="5.47013">
        <ele>404</ele>
        <time>2015-10-11T08:13:49Z</time>
      </trkpt>
      <trkpt lat="49.99168" lon="5.47007">
        <ele>405</ele>
        <time>2015-10-11T08:13:54Z</time>
      </trkpt>
      <trkpt lat="49.99169" lon="5.47001">
        <ele>405</ele>
        <time>2015-10-11T08:13:59Z</time>
      </trkpt>
      <trkpt lat="49.9917" lon="5.47">
        <ele>406</ele>
        <time>2015-10-11T08:14:04Z</time>
      </trkpt>
      <trkpt lat="49.9917" lon="5.46997">
        <ele>406</ele>
        <time>2015-10-11T08:14:09Z</time>
      </trkpt>
      <trkpt lat="49.99171" lon="5.46991">
        <ele>406</ele>
        <time>2015-10-11T08:14:15Z</time>
      </trkpt>
      <trkpt lat="49.99175" lon="5.46984">
        <ele>406</ele>
        <time>2015-10-11T08:14:20Z</time>
      </trkpt>
      <trkpt lat="49.99181" lon="5.46981">
        <ele>407</ele>
        <time>2015-10-11T08:14:25Z</time>
      </trkpt>
      <trkpt lat="49.99186" lon="5.46982">
        <ele>407</ele>
        <time>2015-10-11T08:14:31Z</time>
      </trkpt>
      <trkpt lat="49.99192" lon="5.46983">
        <ele>408</ele>
        <time>2015-10-11T08:14:36Z</time>
      </trkpt>
      <trkpt lat="49.99199" lon="5.46984">
        <ele>408</ele>
        <time>2015-10-11T08:14:41Z</time>
      </trkpt>
      <trkpt lat="49.99205" lon="5.46985">
        <ele>409</ele>
        <time>2015-10-11T08:14:46Z</time>
      </trkpt>
      <trkpt lat="49.99211" lon="5.46986">
        <ele>410</ele>
        <time>2015-10-11T08:14:51Z</time>
      </trkpt>
      <trkpt lat="49.99216" lon="5.46988">
        <ele>410</ele>
        <time>2015-10-11T08:14:56Z</time>
      </trkpt>
      <trkpt lat="49.99223" lon="5.46991">
        <ele>410</ele>
        <time>2015-10-11T08:15:02Z</time>
      </trkpt>
      <trkpt lat="49.99228" lon="5.46995">
        <ele>411</ele>
        <time>2015-10-11T08:15:07Z</time>
      </trkpt>
      <trkpt lat="49.9923" lon="5.47003">
        <ele>410</ele>
        <time>2015-10-11T08:15:12Z</time>
      </trkpt>
      <trkpt lat="49.99234" lon="5.47008">
        <ele>411</ele>
        <time>2015-10-11T08:15:17Z</time>
      </trkpt>
      <trkpt lat="49.99239" lon="5.47013">
        <ele>411</ele>
        <time>2015-10-11T08:15:22Z</time>
      </trkpt>
      <trkpt lat="49.99244" lon="5.47017">
        <ele>411</ele>
        <time>2015-10-11T08:15:28Z</time>
      </trkpt>
      <trkpt lat="49.9925" lon="5.47024">
        <ele>412</ele>
        <time>2015-10-11T08:15:34Z</time>
      </trkpt>
      <trkpt lat="49.99254" lon="5.47029">
        <ele>412</ele>
        <time>2015-10-11T08:15:39Z</time>
      </trkpt>
      <trkpt lat="49.9926" lon="5.47036">
        <ele>412</ele>
        <time>2015-10-11T08:15:45Z</time>
      </trkpt>
      <trkpt lat="49.99264" lon="5.47041">
        <ele>412</ele>
        <time>2015-10-11T08:15:50Z</time>
      </trkpt>
      <trkpt lat="49.99269" lon="5.47045">
        <ele>412</ele>
        <time>2015-10-11T08:15:55Z</time>
      </trkpt>
      <trkpt lat="49.99274" lon="5.4705">
        <ele>412</ele>
        <time>2015-10-11T08:16:00Z</time>
      </trkpt>
      <trkpt lat="49.99281" lon="5.47054">
        <ele>412</ele>
        <time>2015-10-11T08:16:05Z</time>
      </trkpt>
      <trkpt lat="49.99287" lon="5.47056">
        <ele>412</ele>
        <time>2015-10-11T08:16:10Z</time>
      </trkpt>
      <trkpt lat="49.99293" lon="5.47061">
        <ele>412</ele>
        <time>2015-10-11T08:16:15Z</time>
      </trkpt>
      <trkpt lat="49.99298" lon="5.47066">
        <ele>412</ele>
        <time>2015-10-11T08:16:20Z</time>
      </trkpt>
      <trkpt lat="49.99304" lon="5.47072">
        <ele>412</ele>
        <time>2015-10-11T08:16:26Z</time>
      </trkpt>
      <trkpt lat="49.99309" lon="5.47078">
        <ele>411</ele>
        <time>2015-10-11T08:16:32Z</time>
      </trkpt>
      <trkpt lat="49.99313" lon="5.47082">
        <ele>412</ele>
        <time>2015-10-11T08:16:37Z</time>
      </trkpt>
      <trkpt lat="49.99318" lon="5.47086">
        <ele>412</ele>
        <time>2015-10-11T08:16:42Z</time>
      </trkpt>
      <trkpt lat="49.99323" lon="5.47093">
        <ele>411</ele>
        <time>2015-10-11T08:16:48Z</time>
      </trkpt>
      <trkpt lat="49.99327" lon="5.47097">
        <ele>412</ele>
        <time>2015-10-11T08:16:53Z</time>
      </trkpt>
      <trkpt lat="49.99331" lon="5.47099">
        <ele>412</ele>
        <time>2015-10-11T08:16:58Z</time>
      </trkpt>
      <trkpt lat="49.99338" lon="5.47104">
        <ele>412</ele>
        <time>2015-10-11T08:17:04Z</time>
      </trkpt>
      <trkpt lat="49.99344" lon="5.47108">
        <ele>412</ele>
        <time>2015-10-11T08:17:10Z</time>
      </trkpt>
      <trkpt lat="49.9935" lon="5.47111">
        <ele>412</ele>
        <time>2015-10-11T08:17:15Z</time>
      </trkpt>
      <trkpt lat="49.99356" lon="5.47115">
        <ele>413</ele>
        <time>2015-10-11T08:17:21Z</time>
      </trkpt>
      <trkpt lat="49.99362" lon="5.47119">
        <ele>413</ele>
        <time>2015-10-11T08:17:27Z</time>
      </trkpt>
      <trkpt lat="49.99369" lon="5.47121">
        <ele>413</ele>
        <time>2015-10-11T08:17:33Z</time>
      </trkpt>
      <trkpt lat="49.99376" lon="5.47123">
        <ele>413</ele>
        <time>2015-10-11T08:17:39Z</time>
      </trkpt>
      <trkpt lat="49.99381" lon="5.47126">
        <ele>412</ele>
        <time>2015-10-11T08:17:44Z</time>
      </trkpt>
      <trkpt lat="49.99388" lon="5.47129">
        <ele>413</ele>
        <time>2015-10-11T08:17:50Z</time>
      </trkpt>
      <trkpt lat="49.99394" lon="5.47132">
        <ele>413</ele>
        <time>2015-10-11T08:17:55Z</time>
      </trkpt>
      <trkpt lat="49.994" lon="5.47135">
        <ele>412</ele>
        <time>2015-10-11T08:18:00Z</time>
      </trkpt>
      <trkpt lat="49.99407" lon="5.4714">
        <ele>412</ele>
        <time>2015-10-11T08:18:06Z</time>
      </trkpt>
      <trkpt lat="49.99414" lon="5.47145">
        <ele>412</ele>
        <time>2015-10-11T08:18:12Z</time>
      </trkpt>
      <trkpt lat="49.99422" lon="5.47149">
        <ele>412</ele>
        <time>2015-10-11T08:18:18Z</time>
      </trkpt>
      <trkpt lat="49.99427" lon="5.47152">
        <ele>412</ele>
        <time>2015-10-11T08:18:23Z</time>
      </trkpt>
      <trkpt lat="49.99433" lon="5.47155">
        <ele>412</ele>
        <time>2015-10-11T08:18:28Z</time>
      </trkpt>
      <trkpt lat="49.99441" lon="5.4716">
        <ele>411</ele>
        <time>2015-10-11T08:18:34Z</time>
      </trkpt>
      <trkpt lat="49.99448" lon="5.47163">
        <ele>411</ele>
        <time>2015-10-11T08:18:40Z</time>
      </trkpt>
      <trkpt lat="49.99455" lon="5.47166">
        <ele>411</ele>
        <time>2015-10-11T08:18:46Z</time>
      </trkpt>
      <trkpt lat="49.99463" lon="5.47171">
        <ele>411</ele>
        <time>2015-10-11T08:18:52Z</time>
      </trkpt>
      <trkpt lat="49.99469" lon="5.47176">
        <ele>410</ele>
        <time>2015-10-11T08:18:58Z</time>
      </trkpt>
      <trkpt lat="49.99475" lon="5.47179">
        <ele>409</ele>
        <time>2015-10-11T08:19:03Z</time>
      </trkpt>
      <trkpt lat="49.99482" lon="5.47181">
        <ele>408</ele>
        <time>2015-10-11T08:19:09Z</time>
      </trkpt>
      <trkpt lat="49.99488" lon="5.47185">
        <ele>408</ele>
        <time>2015-10-11T08:19:14Z</time>
      </trkpt>
      <trkpt lat="49.99493" lon="5.47188">
        <ele>408</ele>
        <time>2015-10-11T08:19:20Z</time>
      </trkpt>
      <trkpt lat="49.995" lon="5.47192">
        <ele>407</ele>
        <time>2015-10-11T08:19:26Z</time>
      </trkpt>
      <trkpt lat="49.99506" lon="5.47196">
        <ele>407</ele>
        <time>2015-10-11T08:19:32Z</time>
      </trkpt>
      <trkpt lat="49.99512" lon="5.472">
        <ele>407</ele>
        <time>2015-10-11T08:19:37Z</time>
      </trkpt>
      <trkpt lat="49.99519" lon="5.47203">
        <ele>406</ele>
        <time>2015-10-11T08:19:43Z</time>
      </trkpt>
      <trkpt lat="49.99525" lon="5.47207">
        <ele>406</ele>
        <time>2015-10-11T08:19:49Z</time>
      </trkpt>
      <trkpt lat="49.99532" lon="5.47211">
        <ele>406</ele>
        <time>2015-10-11T08:19:55Z</time>
      </trkpt>
      <trkpt lat="49.99538" lon="5.47215">
        <ele>406</ele>
        <time>2015-10-11T08:20:01Z</time>
      </trkpt>
      <trkpt lat="49.99545" lon="5.47219">
        <ele>405</ele>
        <time>2015-10-11T08:20:07Z</time>
      </trkpt>
      <trkpt lat="49.99552" lon="5.47223">
        <ele>405</ele>
        <time>2015-10-11T08:20:13Z</time>
      </trkpt>
      <trkpt lat="49.99557" lon="5.47226">
        <ele>405</ele>
        <time>2015-10-11T08:20:18Z</time>
      </trkpt>
      <trkpt lat="49.99563" lon="5.47229">
        <ele>404</ele>
        <time>2015-10-11T08:20:23Z</time>
      </trkpt>
      <trkpt lat="49.99568" lon="5.47233">
        <ele>404</ele>
        <time>2015-10-11T08:20:28Z</time>
      </trkpt>
      <trkpt lat="49.99575" lon="5.47236">
        <ele>404</ele>
        <time>2015-10-11T08:20:34Z</time>
      </trkpt>
      <trkpt lat="49.99581" lon="5.47239">
        <ele>404</ele>
        <time>2015-10-11T08:20:39Z</time>
      </trkpt>
      <trkpt lat="49.99588" lon="5.47243">
        <ele>405</ele>
        <time>2015-10-11T08:20:45Z</time>
      </trkpt>
      <trkpt lat="49.99593" lon="5.47246">
        <ele>405</ele>
        <time>2015-10-11T08:20:50Z</time>
      </trkpt>
      <trkpt lat="49.99599" lon="5.4725">
        <ele>405</ele>
        <time>2015-10-11T08:20:56Z</time>
      </trkpt>
      <trkpt lat="49.99604" lon="5.47257">
        <ele>405</ele>
        <time>2015-10-11T08:21:02Z</time>
      </trkpt>
      <trkpt lat="49.99609" lon="5.47262">
        <ele>405</ele>
        <time>2015-10-11T08:21:07Z</time>
      </trkpt>
      <trkpt lat="49.99615" lon="5.47269">
        <ele>405</ele>
        <time>2015-10-11T08:21:13Z</time>
      </trkpt>
      <trkpt lat="49.9962" lon="5.47275">
        <ele>405</ele>
        <time>2015-10-11T08:21:18Z</time>
      </trkpt>
      <trkpt lat="49.99625" lon="5.47283">
        <ele>404</ele>
        <time>2015-10-11T08:21:24Z</time>
      </trkpt>
      <trkpt lat="49.9963" lon="5.47289">
        <ele>404</ele>
        <time>2015-10-11T08:21:29Z</time>
      </trkpt>
      <trkpt lat="49.99635" lon="5.47295">
        <ele>405</ele>
        <time>2015-10-11T08:21:34Z</time>
      </trkpt>
      <trkpt lat="49.99641" lon="5.47302">
        <ele>405</ele>
        <time>2015-10-11T08:21:40Z</time>
      </trkpt>
      <trkpt lat="49.99645" lon="5.47308">
        <ele>405</ele>
        <time>2015-10-11T08:21:45Z</time>
      </trkpt>
      <trkpt lat="49.99649" lon="5.47314">
        <ele>405</ele>
        <time>2015-10-11T08:21:50Z</time>
      </trkpt>
      <trkpt lat="49.99655" lon="5.47321">
        <ele>405</ele>
        <time>2015-10-11T08:21:56Z</time>
      </trkpt>
      <trkpt lat="49.99659" lon="5.47327">
        <ele>405</ele>
        <time>2015-10-11T08:22:01Z</time>
      </trkpt>
      <trkpt lat="49.99664" lon="5.47334">
        <ele>405</ele>
        <time>2015-10-11T08:22:07Z</time>
      </trkpt>
      <trkpt lat="49.99668" lon="5.4734">
        <ele>404</ele>
        <time>2015-10-11T08:22:12Z</time>
      </trkpt>
      <trkpt lat="49.99673" lon="5.47348">
        <ele>404</ele>
        <time>2015-10-11T08:22:18Z</time>
      </trkpt>
      <trkpt lat="49.9968" lon="5.47356">
        <ele>405</ele>
        <time>2015-10-11T08:22:24Z</time>
      </trkpt>
      <trkpt lat="49.99684" lon="5.47362">
        <ele>405</ele>
        <time>2015-10-11T08:22:30Z</time>
      </trkpt>
      <trkpt lat="49.99687" lon="5.47366">
        <ele>405</ele>
        <time>2015-10-11T08:22:35Z</time>
      </trkpt>
      <trkpt lat="49.99693" lon="5.47374">
        <ele>405</ele>
        <time>2015-10-11T08:22:41Z</time>
      </trkpt>
      <trkpt lat="49.99699" lon="5.47382">
        <ele>404</ele>
        <time>2015-10-11T08:22:47Z</time>
      </trkpt>
      <trkpt lat="49.99704" lon="5.4739">
        <ele>404</ele>
        <time>2015-10-11T08:22:53Z</time>
      </trkpt>
      <trkpt lat="49.99708" lon="5.47396">
        <ele>405</ele>
        <time>2015-10-11T08:22:58Z</time>
      </trkpt>
      <trkpt lat="49.99714" lon="5.47403">
        <ele>404</ele>
        <time>2015-10-11T08:23:04Z</time>
      </trkpt>
      <trkpt lat="49.99718" lon="5.4741">
        <ele>404</ele>
        <time>2015-10-11T08:23:09Z</time>
      </trkpt>
      <trkpt lat="49.99712" lon="5.47417">
        <ele>404</ele>
        <time>2015-10-11T08:23:14Z</time>
      </trkpt>
      <trkpt lat="49.99707" lon="5.47426">
        <ele>403</ele>
        <time>2015-10-11T08:23:20Z</time>
      </trkpt>
      <trkpt lat="49.99704" lon="5.47434">
        <ele>402</ele>
        <time>2015-10-11T08:23:25Z</time>
      </trkpt>
      <trkpt lat="49.997" lon="5.47439">
        <ele>402</ele>
        <time>2015-10-11T08:23:30Z</time>
      </trkpt>
      <trkpt lat="49.99693" lon="5.47444">
        <ele>402</ele>
        <time>2015-10-11T08:23:36Z</time>
      </trkpt>
      <trkpt lat="49.99687" lon="5.47449">
        <ele>402</ele>
        <time>2015-10-11T08:23:42Z</time>
      </trkpt>
      <trkpt lat="49.99682" lon="5.47454">
        <ele>401</ele>
        <time>2015-10-11T08:23:47Z</time>
      </trkpt>
      <trkpt lat="49.99677" lon="5.4746">
        <ele>400</ele>
        <time>2015-10-11T08:23:53Z</time>
      </trkpt>
      <trkpt lat="49.99672" lon="5.47465">
        <ele>400</ele>
        <time>2015-10-11T08:23:58Z</time>
      </trkpt>
      <trkpt lat="49.99668" lon="5.47471">
        <ele>400</ele>
        <time>2015-10-11T08:24:04Z</time>
      </trkpt>
      <trkpt lat="49.99667" lon="5.47477">
        <ele>400</ele>
        <time>2015-10-11T08:24:09Z</time>
      </trkpt>
      <trkpt lat="49.99667" lon="5.47479">
        <ele>400</ele>
        <time>2015-10-11T08:24:15Z</time>
      </trkpt>
      <trkpt lat="49.99665" lon="5.4748">
        <ele>400</ele>
        <time>2015-10-11T08:24:21Z</time>
      </trkpt>
      <trkpt lat="49.9966" lon="5.47484">
        <ele>399</ele>
        <time>2015-10-11T08:24:26Z</time>
      </trkpt>
      <trkpt lat="49.99655" lon="5.47488">
        <ele>399</ele>
        <time>2015-10-11T08:24:31Z</time>
      </trkpt>
      <trkpt lat="49.99648" lon="5.47495">
        <ele>399</ele>
        <time>2015-10-11T08:24:37Z</time>
      </trkpt>
      <trkpt lat="49.99642" lon="5.47503">
        <ele>398</ele>
        <time>2015-10-11T08:24:43Z</time>
      </trkpt>
      <trkpt lat="49.99637" lon="5.47509">
        <ele>397</ele>
        <time>2015-10-11T08:24:48Z</time>
      </trkpt>
      <trkpt lat="49.99632" lon="5.47516">
        <ele>397</ele>
        <time>2015-10-11T08:24:54Z</time>
      </trkpt>
      <trkpt lat="49.99627" lon="5.47522">
        <ele>397</ele>
        <time>2015-10-11T08:24:59Z</time>
      </trkpt>
      <trkpt lat="49.99622" lon="5.47528">
        <ele>396</ele>
        <time>2015-10-11T08:25:04Z</time>
      </trkpt>
      <trkpt lat="49.99617" lon="5.47535">
        <ele>396</ele>
        <time>2015-10-11T08:25:10Z</time>
      </trkpt>
      <trkpt lat="49.9961" lon="5.47542">
        <ele>396</ele>
        <time>2015-10-11T08:25:16Z</time>
      </trkpt>
      <trkpt lat="49.99605" lon="5.47548">
        <ele>395</ele>
        <time>2015-10-11T08:25:21Z</time>
      </trkpt>
      <trkpt lat="49.99599" lon="5.47556">
        <ele>395</ele>
        <time>2015-10-11T08:25:27Z</time>
      </trkpt>
      <trkpt lat="49.99593" lon="5.47564">
        <ele>395</ele>
        <time>2015-10-11T08:25:33Z</time>
      </trkpt>
      <trkpt lat="49.99587" lon="5.47571">
        <ele>395</ele>
        <time>2015-10-11T08:25:39Z</time>
      </trkpt>
      <trkpt lat="49.99582" lon="5.47577">
        <ele>395</ele>
        <time>2015-10-11T08:25:44Z</time>
      </trkpt>
      <trkpt lat="49.99577" lon="5.47581">
        <ele>395</ele>
        <time>2015-10-11T08:25:49Z</time>
      </trkpt>
      <trkpt lat="49.99571" lon="5.47587">
        <ele>394</ele>
        <time>2015-10-11T08:25:54Z</time>
      </trkpt>
      <trkpt lat="49.99564" lon="5.47592">
        <ele>394</ele>
        <time>2015-10-11T08:26:00Z</time>
      </trkpt>
      <trkpt lat="49.99558" lon="5.47595">
        <ele>394</ele>
        <time>2015-10-11T08:26:05Z</time>
      </trkpt>
      <trkpt lat="49.99551" lon="5.47593">
        <ele>393</ele>
        <time>2015-10-11T08:26:11Z</time>
      </trkpt>
      <trkpt lat="49.99544" lon="5.47591">
        <ele>393</ele>
        <time>2015-10-11T08:26:16Z</time>
      </trkpt>
      <trkpt lat="49.99538" lon="5.47592">
        <ele>392</ele>
        <time>2015-10-11T08:26:21Z</time>
      </trkpt>
      <trkpt lat="49.99532" lon="5.47595">
        <ele>391</ele>
        <time>2015-10-11T08:26:26Z</time>
      </trkpt>
      <trkpt lat="49.99525" lon="5.476">
        <ele>390</ele>
        <time>2015-10-11T08:26:32Z</time>
      </trkpt>
      <trkpt lat="49.99521" lon="5.47606">
        <ele>390</ele>
        <time>2015-10-11T08:26:37Z</time>
      </trkpt>
      <trkpt lat="49.99514" lon="5.47609">
        <ele>390</ele>
        <time>2015-10-11T08:26:43Z</time>
      </trkpt>
      <trkpt lat="49.9951" lon="5.47614">
        <ele>390</ele>
        <time>2015-10-11T08:26:48Z</time>
      </trkpt>
      <trkpt lat="49.99505" lon="5.47617">
        <ele>390</ele>
        <time>2015-10-11T08:26:53Z</time>
      </trkpt>
      <trkpt lat="49.99502" lon="5.47624">
        <ele>389</ele>
        <time>2015-10-11T08:26:59Z</time>
      </trkpt>
      <trkpt lat="49.99497" lon="5.4763">
        <ele>388</ele>
        <time>2015-10-11T08:27:04Z</time>
      </trkpt>
      <trkpt lat="49.99492" lon="5.47638">
        <ele>388</ele>
        <time>2015-10-11T08:27:10Z</time>
      </trkpt>
      <trkpt lat="49.99489" lon="5.47642">
        <ele>388</ele>
        <time>2015-10-11T08:27:16Z</time>
      </trkpt>
      <trkpt lat="49.99486" lon="5.47646">
        <ele>388</ele>
        <time>2015-10-11T08:27:22Z</time>
      </trkpt>
      <trkpt lat="49.99484" lon="5.4765">
        <ele>388</ele>
        <time>2015-10-11T08:27:28Z</time>
      </trkpt>
      <trkpt lat="49.9948" lon="5.47658">
        <ele>388</ele>
        <time>2015-10-11T08:27:34Z</time>
      </trkpt>
      <trkpt lat="49.99475" lon="5.47665">
        <ele>387</ele>
        <time>2015-10-11T08:27:40Z</time>
      </trkpt>
      <trkpt lat="49.9947" lon="5.47674">
        <ele>387</ele>
        <time>2015-10-11T08:27:46Z</time>
      </trkpt>
      <trkpt lat="49.99465" lon="5.4768">
        <ele>387</ele>
        <time>2015-10-11T08:27:51Z</time>
      </trkpt>
      <trkpt lat="49.9946" lon="5.47689">
        <ele>387</ele>
        <time>2015-10-11T08:27:57Z</time>
      </trkpt>
      <trkpt lat="49.99456" lon="5.47696">
        <ele>386</ele>
        <time>2015-10-11T08:28:02Z</time>
      </trkpt>
      <trkpt lat="49.99454" lon="5.47702">
        <ele>386</ele>
        <time>2015-10-11T08:28:07Z</time>
      </trkpt>
      <trkpt lat="49.99451" lon="5.47707">
        <ele>386</ele>
        <time>2015-10-11T08:28:13Z</time>
      </trkpt>
      <trkpt lat="49.99445" lon="5.47712">
        <ele>386</ele>
        <time>2015-10-11T08:28:19Z</time>
      </trkpt>
      <trkpt lat="49.99441" lon="5.47719">
        <ele>386</ele>
        <time>2015-10-11T08:28:25Z</time>
      </trkpt>
      <trkpt lat="49.99435" lon="5.47724">
        <ele>386</ele>
        <time>2015-10-11T08:28:31Z</time>
      </trkpt>
      <trkpt lat="49.99428" lon="5.47727">
        <ele>386</ele>
        <time>2015-10-11T08:28:37Z</time>
      </trkpt>
      <trkpt lat="49.9942" lon="5.47728">
        <ele>387</ele>
        <time>2015-10-11T08:28:43Z</time>
      </trkpt>
      <trkpt lat="49.99414" lon="5.47727">
        <ele>387</ele>
        <time>2015-10-11T08:28:48Z</time>
      </trkpt>
      <trkpt lat="49.99408" lon="5.47724">
        <ele>386</ele>
        <time>2015-10-11T08:28:53Z</time>
      </trkpt>
      <trkpt lat="49.99402" lon="5.4772">
        <ele>386</ele>
        <time>2015-10-11T08:28:59Z</time>
      </trkpt>
      <trkpt lat="49.99395" lon="5.47717">
        <ele>386</ele>
        <time>2015-10-11T08:29:05Z</time>
      </trkpt>
      <trkpt lat="49.99388" lon="5.47713">
        <ele>387</ele>
        <time>2015-10-11T08:29:11Z</time>
      </trkpt>
      <trkpt lat="49.99382" lon="5.47709">
        <ele>387</ele>
        <time>2015-10-11T08:29:16Z</time>
      </trkpt>
      <trkpt lat="49.99376" lon="5.47705">
        <ele>387</ele>
        <time>2015-10-11T08:29:21Z</time>
      </trkpt>
      <trkpt lat="49.99369" lon="5.47701">
        <ele>387</ele>
        <time>2015-10-11T08:29:27Z</time>
      </trkpt>
      <trkpt lat="49.99363" lon="5.47698">
        <ele>387</ele>
        <time>2015-10-11T08:29:32Z</time>
      </trkpt>
      <trkpt lat="49.99356" lon="5.47695">
        <ele>386</ele>
        <time>2015-10-11T08:29:38Z</time>
      </trkpt>
      <trkpt lat="49.9935" lon="5.47692">
        <ele>386</ele>
        <time>2015-10-11T08:29:44Z</time>
      </trkpt>
      <trkpt lat="49.99344" lon="5.4769">
        <ele>387</ele>
        <time>2015-10-11T08:29:49Z</time>
      </trkpt>
      <trkpt lat="49.99338" lon="5.47688">
        <ele>387</ele>
        <time>2015-10-11T08:29:54Z</time>
      </trkpt>
      <trkpt lat="49.9933" lon="5.47688">
        <ele>386</ele>
        <time>2015-10-11T08:30:00Z</time>
      </trkpt>
      <trkpt lat="49.99324" lon="5.47689">
        <ele>387</ele>
        <time>2015-10-11T08:30:05Z</time>
      </trkpt>
      <trkpt lat="49.99318" lon="5.47692">
        <ele>386</ele>
        <time>2015-10-11T08:30:11Z</time>
      </trkpt>
      <trkpt lat="49.99312" lon="5.47695">
        <ele>386</ele>
        <time>2015-10-11T08:30:16Z</time>
      </trkpt>
      <trkpt lat="49.99306" lon="5.47698">
        <ele>387</ele>
        <time>2015-10-11T08:30:22Z</time>
      </trkpt>
      <trkpt lat="49.99304" lon="5.47699">
        <ele>387</ele>
        <time>2015-10-11T08:30:28Z</time>
      </trkpt>
      <trkpt lat="49.99303" lon="5.47701">
        <ele>387</ele>
        <time>2015-10-11T08:30:33Z</time>
      </trkpt>
      <trkpt lat="49.99298" lon="5.47704">
        <ele>387</ele>
        <time>2015-10-11T08:30:38Z</time>
      </trkpt>
      <trkpt lat="49.99293" lon="5.4771">
        <ele>387</ele>
        <time>2015-10-11T08:30:44Z</time>
      </trkpt>
      <trkpt lat="49.99288" lon="5.47716">
        <ele>387</ele>
        <time>2015-10-11T08:30:49Z</time>
      </trkpt>
      <trkpt lat="49.99282" lon="5.47722">
        <ele>388</ele>
        <time>2015-10-11T08:30:55Z</time>
      </trkpt>
      <trkpt lat="49.99277" lon="5.47731">
        <ele>388</ele>
        <time>2015-10-11T08:31:01Z</time>
      </trkpt>
      <trkpt lat="49.99274" lon="5.47736">
        <ele>388</ele>
        <time>2015-10-11T08:31:06Z</time>
      </trkpt>
      <trkpt lat="49.99273" lon="5.47745">
        <ele>389</ele>
        <time>2015-10-11T08:31:11Z</time>
      </trkpt>
      <trkpt lat="49.99274" lon="5.47754">
        <ele>389</ele>
        <time>2015-10-11T08:31:16Z</time>
      </trkpt>
      <trkpt lat="49.99278" lon="5.47763">
        <ele>390</ele>
        <time>2015-10-11T08:31:22Z</time>
      </trkpt>
      <trkpt lat="49.99282" lon="5.4777">
        <ele>390</ele>
        <time>2015-10-11T08:31:27Z</time>
      </trkpt>
      <trkpt lat="49.99287" lon="5.47778">
        <ele>391</ele>
        <time>2015-10-11T08:31:33Z</time>
      </trkpt>
      <trkpt lat="49.99291" lon="5.47784">
        <ele>391</ele>
        <time>2015-10-11T08:31:38Z</time>
      </trkpt>
      <trkpt lat="49.99296" lon="5.47791">
        <ele>391</ele>
        <time>2015-10-11T08:31:43Z</time>
      </trkpt>
      <trkpt lat="49.993" lon="5.478">
        <ele>391</ele>
        <time>2015-10-11T08:31:49Z</time>
      </trkpt>
      <trkpt lat="49.99304" lon="5.47808">
        <ele>391</ele>
        <time>2015-10-11T08:31:54Z</time>
      </trkpt>
      <trkpt lat="49.99308" lon="5.47815">
        <ele>391</ele>
        <time>2015-10-11T08:31:59Z</time>
      </trkpt>
      <trkpt lat="49.99312" lon="5.47823">
        <ele>392</ele>
        <time>2015-10-11T08:32:05Z</time>
      </trkpt>
      <trkpt lat="49.99317" lon="5.4783">
        <ele>392</ele>
        <time>2015-10-11T08:32:10Z</time>
      </trkpt>
      <trkpt lat="49.99322" lon="5.47839">
        <ele>392</ele>
        <time>2015-10-11T08:32:16Z</time>
      </trkpt>
      <trkpt lat="49.99327" lon="5.47848">
        <ele>392</ele>
        <time>2015-10-11T08:32:22Z</time>
      </trkpt>
      <trkpt lat="49.99331" lon="5.47855">
        <ele>393</ele>
        <time>2015-10-11T08:32:27Z</time>
      </trkpt>
      <trkpt lat="49.99335" lon="5.47864">
        <ele>393</ele>
        <time>2015-10-11T08:32:33Z</time>
      </trkpt>
      <trkpt lat="49.99339" lon="5.47872">
        <ele>393</ele>
        <time>2015-10-11T08:32:39Z</time>
      </trkpt>
      <trkpt lat="49.99343" lon="5.4788">
        <ele>393</ele>
        <time>2015-10-11T08:32:44Z</time>
      </trkpt>
      <trkpt lat="49.99346" lon="5.47889">
        <ele>393</ele>
        <time>2015-10-11T08:32:50Z</time>
      </trkpt>
      <trkpt lat="49.9935" lon="5.47895">
        <ele>393</ele>
        <time>2015-10-11T08:32:55Z</time>
      </trkpt>
      <trkpt lat="49.99351" lon="5.47898">
        <ele>393</ele>
        <time>2015-10-11T08:33:01Z</time>
      </trkpt>
      <trkpt lat="49.99355" lon="5.47904">
        <ele>393</ele>
        <time>2015-10-11T08:33:07Z</time>
      </trkpt>
      <trkpt lat="49.99359" lon="5.4791">
        <ele>393</ele>
        <time>2015-10-11T08:33:12Z</time>
      </trkpt>
      <trkpt lat="49.99364" lon="5.47918">
        <ele>393</ele>
        <time>2015-10-11T08:33:18Z</time>
      </trkpt>
      <trkpt lat="49.99368" lon="5.47924">
        <ele>393</ele>
        <time>2015-10-11T08:33:23Z</time>
      </trkpt>
      <trkpt lat="49.99373" lon="5.47932">
        <ele>393</ele>
        <time>2015-10-11T08:33:29Z</time>
      </trkpt>
      <trkpt lat="49.99377" lon="5.47939">
        <ele>393</ele>
        <time>2015-10-11T08:33:34Z</time>
      </trkpt>
      <trkpt lat="49.99381" lon="5.47947">
        <ele>393</ele>
        <time>2015-10-11T08:33:39Z</time>
      </trkpt>
      <trkpt lat="49.99386" lon="5.47953">
        <ele>393</ele>
        <time>2015-10-11T08:33:45Z</time>
      </trkpt>
      <trkpt lat="49.9939" lon="5.47959">
        <ele>393</ele>
        <time>2015-10-11T08:33:51Z</time>
      </trkpt>
      <trkpt lat="49.9939" lon="5.47959">
        <ele>393</ele>
        <time>2015-10-11T08:33:58Z</time>
      </trkpt>
      <trkpt lat="49.9939" lon="5.47959">
        <ele>393</ele>
        <time>2015-10-11T08:34:04Z</time>
      </trkpt>
      <trkpt lat="49.9939" lon="5.47959">
        <ele>393</ele>
        <time>2015-10-11T08:34:09Z</time>
      </trkpt>
      <trkpt lat="49.99392" lon="5.47963">
        <ele>392</ele>
        <time>2015-10-11T08:34:15Z</time>
      </trkpt>
      <trkpt lat="49.99395" lon="5.47964">
        <ele>393</ele>
        <time>2015-10-11T08:34:21Z</time>
      </trkpt>
      <trkpt lat="49.99399" lon="5.4797">
        <ele>393</ele>
        <time>2015-10-11T08:34:27Z</time>
      </trkpt>
      <trkpt lat="49.994" lon="5.47972">
        <ele>393</ele>
        <time>2015-10-11T08:34:36Z</time>
      </trkpt>
      <trkpt lat="49.994" lon="5.47972">
        <ele>394</ele>
        <time>2015-10-11T08:34:43Z</time>
      </trkpt>
      <trkpt lat="49.99402" lon="5.47975">
        <ele>393</ele>
        <time>2015-10-11T08:34:48Z</time>
      </trkpt>
      <trkpt lat="49.99406" lon="5.47982">
        <ele>393</ele>
        <time>2015-10-11T08:34:54Z</time>
      </trkpt>
      <trkpt lat="49.99411" lon="5.47989">
        <ele>393</ele>
        <time>2015-10-11T08:35:00Z</time>
      </trkpt>
      <trkpt lat="49.99414" lon="5.47994">
        <ele>393</ele>
        <time>2015-10-11T08:35:05Z</time>
      </trkpt>
      <trkpt lat="49.99418" lon="5.48001">
        <ele>393</ele>
        <time>2015-10-11T08:35:11Z</time>
      </trkpt>
      <trkpt lat="49.99423" lon="5.4801">
        <ele>393</ele>
        <time>2015-10-11T08:35:17Z</time>
      </trkpt>
      <trkpt lat="49.99428" lon="5.48017">
        <ele>393</ele>
        <time>2015-10-11T08:35:23Z</time>
      </trkpt>
      <trkpt lat="49.9943" lon="5.48023">
        <ele>393</ele>
        <time>2015-10-11T08:35:29Z</time>
      </trkpt>
      <trkpt lat="49.99432" lon="5.48024">
        <ele>394</ele>
        <time>2015-10-11T08:35:35Z</time>
      </trkpt>
      <trkpt lat="49.99437" lon="5.48031">
        <ele>394</ele>
        <time>2015-10-11T08:35:41Z</time>
      </trkpt>
      <trkpt lat="49.99441" lon="5.48038">
        <ele>394</ele>
        <time>2015-10-11T08:35:46Z</time>
      </trkpt>
      <trkpt lat="49.99445" lon="5.48046">
        <ele>394</ele>
        <time>2015-10-11T08:35:52Z</time>
      </trkpt>
      <trkpt lat="49.9945" lon="5.48055">
        <ele>394</ele>
        <time>2015-10-11T08:35:58Z</time>
      </trkpt>
      <trkpt lat="49.99454" lon="5.48064">
        <ele>394</ele>
        <time>2015-10-11T08:36:04Z</time>
      </trkpt>
      <trkpt lat="49.99458" lon="5.48071">
        <ele>395</ele>
        <time>2015-10-11T08:36:09Z</time>
      </trkpt>
      <trkpt lat="49.99463" lon="5.48079">
        <ele>395</ele>
        <time>2015-10-11T08:36:15Z</time>
      </trkpt>
      <trkpt lat="49.99467" lon="5.48088">
        <ele>394</ele>
        <time>2015-10-11T08:36:21Z</time>
      </trkpt>
      <trkpt lat="49.99472" lon="5.48096">
        <ele>394</ele>
        <time>2015-10-11T08:36:27Z</time>
      </trkpt>
      <trkpt lat="49.99475" lon="5.48104">
        <ele>394</ele>
        <time>2015-10-11T08:36:32Z</time>
      </trkpt>
      <trkpt lat="49.99478" lon="5.4811">
        <ele>393</ele>
        <time>2015-10-11T08:36:37Z</time>
      </trkpt>
      <trkpt lat="49.99482" lon="5.4812">
        <ele>394</ele>
        <time>2015-10-11T08:36:43Z</time>
      </trkpt>
      <trkpt lat="49.99486" lon="5.48129">
        <ele>394</ele>
        <time>2015-10-11T08:36:49Z</time>
      </trkpt>
      <trkpt lat="49.9949" lon="5.48139">
        <ele>394</ele>
        <time>2015-10-11T08:36:55Z</time>
      </trkpt>
      <trkpt lat="49.99493" lon="5.48146">
        <ele>394</ele>
        <time>2015-10-11T08:37:00Z</time>
      </trkpt>
      <trkpt lat="49.99495" lon="5.48156">
        <ele>395</ele>
        <time>2015-10-11T08:37:06Z</time>
      </trkpt>
      <trkpt lat="49.99498" lon="5.48165">
        <ele>395</ele>
        <time>2015-10-11T08:37:11Z</time>
      </trkpt>
      <trkpt lat="49.99501" lon="5.48175">
        <ele>395</ele>
        <time>2015-10-11T08:37:17Z</time>
      </trkpt>
      <trkpt lat="49.99504" lon="5.48184">
        <ele>395</ele>
        <time>2015-10-11T08:37:23Z</time>
      </trkpt>
      <trkpt lat="49.99507" lon="5.48194">
        <ele>395</ele>
        <time>2015-10-11T08:37:29Z</time>
      </trkpt>
      <trkpt lat="49.9951" lon="5.48203">
        <ele>396</ele>
        <time>2015-10-11T08:37:35Z</time>
      </trkpt>
      <trkpt lat="49.99513" lon="5.48211">
        <ele>395</ele>
        <time>2015-10-11T08:37:41Z</time>
      </trkpt>
      <trkpt lat="49.99516" lon="5.4822">
        <ele>395</ele>
        <time>2015-10-11T08:37:47Z</time>
      </trkpt>
      <trkpt lat="49.99519" lon="5.4823">
        <ele>395</ele>
        <time>2015-10-11T08:37:53Z</time>
      </trkpt>
      <trkpt lat="49.9952" lon="5.48237">
        <ele>395</ele>
        <time>2015-10-11T08:37:58Z</time>
      </trkpt>
      <trkpt lat="49.99522" lon="5.48245">
        <ele>395</ele>
        <time>2015-10-11T08:38:03Z</time>
      </trkpt>
      <trkpt lat="49.99523" lon="5.48253">
        <ele>396</ele>
        <time>2015-10-11T08:38:09Z</time>
      </trkpt>
      <trkpt lat="49.99525" lon="5.48261">
        <ele>397</ele>
        <time>2015-10-11T08:38:15Z</time>
      </trkpt>
      <trkpt lat="49.99527" lon="5.48269">
        <ele>397</ele>
        <time>2015-10-11T08:38:21Z</time>
      </trkpt>
      <trkpt lat="49.99529" lon="5.48276">
        <ele>397</ele>
        <time>2015-10-11T08:38:26Z</time>
      </trkpt>
      <trkpt lat="49.99532" lon="5.48283">
        <ele>397</ele>
        <time>2015-10-11T08:38:32Z</time>
      </trkpt>
      <trkpt lat="49.99535" lon="5.48291">
        <ele>398</ele>
        <time>2015-10-11T08:38:38Z</time>
      </trkpt>
      <trkpt lat="49.99536" lon="5.48298">
        <ele>398</ele>
        <time>2015-10-11T08:38:43Z</time>
      </trkpt>
      <trkpt lat="49.99539" lon="5.48307">
        <ele>398</ele>
        <time>2015-10-11T08:38:49Z</time>
      </trkpt>
      <trkpt lat="49.99541" lon="5.48313">
        <ele>398</ele>
        <time>2015-10-11T08:38:54Z</time>
      </trkpt>
      <trkpt lat="49.99544" lon="5.4832">
        <ele>398</ele>
        <time>2015-10-11T08:38:59Z</time>
      </trkpt>
      <trkpt lat="49.99546" lon="5.48328">
        <ele>399</ele>
        <time>2015-10-11T08:39:05Z</time>
      </trkpt>
      <trkpt lat="49.99548" lon="5.48336">
        <ele>399</ele>
        <time>2015-10-11T08:39:10Z</time>
      </trkpt>
      <trkpt lat="49.99552" lon="5.48345">
        <ele>400</ele>
        <time>2015-10-11T08:39:16Z</time>
      </trkpt>
      <trkpt lat="49.99554" lon="5.48353">
        <ele>400</ele>
        <time>2015-10-11T08:39:22Z</time>
      </trkpt>
      <trkpt lat="49.99557" lon="5.48362">
        <ele>400</ele>
        <time>2015-10-11T08:39:28Z</time>
      </trkpt>
      <trkpt lat="49.99559" lon="5.48371">
        <ele>401</ele>
        <time>2015-10-11T08:39:34Z</time>
      </trkpt>
      <trkpt lat="49.99561" lon="5.4838">
        <ele>401</ele>
        <time>2015-10-11T08:39:40Z</time>
      </trkpt>
      <trkpt lat="49.99563" lon="5.48387">
        <ele>401</ele>
        <time>2015-10-11T08:39:45Z</time>
      </trkpt>
      <trkpt lat="49.99566" lon="5.48396">
        <ele>401</ele>
        <time>2015-10-11T08:39:51Z</time>
      </trkpt>
      <trkpt lat="49.99567" lon="5.48404">
        <ele>401</ele>
        <time>2015-10-11T08:39:56Z</time>
      </trkpt>
      <trkpt lat="49.99569" lon="5.48411">
        <ele>402</ele>
        <time>2015-10-11T08:40:01Z</time>
      </trkpt>
      <trkpt lat="49.99572" lon="5.48419">
        <ele>402</ele>
        <time>2015-10-11T08:40:07Z</time>
      </trkpt>
      <trkpt lat="49.99574" lon="5.48427">
        <ele>402</ele>
        <time>2015-10-11T08:40:13Z</time>
      </trkpt>
      <trkpt lat="49.99576" lon="5.48436">
        <ele>403</ele>
        <time>2015-10-11T08:40:18Z</time>
      </trkpt>
      <trkpt lat="49.99579" lon="5.48445">
        <ele>403</ele>
        <time>2015-10-11T08:40:24Z</time>
      </trkpt>
      <trkpt lat="49.9958" lon="5.48455">
        <ele>403</ele>
        <time>2015-10-11T08:40:30Z</time>
      </trkpt>
      <trkpt lat="49.99582" lon="5.48464">
        <ele>403</ele>
        <time>2015-10-11T08:40:36Z</time>
      </trkpt>
      <trkpt lat="49.99584" lon="5.48474">
        <ele>403</ele>
        <time>2015-10-11T08:40:42Z</time>
      </trkpt>
      <trkpt lat="49.99585" lon="5.48482">
        <ele>404</ele>
        <time>2015-10-11T08:40:47Z</time>
      </trkpt>
      <trkpt lat="49.99588" lon="5.4849">
        <ele>405</ele>
        <time>2015-10-11T08:40:53Z</time>
      </trkpt>
      <trkpt lat="49.99589" lon="5.48498">
        <ele>405</ele>
        <time>2015-10-11T08:40:58Z</time>
      </trkpt>
      <trkpt lat="49.99592" lon="5.48509">
        <ele>405</ele>
        <time>2015-10-11T08:41:04Z</time>
      </trkpt>
      <trkpt lat="49.99594" lon="5.48517">
        <ele>405</ele>
        <time>2015-10-11T08:41:09Z</time>
      </trkpt>
      <trkpt lat="49.99597" lon="5.48526">
        <ele>405</ele>
        <time>2015-10-11T08:41:15Z</time>
      </trkpt>
      <trkpt lat="49.99598" lon="5.48536">
        <ele>405</ele>
        <time>2015-10-11T08:41:21Z</time>
      </trkpt>
      <trkpt lat="49.996" lon="5.48545">
        <ele>406</ele>
        <time>2015-10-11T08:41:26Z</time>
      </trkpt>
      <trkpt lat="49.99602" lon="5.48555">
        <ele>406</ele>
        <time>2015-10-11T08:41:32Z</time>
      </trkpt>
      <trkpt lat="49.99604" lon="5.48564">
        <ele>406</ele>
        <time>2015-10-11T08:41:38Z</time>
      </trkpt>
      <trkpt lat="49.99605" lon="5.48573">
        <ele>406</ele>
        <time>2015-10-11T08:41:44Z</time>
      </trkpt>
      <trkpt lat="49.99606" lon="5.48581">
        <ele>407</ele>
        <time>2015-10-11T08:41:49Z</time>
      </trkpt>
      <trkpt lat="49.99607" lon="5.48589">
        <ele>406</ele>
        <time>2015-10-11T08:41:54Z</time>
      </trkpt>
      <trkpt lat="49.99609" lon="5.48599">
        <ele>406</ele>
        <time>2015-10-11T08:42:00Z</time>
      </trkpt>
      <trkpt lat="49.99611" lon="5.48607">
        <ele>406</ele>
        <time>2015-10-11T08:42:05Z</time>
      </trkpt>
      <trkpt lat="49.99612" lon="5.48618">
        <ele>407</ele>
        <time>2015-10-11T08:42:11Z</time>
      </trkpt>
      <trkpt lat="49.99614" lon="5.48626">
        <ele>407</ele>
        <time>2015-10-11T08:42:16Z</time>
      </trkpt>
      <trkpt lat="49.99616" lon="5.48635">
        <ele>408</ele>
        <time>2015-10-11T08:42:22Z</time>
      </trkpt>
      <trkpt lat="49.99617" lon="5.48642">
        <ele>408</ele>
        <time>2015-10-11T08:42:27Z</time>
      </trkpt>
      <trkpt lat="49.99619" lon="5.48651">
        <ele>408</ele>
        <time>2015-10-11T08:42:33Z</time>
      </trkpt>
      <trkpt lat="49.99619" lon="5.48661">
        <ele>408</ele>
        <time>2015-10-11T08:42:39Z</time>
      </trkpt>
      <trkpt lat="49.99621" lon="5.48668">
        <ele>408</ele>
        <time>2015-10-11T08:42:45Z</time>
      </trkpt>
      <trkpt lat="49.99621" lon="5.48671">
        <ele>408</ele>
        <time>2015-10-11T08:42:50Z</time>
      </trkpt>
      <trkpt lat="49.99623" lon="5.48679">
        <ele>408</ele>
        <time>2015-10-11T08:42:56Z</time>
      </trkpt>
      <trkpt lat="49.99626" lon="5.48688">
        <ele>409</ele>
        <time>2015-10-11T08:43:01Z</time>
      </trkpt>
      <trkpt lat="49.99628" lon="5.48698">
        <ele>409</ele>
        <time>2015-10-11T08:43:07Z</time>
      </trkpt>
      <trkpt lat="49.99631" lon="5.48707">
        <ele>408</ele>
        <time>2015-10-11T08:43:13Z</time>
      </trkpt>
      <trkpt lat="49.99635" lon="5.48716">
        <ele>409</ele>
        <time>2015-10-11T08:43:19Z</time>
      </trkpt>
      <trkpt lat="49.99638" lon="5.48723">
        <ele>409</ele>
        <time>2015-10-11T08:43:24Z</time>
      </trkpt>
      <trkpt lat="49.99641" lon="5.4873">
        <ele>408</ele>
        <time>2015-10-11T08:43:29Z</time>
      </trkpt>
      <trkpt lat="49.99645" lon="5.48736">
        <ele>408</ele>
        <time>2015-10-11T08:43:34Z</time>
      </trkpt>
      <trkpt lat="49.99649" lon="5.48744">
        <ele>407</ele>
        <time>2015-10-11T08:43:40Z</time>
      </trkpt>
      <trkpt lat="49.99653" lon="5.48751">
        <ele>407</ele>
        <time>2015-10-11T08:43:46Z</time>
      </trkpt>
      <trkpt lat="49.99658" lon="5.48756">
        <ele>407</ele>
        <time>2015-10-11T08:43:51Z</time>
      </trkpt>
      <trkpt lat="49.99662" lon="5.48762">
        <ele>406</ele>
        <time>2015-10-11T08:43:56Z</time>
      </trkpt>
      <trkpt lat="49.99665" lon="5.48768">
        <ele>407</ele>
        <time>2015-10-11T08:44:01Z</time>
      </trkpt>
      <trkpt lat="49.99669" lon="5.48776">
        <ele>406</ele>
        <time>2015-10-11T08:44:07Z</time>
      </trkpt>
      <trkpt lat="49.99672" lon="5.48781">
        <ele>405</ele>
        <time>2015-10-11T08:44:12Z</time>
      </trkpt>
      <trkpt lat="49.99676" lon="5.48787">
        <ele>406</ele>
        <time>2015-10-11T08:44:17Z</time>
      </trkpt>
      <trkpt lat="49.99681" lon="5.48794">
        <ele>405</ele>
        <time>2015-10-11T08:44:23Z</time>
      </trkpt>
      <trkpt lat="49.99685" lon="5.488">
        <ele>405</ele>
        <time>2015-10-11T08:44:28Z</time>
      </trkpt>
      <trkpt lat="49.99689" lon="5.48806">
        <ele>404</ele>
        <time>2015-10-11T08:44:34Z</time>
      </trkpt>
      <trkpt lat="49.99694" lon="5.48812">
        <ele>404</ele>
        <time>2015-10-11T08:44:39Z</time>
      </trkpt>
      <trkpt lat="49.99698" lon="5.48819">
        <ele>404</ele>
        <time>2015-10-11T08:44:45Z</time>
      </trkpt>
      <trkpt lat="49.99702" lon="5.48825">
        <ele>403</ele>
        <time>2015-10-11T08:44:50Z</time>
      </trkpt>
      <trkpt lat="49.99706" lon="5.4883">
        <ele>403</ele>
        <time>2015-10-11T08:44:55Z</time>
      </trkpt>
      <trkpt lat="49.9971" lon="5.48837">
        <ele>403</ele>
        <time>2015-10-11T08:45:01Z</time>
      </trkpt>
      <trkpt lat="49.99716" lon="5.48844">
        <ele>402</ele>
        <time>2015-10-11T08:45:07Z</time>
      </trkpt>
      <trkpt lat="49.9972" lon="5.48849">
        <ele>403</ele>
        <time>2015-10-11T08:45:12Z</time>
      </trkpt>
      <trkpt lat="49.99724" lon="5.48855">
        <ele>402</ele>
        <time>2015-10-11T08:45:17Z</time>
      </trkpt>
      <trkpt lat="49.99729" lon="5.48861">
        <ele>402</ele>
        <time>2015-10-11T08:45:23Z</time>
      </trkpt>
      <trkpt lat="49.99732" lon="5.48864">
        <ele>401</ele>
        <time>2015-10-11T08:45:29Z</time>
      </trkpt>
      <trkpt lat="49.99738" lon="5.48869">
        <ele>401</ele>
        <time>2015-10-11T08:45:35Z</time>
      </trkpt>
      <trkpt lat="49.99743" lon="5.48873">
        <ele>402</ele>
        <time>2015-10-11T08:45:41Z</time>
      </trkpt>
      <trkpt lat="49.99747" lon="5.48875">
        <ele>402</ele>
        <time>2015-10-11T08:45:46Z</time>
      </trkpt>
      <trkpt lat="49.99749" lon="5.48876">
        <ele>401</ele>
        <time>2015-10-11T08:45:52Z</time>
      </trkpt>
      <trkpt lat="49.99751" lon="5.48875">
        <ele>402</ele>
        <time>2015-10-11T08:45:58Z</time>
      </trkpt>
      <trkpt lat="49.99756" lon="5.48877">
        <ele>402</ele>
        <time>2015-10-11T08:46:04Z</time>
      </trkpt>
      <trkpt lat="49.99761" lon="5.48879">
        <ele>402</ele>
        <time>2015-10-11T08:46:09Z</time>
      </trkpt>
      <trkpt lat="49.99767" lon="5.48879">
        <ele>402</ele>
        <time>2015-10-11T08:46:15Z</time>
      </trkpt>
      <trkpt lat="49.99772" lon="5.48881">
        <ele>403</ele>
        <time>2015-10-11T08:46:20Z</time>
      </trkpt>
      <trkpt lat="49.99776" lon="5.48883">
        <ele>403</ele>
        <time>2015-10-11T08:46:25Z</time>
      </trkpt>
      <trkpt lat="49.99783" lon="5.48886">
        <ele>402</ele>
        <time>2015-10-11T08:46:31Z</time>
      </trkpt>
      <trkpt lat="49.99789" lon="5.4889">
        <ele>403</ele>
        <time>2015-10-11T08:46:37Z</time>
      </trkpt>
      <trkpt lat="49.99796" lon="5.48895">
        <ele>403</ele>
        <time>2015-10-11T08:46:42Z</time>
      </trkpt>
      <trkpt lat="49.998" lon="5.48902">
        <ele>404</ele>
        <time>2015-10-11T08:46:47Z</time>
      </trkpt>
      <trkpt lat="49.99801" lon="5.48909">
        <ele>404</ele>
        <time>2015-10-11T08:46:53Z</time>
      </trkpt>
      <trkpt lat="49.99801" lon="5.4891">
        <ele>404</ele>
        <time>2015-10-11T08:46:58Z</time>
      </trkpt>
      <trkpt lat="49.99801" lon="5.48908">
        <ele>405</ele>
        <time>2015-10-11T08:47:04Z</time>
      </trkpt>
      <trkpt lat="49.998" lon="5.48907">
        <ele>405</ele>
        <time>2015-10-11T08:47:10Z</time>
      </trkpt>
      <trkpt lat="49.99799" lon="5.48907">
        <ele>404</ele>
        <time>2015-10-11T08:47:15Z</time>
      </trkpt>
      <trkpt lat="49.99803" lon="5.48909">
        <ele>404</ele>
        <time>2015-10-11T08:47:20Z</time>
      </trkpt>
      <trkpt lat="49.99808" lon="5.48919">
        <ele>404</ele>
        <time>2015-10-11T08:47:26Z</time>
      </trkpt>
      <trkpt lat="49.99811" lon="5.48927">
        <ele>404</ele>
        <time>2015-10-11T08:47:31Z</time>
      </trkpt>
      <trkpt lat="49.99813" lon="5.48937">
        <ele>406</ele>
        <time>2015-10-11T08:47:37Z</time>
      </trkpt>
      <trkpt lat="49.99815" lon="5.48946">
        <ele>406</ele>
        <time>2015-10-11T08:47:42Z</time>
      </trkpt>
      <trkpt lat="49.99817" lon="5.48957">
        <ele>406</ele>
        <time>2015-10-11T08:47:48Z</time>
      </trkpt>
      <trkpt lat="49.99818" lon="5.48968">
        <ele>406</ele>
        <time>2015-10-11T08:47:54Z</time>
      </trkpt>
      <trkpt lat="49.9982" lon="5.48979">
        <ele>407</ele>
        <time>2015-10-11T08:48:00Z</time>
      </trkpt>
      <trkpt lat="49.99822" lon="5.4899">
        <ele>407</ele>
        <time>2015-10-11T08:48:06Z</time>
      </trkpt>
      <trkpt lat="49.99824" lon="5.49001">
        <ele>408</ele>
        <time>2015-10-11T08:48:12Z</time>
      </trkpt>
      <trkpt lat="49.99826" lon="5.49009">
        <ele>409</ele>
        <time>2015-10-11T08:48:18Z</time>
      </trkpt>
      <trkpt lat="49.99826" lon="5.4901">
        <ele>409</ele>
        <time>2015-10-11T08:48:24Z</time>
      </trkpt>
      <trkpt lat="49.99828" lon="5.49014">
        <ele>409</ele>
        <time>2015-10-11T08:48:29Z</time>
      </trkpt>
      <trkpt lat="49.99828" lon="5.49022">
        <ele>409</ele>
        <time>2015-10-11T08:48:34Z</time>
      </trkpt>
      <trkpt lat="49.99829" lon="5.49031">
        <ele>409</ele>
        <time>2015-10-11T08:48:40Z</time>
      </trkpt>
      <trkpt lat="49.9983" lon="5.49039">
        <ele>411</ele>
        <time>2015-10-11T08:48:45Z</time>
      </trkpt>
      <trkpt lat="49.99831" lon="5.49048">
        <ele>411</ele>
        <time>2015-10-11T08:48:51Z</time>
      </trkpt>
      <trkpt lat="49.99832" lon="5.49056">
        <ele>411</ele>
        <time>2015-10-11T08:48:56Z</time>
      </trkpt>
      <trkpt lat="49.99833" lon="5.49064">
        <ele>411</ele>
        <time>2015-10-11T08:49:01Z</time>
      </trkpt>
      <trkpt lat="49.99834" lon="5.49074">
        <ele>411</ele>
        <time>2015-10-11T08:49:07Z</time>
      </trkpt>
      <trkpt lat="49.99836" lon="5.49081">
        <ele>412</ele>
        <time>2015-10-11T08:49:12Z</time>
      </trkpt>
      <trkpt lat="49.99838" lon="5.4909">
        <ele>413</ele>
        <time>2015-10-11T08:49:18Z</time>
      </trkpt>
      <trkpt lat="49.99841" lon="5.49097">
        <ele>413</ele>
        <time>2015-10-11T08:49:23Z</time>
      </trkpt>
      <trkpt lat="49.99843" lon="5.49104">
        <ele>414</ele>
        <time>2015-10-11T08:49:28Z</time>
      </trkpt>
      <trkpt lat="49.99846" lon="5.49112">
        <ele>414</ele>
        <time>2015-10-11T08:49:34Z</time>
      </trkpt>
      <trkpt lat="49.99848" lon="5.49121">
        <ele>414</ele>
        <time>2015-10-11T08:49:40Z</time>
      </trkpt>
      <trkpt lat="49.99851" lon="5.49128">
        <ele>415</ele>
        <time>2015-10-11T08:49:46Z</time>
      </trkpt>
      <trkpt lat="49.99852" lon="5.49132">
        <ele>415</ele>
        <time>2015-10-11T08:49:51Z</time>
      </trkpt>
      <trkpt lat="49.99855" lon="5.49139">
        <ele>416</ele>
        <time>2015-10-11T08:49:56Z</time>
      </trkpt>
      <trkpt lat="49.99857" lon="5.49148">
        <ele>416</ele>
        <time>2015-10-11T08:50:02Z</time>
      </trkpt>
      <trkpt lat="49.9986" lon="5.49155">
        <ele>417</ele>
        <time>2015-10-11T08:50:07Z</time>
      </trkpt>
      <trkpt lat="49.99865" lon="5.49161">
        <ele>417</ele>
        <time>2015-10-11T08:50:13Z</time>
      </trkpt>
      <trkpt lat="49.99869" lon="5.49166">
        <ele>417</ele>
        <time>2015-10-11T08:50:18Z</time>
      </trkpt>
      <trkpt lat="49.99873" lon="5.49172">
        <ele>417</ele>
        <time>2015-10-11T08:50:23Z</time>
      </trkpt>
      <trkpt lat="49.99878" lon="5.49179">
        <ele>417</ele>
        <time>2015-10-11T08:50:29Z</time>
      </trkpt>
      <trkpt lat="49.99882" lon="5.49186">
        <ele>417</ele>
        <time>2015-10-11T08:50:35Z</time>
      </trkpt>
      <trkpt lat="49.99885" lon="5.49191">
        <ele>418</ele>
        <time>2015-10-11T08:50:41Z</time>
      </trkpt>
      <trkpt lat="49.99886" lon="5.49192">
        <ele>418</ele>
        <time>2015-10-11T08:50:46Z</time>
      </trkpt>
      <trkpt lat="49.99886" lon="5.49192">
        <ele>418</ele>
        <time>2015-10-11T08:50:52Z</time>
      </trkpt>
      <trkpt lat="49.99886" lon="5.49192">
        <ele>417</ele>
        <time>2015-10-11T08:50:59Z</time>
      </trkpt>
      <trkpt lat="49.99889" lon="5.49198">
        <ele>418</ele>
        <time>2015-10-11T08:51:05Z</time>
      </trkpt>
      <trkpt lat="49.99894" lon="5.49205">
        <ele>418</ele>
        <time>2015-10-11T08:51:10Z</time>
      </trkpt>
      <trkpt lat="49.99898" lon="5.49211">
        <ele>418</ele>
        <time>2015-10-11T08:51:15Z</time>
      </trkpt>
      <trkpt lat="49.99902" lon="5.49212">
        <ele>418</ele>
        <time>2015-10-11T08:51:20Z</time>
      </trkpt>
      <trkpt lat="49.99908" lon="5.49209">
        <ele>418</ele>
        <time>2015-10-11T08:51:26Z</time>
      </trkpt>
      <trkpt lat="49.99912" lon="5.49205">
        <ele>417</ele>
        <time>2015-10-11T08:51:32Z</time>
      </trkpt>
      <trkpt lat="49.99915" lon="5.49199">
        <ele>417</ele>
        <time>2015-10-11T08:51:37Z</time>
      </trkpt>
      <trkpt lat="49.9992" lon="5.49193">
        <ele>416</ele>
        <time>2015-10-11T08:51:43Z</time>
      </trkpt>
      <trkpt lat="49.99924" lon="5.49188">
        <ele>416</ele>
        <time>2015-10-11T08:51:48Z</time>
      </trkpt>
      <trkpt lat="49.99927" lon="5.49182">
        <ele>415</ele>
        <time>2015-10-11T08:51:53Z</time>
      </trkpt>
      <trkpt lat="49.99932" lon="5.49175">
        <ele>415</ele>
        <time>2015-10-11T08:51:59Z</time>
      </trkpt>
      <trkpt lat="49.99937" lon="5.49167">
        <ele>414</ele>
        <time>2015-10-11T08:52:05Z</time>
      </trkpt>
      <trkpt lat="49.99941" lon="5.49159">
        <ele>413</ele>
        <time>2015-10-11T08:52:11Z</time>
      </trkpt>
      <trkpt lat="49.99945" lon="5.49154">
        <ele>412</ele>
        <time>2015-10-11T08:52:16Z</time>
      </trkpt>
      <trkpt lat="49.9995" lon="5.49147">
        <ele>411</ele>
        <time>2015-10-11T08:52:22Z</time>
      </trkpt>
      <trkpt lat="49.99954" lon="5.49139">
        <ele>410</ele>
        <time>2015-10-11T08:52:28Z</time>
      </trkpt>
      <trkpt lat="49.9996" lon="5.49133">
        <ele>410</ele>
        <time>2015-10-11T08:52:34Z</time>
      </trkpt>
      <trkpt lat="49.99965" lon="5.49128">
        <ele>409</ele>
        <time>2015-10-11T08:52:40Z</time>
      </trkpt>
      <trkpt lat="49.99965" lon="5.49129">
        <ele>408</ele>
        <time>2015-10-11T08:52:45Z</time>
      </trkpt>
      <trkpt lat="49.99968" lon="5.49124">
        <ele>409</ele>
        <time>2015-10-11T08:52:50Z</time>
      </trkpt>
      <trkpt lat="49.99972" lon="5.49117">
        <ele>408</ele>
        <time>2015-10-11T08:52:55Z</time>
      </trkpt>
      <trkpt lat="49.99976" lon="5.49112">
        <ele>407</ele>
        <time>2015-10-11T08:53:00Z</time>
      </trkpt>
      <trkpt lat="49.99982" lon="5.49105">
        <ele>407</ele>
        <time>2015-10-11T08:53:06Z</time>
      </trkpt>
      <trkpt lat="49.99986" lon="5.49097">
        <ele>405</ele>
        <time>2015-10-11T08:53:12Z</time>
      </trkpt>
      <trkpt lat="49.99991" lon="5.49089">
        <ele>405</ele>
        <time>2015-10-11T08:53:18Z</time>
      </trkpt>
      <trkpt lat="49.99994" lon="5.49082">
        <ele>404</ele>
        <time>2015-10-11T08:53:23Z</time>
      </trkpt>
      <trkpt lat="49.99997" lon="5.49074">
        <ele>404</ele>
        <time>2015-10-11T08:53:28Z</time>
      </trkpt>
      <trkpt lat="50.00002" lon="5.49064">
        <ele>403</ele>
        <time>2015-10-11T08:53:34Z</time>
      </trkpt>
      <trkpt lat="50.00005" lon="5.49058">
        <ele>403</ele>
        <time>2015-10-11T08:53:39Z</time>
      </trkpt>
      <trkpt lat="50.00009" lon="5.49051">
        <ele>402</ele>
        <time>2015-10-11T08:53:44Z</time>
      </trkpt>
      <trkpt lat="50.00015" lon="5.49044">
        <ele>401</ele>
        <time>2015-10-11T08:53:50Z</time>
      </trkpt>
      <trkpt lat="50.00021" lon="5.4904">
        <ele>401</ele>
        <time>2015-10-11T08:53:56Z</time>
      </trkpt>
      <trkpt lat="50.00026" lon="5.49046">
        <ele>401</ele>
        <time>2015-10-11T08:54:02Z</time>
      </trkpt>
      <trkpt lat="50.00027" lon="5.49051">
        <ele>401</ele>
        <time>2015-10-11T08:54:07Z</time>
      </trkpt>
      <trkpt lat="50.0003" lon="5.49056">
        <ele>401</ele>
        <time>2015-10-11T08:54:13Z</time>
      </trkpt>
      <trkpt lat="50.00034" lon="5.49063">
        <ele>401</ele>
        <time>2015-10-11T08:54:18Z</time>
      </trkpt>
      <trkpt lat="50.00038" lon="5.49071">
        <ele>401</ele>
        <time>2015-10-11T08:54:24Z</time>
      </trkpt>
      <trkpt lat="50.0004" lon="5.49078">
        <ele>401</ele>
        <time>2015-10-11T08:54:29Z</time>
      </trkpt>
      <trkpt lat="50.00044" lon="5.49084">
        <ele>402</ele>
        <time>2015-10-11T08:54:34Z</time>
      </trkpt>
      <trkpt lat="50.00048" lon="5.49092">
        <ele>402</ele>
        <time>2015-10-11T08:54:40Z</time>
      </trkpt>
      <trkpt lat="50.00051" lon="5.49098">
        <ele>402</ele>
        <time>2015-10-11T08:54:45Z</time>
      </trkpt>
      <trkpt lat="50.00055" lon="5.49104">
        <ele>403</ele>
        <time>2015-10-11T08:54:50Z</time>
      </trkpt>
      <trkpt lat="50.00058" lon="5.49111">
        <ele>403</ele>
        <time>2015-10-11T08:54:56Z</time>
      </trkpt>
      <trkpt lat="50.00062" lon="5.49118">
        <ele>403</ele>
        <time>2015-10-11T08:55:02Z</time>
      </trkpt>
      <trkpt lat="50.00065" lon="5.49126">
        <ele>403</ele>
        <time>2015-10-11T08:55:08Z</time>
      </trkpt>
      <trkpt lat="50.00068" lon="5.49131">
        <ele>403</ele>
        <time>2015-10-11T08:55:13Z</time>
      </trkpt>
      <trkpt lat="50.00072" lon="5.49137">
        <ele>403</ele>
        <time>2015-10-11T08:55:18Z</time>
      </trkpt>
      <trkpt lat="50.00077" lon="5.49145">
        <ele>403</ele>
        <time>2015-10-11T08:55:24Z</time>
      </trkpt>
      <trkpt lat="50.0008" lon="5.49152">
        <ele>403</ele>
        <time>2015-10-11T08:55:29Z</time>
      </trkpt>
      <trkpt lat="50.00085" lon="5.4916">
        <ele>403</ele>
        <time>2015-10-11T08:55:35Z</time>
      </trkpt>
      <trkpt lat="50.00087" lon="5.49166">
        <ele>405</ele>
        <time>2015-10-11T08:55:40Z</time>
      </trkpt>
      <trkpt lat="50.00089" lon="5.49173">
        <ele>405</ele>
        <time>2015-10-11T08:55:45Z</time>
      </trkpt>
      <trkpt lat="50.00093" lon="5.4918">
        <ele>405</ele>
        <time>2015-10-11T08:55:51Z</time>
      </trkpt>
      <trkpt lat="50.00097" lon="5.49187">
        <ele>405</ele>
        <time>2015-10-11T08:55:56Z</time>
      </trkpt>
      <trkpt lat="50.00101" lon="5.49194">
        <ele>405</ele>
        <time>2015-10-11T08:56:02Z</time>
      </trkpt>
      <trkpt lat="50.00104" lon="5.49202">
        <ele>405</ele>
        <time>2015-10-11T08:56:08Z</time>
      </trkpt>
      <trkpt lat="50.00108" lon="5.49209">
        <ele>406</ele>
        <time>2015-10-11T08:56:13Z</time>
      </trkpt>
      <trkpt lat="50.00109" lon="5.49217">
        <ele>406</ele>
        <time>2015-10-11T08:56:19Z</time>
      </trkpt>
      <trkpt lat="50.00111" lon="5.49222">
        <ele>407</ele>
        <time>2015-10-11T08:56:24Z</time>
      </trkpt>
      <trkpt lat="50.00115" lon="5.49228">
        <ele>407</ele>
        <time>2015-10-11T08:56:30Z</time>
      </trkpt>
      <trkpt lat="50.00118" lon="5.49232">
        <ele>407</ele>
        <time>2015-10-11T08:56:35Z</time>
      </trkpt>
      <trkpt lat="50.00121" lon="5.49239">
        <ele>408</ele>
        <time>2015-10-11T08:56:41Z</time>
      </trkpt>
      <trkpt lat="50.00124" lon="5.49246">
        <ele>408</ele>
        <time>2015-10-11T08:56:47Z</time>
      </trkpt>
      <trkpt lat="50.00128" lon="5.49253">
        <ele>408</ele>
        <time>2015-10-11T08:56:53Z</time>
      </trkpt>
      <trkpt lat="50.00132" lon="5.49261">
        <ele>409</ele>
        <time>2015-10-11T08:56:59Z</time>
      </trkpt>
      <trkpt lat="50.00135" lon="5.49267">
        <ele>409</ele>
        <time>2015-10-11T08:57:04Z</time>
      </trkpt>
      <trkpt lat="50.00138" lon="5.49275">
        <ele>409</ele>
        <time>2015-10-11T08:57:10Z</time>
      </trkpt>
      <trkpt lat="50.0014" lon="5.49281">
        <ele>410</ele>
        <time>2015-10-11T08:57:15Z</time>
      </trkpt>
      <trkpt lat="50.00143" lon="5.49287">
        <ele>410</ele>
        <time>2015-10-11T08:57:20Z</time>
      </trkpt>
      <trkpt lat="50.00147" lon="5.49294">
        <ele>411</ele>
        <time>2015-10-11T08:57:26Z</time>
      </trkpt>
      <trkpt lat="50.0015" lon="5.49301">
        <ele>411</ele>
        <time>2015-10-11T08:57:32Z</time>
      </trkpt>
      <trkpt lat="50.00153" lon="5.49307">
        <ele>411</ele>
        <time>2015-10-11T08:57:37Z</time>
      </trkpt>
      <trkpt lat="50.00156" lon="5.49314">
        <ele>412</ele>
        <time>2015-10-11T08:57:43Z</time>
      </trkpt>
      <trkpt lat="50.00159" lon="5.4932">
        <ele>412</ele>
        <time>2015-10-11T08:57:48Z</time>
      </trkpt>
      <trkpt lat="50.00162" lon="5.49327">
        <ele>413</ele>
        <time>2015-10-11T08:57:54Z</time>
      </trkpt>
      <trkpt lat="50.00164" lon="5.49333">
        <ele>413</ele>
        <time>2015-10-11T08:57:59Z</time>
      </trkpt>
      <trkpt lat="50.00167" lon="5.49339">
        <ele>413</ele>
        <time>2015-10-11T08:58:04Z</time>
      </trkpt>
      <trkpt lat="50.0017" lon="5.49346">
        <ele>413</ele>
        <time>2015-10-11T08:58:10Z</time>
      </trkpt>
      <trkpt lat="50.00174" lon="5.49353">
        <ele>414</ele>
        <time>2015-10-11T08:58:16Z</time>
      </trkpt>
      <trkpt lat="50.00177" lon="5.49361">
        <ele>414</ele>
        <time>2015-10-11T08:58:22Z</time>
      </trkpt>
      <trkpt lat="50.0018" lon="5.49369">
        <ele>414</ele>
        <time>2015-10-11T08:58:28Z</time>
      </trkpt>
      <trkpt lat="50.00181" lon="5.49376">
        <ele>415</ele>
        <time>2015-10-11T08:58:33Z</time>
      </trkpt>
      <trkpt lat="50.00184" lon="5.49384">
        <ele>415</ele>
        <time>2015-10-11T08:58:39Z</time>
      </trkpt>
      <trkpt lat="50.00185" lon="5.49391">
        <ele>415</ele>
        <time>2015-10-11T08:58:44Z</time>
      </trkpt>
      <trkpt lat="50.00187" lon="5.49399">
        <ele>415</ele>
        <time>2015-10-11T08:58:50Z</time>
      </trkpt>
      <trkpt lat="50.0019" lon="5.49406">
        <ele>416</ele>
        <time>2015-10-11T08:58:55Z</time>
      </trkpt>
      <trkpt lat="50.00192" lon="5.49412">
        <ele>416</ele>
        <time>2015-10-11T08:59:00Z</time>
      </trkpt>
      <trkpt lat="50.00195" lon="5.4942">
        <ele>417</ele>
        <time>2015-10-11T08:59:06Z</time>
      </trkpt>
      <trkpt lat="50.00196" lon="5.49426">
        <ele>417</ele>
        <time>2015-10-11T08:59:11Z</time>
      </trkpt>
      <trkpt lat="50.00198" lon="5.49431">
        <ele>417</ele>
        <time>2015-10-11T08:59:17Z</time>
      </trkpt>
      <trkpt lat="50.002" lon="5.49437">
        <ele>418</ele>
        <time>2015-10-11T08:59:22Z</time>
      </trkpt>
      <trkpt lat="50.00203" lon="5.49443">
        <ele>418</ele>
        <time>2015-10-11T08:59:27Z</time>
      </trkpt>
      <trkpt lat="50.00205" lon="5.4945">
        <ele>419</ele>
        <time>2015-10-11T08:59:33Z</time>
      </trkpt>
      <trkpt lat="50.00208" lon="5.49457">
        <ele>419</ele>
        <time>2015-10-11T08:59:38Z</time>
      </trkpt>
      <trkpt lat="50.0021" lon="5.49464">
        <ele>419</ele>
        <time>2015-10-11T08:59:43Z</time>
      </trkpt>
      <trkpt lat="50.00213" lon="5.49472">
        <ele>419</ele>
        <time>2015-10-11T08:59:49Z</time>
      </trkpt>
      <trkpt lat="50.00217" lon="5.49479">
        <ele>420</ele>
        <time>2015-10-11T08:59:54Z</time>
      </trkpt>
      <trkpt lat="50.00219" lon="5.49483">
        <ele>420</ele>
        <time>2015-10-11T09:00:00Z</time>
      </trkpt>
      <trkpt lat="50.00222" lon="5.49488">
        <ele>420</ele>
        <time>2015-10-11T09:00:05Z</time>
      </trkpt>
      <trkpt lat="50.00224" lon="5.49494">
        <ele>421</ele>
        <time>2015-10-11T09:00:10Z</time>
      </trkpt>
      <trkpt lat="50.00227" lon="5.49499">
        <ele>421</ele>
        <time>2015-10-11T09:00:15Z</time>
      </trkpt>
      <trkpt lat="50.0023" lon="5.49505">
        <ele>421</ele>
        <time>2015-10-11T09:00:21Z</time>
      </trkpt>
      <trkpt lat="50.00234" lon="5.4951">
        <ele>422</ele>
        <time>2015-10-11T09:00:27Z</time>
      </trkpt>
      <trkpt lat="50.00237" lon="5.49514">
        <ele>422</ele>
        <time>2015-10-11T09:00:32Z</time>
      </trkpt>
      <trkpt lat="50.00239" lon="5.49515">
        <ele>422</ele>
        <time>2015-10-11T09:00:37Z</time>
      </trkpt>
      <trkpt lat="50.0024" lon="5.49516">
        <ele>422</ele>
        <time>2015-10-11T09:00:43Z</time>
      </trkpt>
      <trkpt lat="50.0024" lon="5.49516">
        <ele>422</ele>
        <time>2015-10-11T09:00:48Z</time>
      </trkpt>
      <trkpt lat="50.00244" lon="5.49521">
        <ele>422</ele>
        <time>2015-10-11T09:00:53Z</time>
      </trkpt>
      <trkpt lat="50.00246" lon="5.49521">
        <ele>423</ele>
        <time>2015-10-11T09:00:58Z</time>
      </trkpt>
      <trkpt lat="50.0025" lon="5.49524">
        <ele>422</ele>
        <time>2015-10-11T09:01:04Z</time>
      </trkpt>
      <trkpt lat="50.00254" lon="5.49528">
        <ele>423</ele>
        <time>2015-10-11T09:01:09Z</time>
      </trkpt>
      <trkpt lat="50.00259" lon="5.49532">
        <ele>423</ele>
        <time>2015-10-11T09:01:15Z</time>
      </trkpt>
      <trkpt lat="50.00263" lon="5.49535">
        <ele>423</ele>
        <time>2015-10-11T09:01:20Z</time>
      </trkpt>
      <trkpt lat="50.00267" lon="5.49536">
        <ele>423</ele>
        <time>2015-10-11T09:01:26Z</time>
      </trkpt>
      <trkpt lat="50.00271" lon="5.4954">
        <ele>423</ele>
        <time>2015-10-11T09:01:32Z</time>
      </trkpt>
      <trkpt lat="50.00275" lon="5.49544">
        <ele>424</ele>
        <time>2015-10-11T09:01:38Z</time>
      </trkpt>
      <trkpt lat="50.00277" lon="5.49543">
        <ele>424</ele>
        <time>2015-10-11T09:01:44Z</time>
      </trkpt>
      <trkpt lat="50.0028" lon="5.49551">
        <ele>424</ele>
        <time>2015-10-11T09:01:50Z</time>
      </trkpt>
      <trkpt lat="50.00285" lon="5.49555">
        <ele>424</ele>
        <time>2015-10-11T09:01:55Z</time>
      </trkpt>
      <trkpt lat="50.00289" lon="5.4956">
        <ele>424</ele>
        <time>2015-10-11T09:02:00Z</time>
      </trkpt>
      <trkpt lat="50.00295" lon="5.49565">
        <ele>425</ele>
        <time>2015-10-11T09:02:06Z</time>
      </trkpt>
      <trkpt lat="50.003" lon="5.49569">
        <ele>425</ele>
        <time>2015-10-11T09:02:12Z</time>
      </trkpt>
      <trkpt lat="50.00305" lon="5.49573">
        <ele>425</ele>
        <time>2015-10-11T09:02:17Z</time>
      </trkpt>
      <trkpt lat="50.00312" lon="5.49578">
        <ele>426</ele>
        <time>2015-10-11T09:02:23Z</time>
      </trkpt>
      <trkpt lat="50.00318" lon="5.49584">
        <ele>427</ele>
        <time>2015-10-11T09:02:28Z</time>
      </trkpt>
      <trkpt lat="50.00323" lon="5.4959">
        <ele>427</ele>
        <time>2015-10-11T09:02:33Z</time>
      </trkpt>
      <trkpt lat="50.00325" lon="5.49595">
        <ele>427</ele>
        <time>2015-10-11T09:02:39Z</time>
      </trkpt>
      <trkpt lat="50.00328" lon="5.496">
        <ele>427</ele>
        <time>2015-10-11T09:02:44Z</time>
      </trkpt>
      <trkpt lat="50.00331" lon="5.49605">
        <ele>427</ele>
        <time>2015-10-11T09:02:49Z</time>
      </trkpt>
      <trkpt lat="50.00335" lon="5.4961">
        <ele>428</ele>
        <time>2015-10-11T09:02:54Z</time>
      </trkpt>
      <trkpt lat="50.00338" lon="5.49615">
        <ele>428</ele>
        <time>2015-10-11T09:03:00Z</time>
      </trkpt>
      <trkpt lat="50.00342" lon="5.49621">
        <ele>429</ele>
        <time>2015-10-11T09:03:06Z</time>
      </trkpt>
      <trkpt lat="50.00346" lon="5.49624">
        <ele>429</ele>
        <time>2015-10-11T09:03:11Z</time>
      </trkpt>
      <trkpt lat="50.00349" lon="5.49628">
        <ele>429</ele>
        <time>2015-10-11T09:03:16Z</time>
      </trkpt>
      <trkpt lat="50.00354" lon="5.49632">
        <ele>429</ele>
        <time>2015-10-11T09:03:22Z</time>
      </trkpt>
      <trkpt lat="50.00359" lon="5.49636">
        <ele>430</ele>
        <time>2015-10-11T09:03:27Z</time>
      </trkpt>
      <trkpt lat="50.00364" lon="5.49641">
        <ele>431</ele>
        <time>2015-10-11T09:03:33Z</time>
      </trkpt>
      <trkpt lat="50.00369" lon="5.49647">
        <ele>431</ele>
        <time>2015-10-11T09:03:39Z</time>
      </trkpt>
      <trkpt lat="50.0037" lon="5.49647">
        <ele>431</ele>
        <time>2015-10-11T09:03:44Z</time>
      </trkpt>
      <trkpt lat="50.00375" lon="5.49651">
        <ele>432</ele>
        <time>2015-10-11T09:03:50Z</time>
      </trkpt>
      <trkpt lat="50.00381" lon="5.49657">
        <ele>433</ele>
        <time>2015-10-11T09:03:56Z</time>
      </trkpt>
      <trkpt lat="50.00383" lon="5.49665">
        <ele>433</ele>
        <time>2015-10-11T09:04:02Z</time>
      </trkpt>
      <trkpt lat="50.00381" lon="5.49669">
        <ele>433</ele>
        <time>2015-10-11T09:04:07Z</time>
      </trkpt>
      <trkpt lat="50.0038" lon="5.49672">
        <ele>433</ele>
        <time>2015-10-11T09:04:12Z</time>
      </trkpt>
      <trkpt lat="50.00378" lon="5.49677">
        <ele>433</ele>
        <time>2015-10-11T09:04:17Z</time>
      </trkpt>
      <trkpt lat="50.00375" lon="5.49681">
        <ele>433</ele>
        <time>2015-10-11T09:04:22Z</time>
      </trkpt>
      <trkpt lat="50.00372" lon="5.49688">
        <ele>433</ele>
        <time>2015-10-11T09:04:28Z</time>
      </trkpt>
      <trkpt lat="50.0037" lon="5.49686">
        <ele>434</ele>
        <time>2015-10-11T09:04:34Z</time>
      </trkpt>
      <trkpt lat="50.0037" lon="5.49687">
        <ele>434</ele>
        <time>2015-10-11T09:04:39Z</time>
      </trkpt>
      <trkpt lat="50.00369" lon="5.49689">
        <ele>435</ele>
        <time>2015-10-11T09:04:45Z</time>
      </trkpt>
      <trkpt lat="50.00366" lon="5.49695">
        <ele>435</ele>
        <time>2015-10-11T09:04:50Z</time>
      </trkpt>
      <trkpt lat="50.00362" lon="5.49705">
        <ele>435</ele>
        <time>2015-10-11T09:04:56Z</time>
      </trkpt>
      <trkpt lat="50.00359" lon="5.49712">
        <ele>435</ele>
        <time>2015-10-11T09:05:01Z</time>
      </trkpt>
      <trkpt lat="50.00357" lon="5.49717">
        <ele>436</ele>
        <time>2015-10-11T09:05:07Z</time>
      </trkpt>
      <trkpt lat="50.00355" lon="5.49723">
        <ele>436</ele>
        <time>2015-10-11T09:05:12Z</time>
      </trkpt>
      <trkpt lat="50.00352" lon="5.49731">
        <ele>436</ele>
        <time>2015-10-11T09:05:17Z</time>
      </trkpt>
      <trkpt lat="50.00348" lon="5.49739">
        <ele>436</ele>
        <time>2015-10-11T09:05:23Z</time>
      </trkpt>
      <trkpt lat="50.00344" lon="5.49747">
        <ele>436</ele>
        <time>2015-10-11T09:05:28Z</time>
      </trkpt>
      <trkpt lat="50.00341" lon="5.49753">
        <ele>437</ele>
        <time>2015-10-11T09:05:33Z</time>
      </trkpt>
      <trkpt lat="50.00338" lon="5.49759">
        <ele>436</ele>
        <time>2015-10-11T09:05:39Z</time>
      </trkpt>
      <trkpt lat="50.00335" lon="5.49765">
        <ele>437</ele>
        <time>2015-10-11T09:05:45Z</time>
      </trkpt>
      <trkpt lat="50.00333" lon="5.49769">
        <ele>437</ele>
        <time>2015-10-11T09:05:50Z</time>
      </trkpt>
      <trkpt lat="50.00329" lon="5.49774">
        <ele>438</ele>
        <time>2015-10-11T09:05:56Z</time>
      </trkpt>
      <trkpt lat="50.00327" lon="5.49779">
        <ele>438</ele>
        <time>2015-10-11T09:06:01Z</time>
      </trkpt>
      <trkpt lat="50.00323" lon="5.49785">
        <ele>438</ele>
        <time>2015-10-11T09:06:07Z</time>
      </trkpt>
      <trkpt lat="50.0032" lon="5.49792">
        <ele>438</ele>
        <time>2015-10-11T09:06:13Z</time>
      </trkpt>
      <trkpt lat="50.00317" lon="5.49796">
        <ele>439</ele>
        <time>2015-10-11T09:06:18Z</time>
      </trkpt>
      <trkpt lat="50.00315" lon="5.49801">
        <ele>439</ele>
        <time>2015-10-11T09:06:24Z</time>
      </trkpt>
      <trkpt lat="50.00313" lon="5.49804">
        <ele>439</ele>
        <time>2015-10-11T09:06:29Z</time>
      </trkpt>
      <trkpt lat="50.00312" lon="5.49808">
        <ele>439</ele>
        <time>2015-10-11T09:06:35Z</time>
      </trkpt>
      <trkpt lat="50.0031" lon="5.49813">
        <ele>439</ele>
        <time>2015-10-11T09:06:41Z</time>
      </trkpt>
      <trkpt lat="50.00307" lon="5.49817">
        <ele>439</ele>
        <time>2015-10-11T09:06:46Z</time>
      </trkpt>
      <trkpt lat="50.00309" lon="5.49819">
        <ele>440</ele>
        <time>2015-10-11T09:06:51Z</time>
      </trkpt>
      <trkpt lat="50.00312" lon="5.4982">
        <ele>440</ele>
        <time>2015-10-11T09:06:57Z</time>
      </trkpt>
      <trkpt lat="50.00314" lon="5.49822">
        <ele>440</ele>
        <time>2015-10-11T09:07:03Z</time>
      </trkpt>
      <trkpt lat="50.00315" lon="5.49823">
        <ele>441</ele>
        <time>2015-10-11T09:07:08Z</time>
      </trkpt>
      <trkpt lat="50.00315" lon="5.49826">
        <ele>441</ele>
        <time>2015-10-11T09:07:14Z</time>
      </trkpt>
      <trkpt lat="50.00313" lon="5.49828">
        <ele>441</ele>
        <time>2015-10-11T09:07:19Z</time>
      </trkpt>
      <trkpt lat="50.00312" lon="5.49832">
        <ele>441</ele>
        <time>2015-10-11T09:07:24Z</time>
      </trkpt>
      <trkpt lat="50.0031" lon="5.49834">
        <ele>441</ele>
        <time>2015-10-11T09:07:30Z</time>
      </trkpt>
      <trkpt lat="50.0031" lon="5.49837">
        <ele>441</ele>
        <time>2015-10-11T09:07:35Z</time>
      </trkpt>
      <trkpt lat="50.0031" lon="5.49841">
        <ele>441</ele>
        <time>2015-10-11T09:07:41Z</time>
      </trkpt>
      <trkpt lat="50.0031" lon="5.49843">
        <ele>441</ele>
        <time>2015-10-11T09:07:46Z</time>
      </trkpt>
      <trkpt lat="50.0031" lon="5.49845">
        <ele>441</ele>
        <time>2015-10-11T09:07:52Z</time>
      </trkpt>
      <trkpt lat="50.00309" lon="5.49846">
        <ele>441</ele>
        <time>2015-10-11T09:07:57Z</time>
      </trkpt>
      <trkpt lat="50.00309" lon="5.49846">
        <ele>441</ele>
        <time>2015-10-11T09:08:03Z</time>
      </trkpt>
      <trkpt lat="50.00309" lon="5.49844">
        <ele>442</ele>
        <time>2015-10-11T09:08:09Z</time>
      </trkpt>
      <trkpt lat="50.00308" lon="5.49843">
        <ele>442</ele>
        <time>2015-10-11T09:08:14Z</time>
      </trkpt>
      <trkpt lat="50.00306" lon="5.49843">
        <ele>441</ele>
        <time>2015-10-11T09:08:19Z</time>
      </trkpt>
      <trkpt lat="50.00303" lon="5.49844">
        <ele>442</ele>
        <time>2015-10-11T09:08:25Z</time>
      </trkpt>
      <trkpt lat="50.00301" lon="5.49845">
        <ele>442</ele>
        <time>2015-10-11T09:08:30Z</time>
      </trkpt>
      <trkpt lat="50.00298" lon="5.49849">
        <ele>442</ele>
        <time>2015-10-11T09:08:36Z</time>
      </trkpt>
      <trkpt lat="50.00296" lon="5.49851">
        <ele>442</ele>
        <time>2015-10-11T09:08:41Z</time>
      </trkpt>
      <trkpt lat="50.00293" lon="5.49853">
        <ele>442</ele>
        <time>2015-10-11T09:08:47Z</time>
      </trkpt>
      <trkpt lat="50.00293" lon="5.49856">
        <ele>442</ele>
        <time>2015-10-11T09:08:53Z</time>
      </trkpt>
      <trkpt lat="50.00293" lon="5.4986">
        <ele>442</ele>
        <time>2015-10-11T09:08:59Z</time>
      </trkpt>
      <trkpt lat="50.00292" lon="5.49861">
        <ele>442</ele>
        <time>2015-10-11T09:09:04Z</time>
      </trkpt>
      <trkpt lat="50.00292" lon="5.49864">
        <ele>442</ele>
        <time>2015-10-11T09:09:09Z</time>
      </trkpt>
      <trkpt lat="50.00292" lon="5.49867">
        <ele>442</ele>
        <time>2015-10-11T09:09:15Z</time>
      </trkpt>
      <trkpt lat="50.00291" lon="5.49867">
        <ele>442</ele>
        <time>2015-10-11T09:09:20Z</time>
      </trkpt>
      <trkpt lat="50.00289" lon="5.49865">
        <ele>442</ele>
        <time>2015-10-11T09:09:25Z</time>
      </trkpt>
      <trkpt lat="50.00288" lon="5.49864">
        <ele>442</ele>
        <time>2015-10-11T09:09:31Z</time>
      </trkpt>
      <trkpt lat="50.00286" lon="5.49866">
        <ele>442</ele>
        <time>2015-10-11T09:09:36Z</time>
      </trkpt>
      <trkpt lat="50.00284" lon="5.4987">
        <ele>443</ele>
        <time>2015-10-11T09:09:42Z</time>
      </trkpt>
      <trkpt lat="50.00282" lon="5.49875">
        <ele>443</ele>
        <time>2015-10-11T09:09:48Z</time>
      </trkpt>
      <trkpt lat="50.0028" lon="5.49881">
        <ele>443</ele>
        <time>2015-10-11T09:09:53Z</time>
      </trkpt>
      <trkpt lat="50.00279" lon="5.49886">
        <ele>443</ele>
        <time>2015-10-11T09:09:59Z</time>
      </trkpt>
      <trkpt lat="50.00278" lon="5.49894">
        <ele>444</ele>
        <time>2015-10-11T09:10:05Z</time>
      </trkpt>
      <trkpt lat="50.00278" lon="5.49899">
        <ele>444</ele>
        <time>2015-10-11T09:10:10Z</time>
      </trkpt>
      <trkpt lat="50.00275" lon="5.49904">
        <ele>444</ele>
        <time>2015-10-11T09:10:15Z</time>
      </trkpt>
      <trkpt lat="50.00272" lon="5.49911">
        <ele>444</ele>
        <time>2015-10-11T09:10:21Z</time>
      </trkpt>
      <trkpt lat="50.00268" lon="5.49918">
        <ele>445</ele>
        <time>2015-10-11T09:10:27Z</time>
      </trkpt>
      <trkpt lat="50.00266" lon="5.49923">
        <ele>445</ele>
        <time>2015-10-11T09:10:33Z</time>
      </trkpt>
      <trkpt lat="50.00265" lon="5.49926">
        <ele>445</ele>
        <time>2015-10-11T09:10:39Z</time>
      </trkpt>
      <trkpt lat="50.00265" lon="5.49927">
        <ele>445</ele>
        <time>2015-10-11T09:10:45Z</time>
      </trkpt>
      <trkpt lat="50.00264" lon="5.49929">
        <ele>445</ele>
        <time>2015-10-11T09:10:52Z</time>
      </trkpt>
      <trkpt lat="50.00261" lon="5.49929">
        <ele>445</ele>
        <time>2015-10-11T09:10:58Z</time>
      </trkpt>
      <trkpt lat="50.00257" lon="5.49935">
        <ele>445</ele>
        <time>2015-10-11T09:11:04Z</time>
      </trkpt>
      <trkpt lat="50.00256" lon="5.49939">
        <ele>445</ele>
        <time>2015-10-11T09:11:09Z</time>
      </trkpt>
      <trkpt lat="50.00255" lon="5.49941">
        <ele>445</ele>
        <time>2015-10-11T09:11:15Z</time>
      </trkpt>
      <trkpt lat="50.00253" lon="5.49941">
        <ele>445</ele>
        <time>2015-10-11T09:11:20Z</time>
      </trkpt>
      <trkpt lat="50.00252" lon="5.49942">
        <ele>445</ele>
        <time>2015-10-11T09:11:26Z</time>
      </trkpt>
      <trkpt lat="50.00251" lon="5.49943">
        <ele>445</ele>
        <time>2015-10-11T09:11:32Z</time>
      </trkpt>
      <trkpt lat="50.00249" lon="5.49944">
        <ele>446</ele>
        <time>2015-10-11T09:11:37Z</time>
      </trkpt>
      <trkpt lat="50.00247" lon="5.49948">
        <ele>446</ele>
        <time>2015-10-11T09:11:42Z</time>
      </trkpt>
      <trkpt lat="50.00245" lon="5.49953">
        <ele>446</ele>
        <time>2015-10-11T09:11:47Z</time>
      </trkpt>
      <trkpt lat="50.00242" lon="5.49958">
        <ele>446</ele>
        <time>2015-10-11T09:11:52Z</time>
      </trkpt>
      <trkpt lat="50.00238" lon="5.49965">
        <ele>446</ele>
        <time>2015-10-11T09:11:58Z</time>
      </trkpt>
      <trkpt lat="50.00235" lon="5.4997">
        <ele>447</ele>
        <time>2015-10-11T09:12:03Z</time>
      </trkpt>
      <trkpt lat="50.00232" lon="5.49977">
        <ele>447</ele>
        <time>2015-10-11T09:12:09Z</time>
      </trkpt>
      <trkpt lat="50.0023" lon="5.49984">
        <ele>448</ele>
        <time>2015-10-11T09:12:15Z</time>
      </trkpt>
      <trkpt lat="50.00228" lon="5.4999">
        <ele>448</ele>
        <time>2015-10-11T09:12:21Z</time>
      </trkpt>
      <trkpt lat="50.00226" lon="5.49996">
        <ele>448</ele>
        <time>2015-10-11T09:12:26Z</time>
      </trkpt>
      <trkpt lat="50.00224" lon="5.50001">
        <ele>448</ele>
        <time>2015-10-11T09:12:31Z</time>
      </trkpt>
      <trkpt lat="50.00222" lon="5.50008">
        <ele>448</ele>
        <time>2015-10-11T09:12:37Z</time>
      </trkpt>
      <trkpt lat="50.0022" lon="5.50014">
        <ele>448</ele>
        <time>2015-10-11T09:12:42Z</time>
      </trkpt>
      <trkpt lat="50.00219" lon="5.50021">
        <ele>449</ele>
        <time>2015-10-11T09:12:47Z</time>
      </trkpt>
      <trkpt lat="50.00217" lon="5.50027">
        <ele>449</ele>
        <time>2015-10-11T09:12:52Z</time>
      </trkpt>
      <trkpt lat="50.00214" lon="5.50035">
        <ele>449</ele>
        <time>2015-10-11T09:12:58Z</time>
      </trkpt>
      <trkpt lat="50.00213" lon="5.50043">
        <ele>450</ele>
        <time>2015-10-11T09:13:04Z</time>
      </trkpt>
      <trkpt lat="50.00211" lon="5.50049">
        <ele>450</ele>
        <time>2015-10-11T09:13:09Z</time>
      </trkpt>
      <trkpt lat="50.00211" lon="5.50054">
        <ele>451</ele>
        <time>2015-10-11T09:13:15Z</time>
      </trkpt>
      <trkpt lat="50.0021" lon="5.50059">
        <ele>451</ele>
        <time>2015-10-11T09:13:20Z</time>
      </trkpt>
      <trkpt lat="50.00207" lon="5.50066">
        <ele>451</ele>
        <time>2015-10-11T09:13:26Z</time>
      </trkpt>
      <trkpt lat="50.00206" lon="5.50074">
        <ele>451</ele>
        <time>2015-10-11T09:13:32Z</time>
      </trkpt>
      <trkpt lat="50.00205" lon="5.5008">
        <ele>451</ele>
        <time>2015-10-11T09:13:38Z</time>
      </trkpt>
      <trkpt lat="50.00203" lon="5.50087">
        <ele>451</ele>
        <time>2015-10-11T09:13:44Z</time>
      </trkpt>
      <trkpt lat="50.00201" lon="5.50094">
        <ele>452</ele>
        <time>2015-10-11T09:13:49Z</time>
      </trkpt>
      <trkpt lat="50.00199" lon="5.50101">
        <ele>453</ele>
        <time>2015-10-11T09:13:54Z</time>
      </trkpt>
      <trkpt lat="50.00198" lon="5.50109">
        <ele>453</ele>
        <time>2015-10-11T09:14:00Z</time>
      </trkpt>
      <trkpt lat="50.00195" lon="5.50116">
        <ele>453</ele>
        <time>2015-10-11T09:14:06Z</time>
      </trkpt>
      <trkpt lat="50.00194" lon="5.50125">
        <ele>453</ele>
        <time>2015-10-11T09:14:12Z</time>
      </trkpt>
      <trkpt lat="50.00193" lon="5.50132">
        <ele>453</ele>
        <time>2015-10-11T09:14:17Z</time>
      </trkpt>
      <trkpt lat="50.00193" lon="5.50139">
        <ele>453</ele>
        <time>2015-10-11T09:14:22Z</time>
      </trkpt>
      <trkpt lat="50.00191" lon="5.50147">
        <ele>453</ele>
        <time>2015-10-11T09:14:28Z</time>
      </trkpt>
      <trkpt lat="50.00189" lon="5.50155">
        <ele>454</ele>
        <time>2015-10-11T09:14:34Z</time>
      </trkpt>
      <trkpt lat="50.00188" lon="5.50163">
        <ele>454</ele>
        <time>2015-10-11T09:14:40Z</time>
      </trkpt>
      <trkpt lat="50.00187" lon="5.50171">
        <ele>455</ele>
        <time>2015-10-11T09:14:46Z</time>
      </trkpt>
      <trkpt lat="50.00185" lon="5.50177">
        <ele>456</ele>
        <time>2015-10-11T09:14:52Z</time>
      </trkpt>
      <trkpt lat="50.00185" lon="5.50178">
        <ele>456</ele>
        <time>2015-10-11T09:14:58Z</time>
      </trkpt>
      <trkpt lat="50.00185" lon="5.50178">
        <ele>456</ele>
        <time>2015-10-11T09:15:03Z</time>
      </trkpt>
      <trkpt lat="50.00185" lon="5.50181">
        <ele>456</ele>
        <time>2015-10-11T09:15:09Z</time>
      </trkpt>
      <trkpt lat="50.00184" lon="5.50187">
        <ele>456</ele>
        <time>2015-10-11T09:15:14Z</time>
      </trkpt>
      <trkpt lat="50.00183" lon="5.50195">
        <ele>456</ele>
        <time>2015-10-11T09:15:19Z</time>
      </trkpt>
      <trkpt lat="50.00181" lon="5.50202">
        <ele>457</ele>
        <time>2015-10-11T09:15:25Z</time>
      </trkpt>
      <trkpt lat="50.0018" lon="5.50209">
        <ele>457</ele>
        <time>2015-10-11T09:15:31Z</time>
      </trkpt>
      <trkpt lat="50.00178" lon="5.50216">
        <ele>457</ele>
        <time>2015-10-11T09:15:36Z</time>
      </trkpt>
      <trkpt lat="50.00177" lon="5.50222">
        <ele>457</ele>
        <time>2015-10-11T09:15:42Z</time>
      </trkpt>
      <trkpt lat="50.00176" lon="5.50224">
        <ele>458</ele>
        <time>2015-10-11T09:15:48Z</time>
      </trkpt>
      <trkpt lat="50.00175" lon="5.50224">
        <ele>458</ele>
        <time>2015-10-11T09:15:53Z</time>
      </trkpt>
      <trkpt lat="50.00176" lon="5.50224">
        <ele>458</ele>
        <time>2015-10-11T09:15:59Z</time>
      </trkpt>
      <trkpt lat="50.00177" lon="5.50224">
        <ele>458</ele>
        <time>2015-10-11T09:16:04Z</time>
      </trkpt>
      <trkpt lat="50.00175" lon="5.50223">
        <ele>458</ele>
        <time>2015-10-11T09:16:09Z</time>
      </trkpt>
      <trkpt lat="50.00175" lon="5.50222">
        <ele>458</ele>
        <time>2015-10-11T09:16:15Z</time>
      </trkpt>
      <trkpt lat="50.00176" lon="5.50222">
        <ele>458</ele>
        <time>2015-10-11T09:16:21Z</time>
      </trkpt>
      <trkpt lat="50.00177" lon="5.50223">
        <ele>458</ele>
        <time>2015-10-11T09:16:26Z</time>
      </trkpt>
      <trkpt lat="50.00176" lon="5.50222">
        <ele>458</ele>
        <time>2015-10-11T09:16:32Z</time>
      </trkpt>
      <trkpt lat="50.00176" lon="5.50223">
        <ele>458</ele>
        <time>2015-10-11T09:16:37Z</time>
      </trkpt>
      <trkpt lat="50.00176" lon="5.5022">
        <ele>460</ele>
        <time>2015-10-11T09:16:42Z</time>
      </trkpt>
      <trkpt lat="50.00176" lon="5.50221">
        <ele>461</ele>
        <time>2015-10-11T09:16:48Z</time>
      </trkpt>
      <trkpt lat="50.00175" lon="5.50221">
        <ele>461</ele>
        <time>2015-10-11T09:16:53Z</time>
      </trkpt>
      <trkpt lat="50.00174" lon="5.50221">
        <ele>461</ele>
        <time>2015-10-11T09:16:59Z</time>
      </trkpt>
      <trkpt lat="50.00174" lon="5.50222">
        <ele>460</ele>
        <time>2015-10-11T09:17:05Z</time>
      </trkpt>
      <trkpt lat="50.00173" lon="5.50222">
        <ele>460</ele>
        <time>2015-10-11T09:17:11Z</time>
      </trkpt>
      <trkpt lat="50.00172" lon="5.50224">
        <ele>459</ele>
        <time>2015-10-11T09:17:17Z</time>
      </trkpt>
      <trkpt lat="50.00171" lon="5.5023">
        <ele>459</ele>
        <time>2015-10-11T09:17:22Z</time>
      </trkpt>
      <trkpt lat="50.0017" lon="5.50236">
        <ele>460</ele>
        <time>2015-10-11T09:17:27Z</time>
      </trkpt>
      <trkpt lat="50.00171" lon="5.50237">
        <ele>460</ele>
        <time>2015-10-11T09:17:34Z</time>
      </trkpt>
      <trkpt lat="50.00171" lon="5.50237">
        <ele>461</ele>
        <time>2015-10-11T09:17:39Z</time>
      </trkpt>
      <trkpt lat="50.00172" lon="5.50237">
        <ele>461</ele>
        <time>2015-10-11T09:17:45Z</time>
      </trkpt>
      <trkpt lat="50.00172" lon="5.50237">
        <ele>460</ele>
        <time>2015-10-11T09:17:51Z</time>
      </trkpt>
      <trkpt lat="50.00172" lon="5.50241">
        <ele>461</ele>
        <time>2015-10-11T09:17:56Z</time>
      </trkpt>
      <trkpt lat="50.00168" lon="5.50247">
        <ele>461</ele>
        <time>2015-10-11T09:18:02Z</time>
      </trkpt>
      <trkpt lat="50.00166" lon="5.50251">
        <ele>461</ele>
        <time>2015-10-11T09:18:07Z</time>
      </trkpt>
      <trkpt lat="50.00164" lon="5.50256">
        <ele>462</ele>
        <time>2015-10-11T09:18:13Z</time>
      </trkpt>
      <trkpt lat="50.00164" lon="5.50261">
        <ele>461</ele>
        <time>2015-10-11T09:18:18Z</time>
      </trkpt>
      <trkpt lat="50.00163" lon="5.50268">
        <ele>462</ele>
        <time>2015-10-11T09:18:23Z</time>
      </trkpt>
      <trkpt lat="50.00162" lon="5.50275">
        <ele>463</ele>
        <time>2015-10-11T09:18:28Z</time>
      </trkpt>
      <trkpt lat="50.00161" lon="5.50282">
        <ele>463</ele>
        <time>2015-10-11T09:18:34Z</time>
      </trkpt>
      <trkpt lat="50.0016" lon="5.50287">
        <ele>463</ele>
        <time>2015-10-11T09:18:39Z</time>
      </trkpt>
      <trkpt lat="50.00157" lon="5.50294">
        <ele>463</ele>
        <time>2015-10-11T09:18:44Z</time>
      </trkpt>
      <trkpt lat="50.00156" lon="5.50301">
        <ele>464</ele>
        <time>2015-10-11T09:18:49Z</time>
      </trkpt>
      <trkpt lat="50.00154" lon="5.50311">
        <ele>464</ele>
        <time>2015-10-11T09:18:55Z</time>
      </trkpt>
      <trkpt lat="50.00153" lon="5.5032">
        <ele>464</ele>
        <time>2015-10-11T09:19:01Z</time>
      </trkpt>
      <trkpt lat="50.00153" lon="5.5033">
        <ele>464</ele>
        <time>2015-10-11T09:19:07Z</time>
      </trkpt>
      <trkpt lat="50.00152" lon="5.50337">
        <ele>464</ele>
        <time>2015-10-11T09:19:12Z</time>
      </trkpt>
      <trkpt lat="50.0015" lon="5.50345">
        <ele>465</ele>
        <time>2015-10-11T09:19:18Z</time>
      </trkpt>
      <trkpt lat="50.00148" lon="5.50353">
        <ele>465</ele>
        <time>2015-10-11T09:19:24Z</time>
      </trkpt>
      <trkpt lat="50.00146" lon="5.5036">
        <ele>464</ele>
        <time>2015-10-11T09:19:29Z</time>
      </trkpt>
      <trkpt lat="50.00143" lon="5.50368">
        <ele>464</ele>
        <time>2015-10-11T09:19:35Z</time>
      </trkpt>
      <trkpt lat="50.0014" lon="5.50377">
        <ele>465</ele>
        <time>2015-10-11T09:19:41Z</time>
      </trkpt>
      <trkpt lat="50.00138" lon="5.50385">
        <ele>465</ele>
        <time>2015-10-11T09:19:46Z</time>
      </trkpt>
      <trkpt lat="50.00137" lon="5.50393">
        <ele>465</ele>
        <time>2015-10-11T09:19:52Z</time>
      </trkpt>
      <trkpt lat="50.00137" lon="5.50403">
        <ele>465</ele>
        <time>2015-10-11T09:19:57Z</time>
      </trkpt>
      <trkpt lat="50.00137" lon="5.50413">
        <ele>465</ele>
        <time>2015-10-11T09:20:03Z</time>
      </trkpt>
      <trkpt lat="50.00137" lon="5.50422">
        <ele>465</ele>
        <time>2015-10-11T09:20:09Z</time>
      </trkpt>
      <trkpt lat="50.00137" lon="5.50429">
        <ele>465</ele>
        <time>2015-10-11T09:20:14Z</time>
      </trkpt>
      <trkpt lat="50.00134" lon="5.50439">
        <ele>466</ele>
        <time>2015-10-11T09:20:20Z</time>
      </trkpt>
      <trkpt lat="50.00131" lon="5.50446">
        <ele>465</ele>
        <time>2015-10-11T09:20:25Z</time>
      </trkpt>
      <trkpt lat="50.0013" lon="5.50456">
        <ele>465</ele>
        <time>2015-10-11T09:20:31Z</time>
      </trkpt>
      <trkpt lat="50.00129" lon="5.50465">
        <ele>465</ele>
        <time>2015-10-11T09:20:37Z</time>
      </trkpt>
      <trkpt lat="50.00129" lon="5.50474">
        <ele>465</ele>
        <time>2015-10-11T09:20:42Z</time>
      </trkpt>
      <trkpt lat="50.00127" lon="5.50484">
        <ele>465</ele>
        <time>2015-10-11T09:20:48Z</time>
      </trkpt>
      <trkpt lat="50.00125" lon="5.50494">
        <ele>465</ele>
        <time>2015-10-11T09:20:54Z</time>
      </trkpt>
      <trkpt lat="50.00122" lon="5.50501">
        <ele>465</ele>
        <time>2015-10-11T09:21:00Z</time>
      </trkpt>
      <trkpt lat="50.0012" lon="5.50507">
        <ele>465</ele>
        <time>2015-10-11T09:21:05Z</time>
      </trkpt>
      <trkpt lat="50.00117" lon="5.50514">
        <ele>465</ele>
        <time>2015-10-11T09:21:10Z</time>
      </trkpt>
      <trkpt lat="50.00114" lon="5.50522">
        <ele>465</ele>
        <time>2015-10-11T09:21:15Z</time>
      </trkpt>
      <trkpt lat="50.00111" lon="5.5053">
        <ele>465</ele>
        <time>2015-10-11T09:21:20Z</time>
      </trkpt>
      <trkpt lat="50.00108" lon="5.50538">
        <ele>464</ele>
        <time>2015-10-11T09:21:26Z</time>
      </trkpt>
      <trkpt lat="50.00105" lon="5.50547">
        <ele>464</ele>
        <time>2015-10-11T09:21:32Z</time>
      </trkpt>
      <trkpt lat="50.00102" lon="5.50554">
        <ele>464</ele>
        <time>2015-10-11T09:21:38Z</time>
      </trkpt>
      <trkpt lat="50.00099" lon="5.50562">
        <ele>464</ele>
        <time>2015-10-11T09:21:43Z</time>
      </trkpt>
      <trkpt lat="50.00095" lon="5.5057">
        <ele>464</ele>
        <time>2015-10-11T09:21:49Z</time>
      </trkpt>
      <trkpt lat="50.00091" lon="5.5058">
        <ele>464</ele>
        <time>2015-10-11T09:21:55Z</time>
      </trkpt>
      <trkpt lat="50.00088" lon="5.50586">
        <ele>464</ele>
        <time>2015-10-11T09:22:00Z</time>
      </trkpt>
      <trkpt lat="50.00085" lon="5.50593">
        <ele>465</ele>
        <time>2015-10-11T09:22:05Z</time>
      </trkpt>
      <trkpt lat="50.0008" lon="5.50602">
        <ele>464</ele>
        <time>2015-10-11T09:22:11Z</time>
      </trkpt>
      <trkpt lat="50.00077" lon="5.50611">
        <ele>463</ele>
        <time>2015-10-11T09:22:17Z</time>
      </trkpt>
      <trkpt lat="50.00072" lon="5.5062">
        <ele>463</ele>
        <time>2015-10-11T09:22:23Z</time>
      </trkpt>
      <trkpt lat="50.00069" lon="5.50626">
        <ele>463</ele>
        <time>2015-10-11T09:22:28Z</time>
      </trkpt>
      <trkpt lat="50.00066" lon="5.50634">
        <ele>463</ele>
        <time>2015-10-11T09:22:34Z</time>
      </trkpt>
      <trkpt lat="50.00064" lon="5.5064">
        <ele>462</ele>
        <time>2015-10-11T09:22:39Z</time>
      </trkpt>
      <trkpt lat="50.00063" lon="5.50647">
        <ele>462</ele>
        <time>2015-10-11T09:22:45Z</time>
      </trkpt>
      <trkpt lat="50.00062" lon="5.50654">
        <ele>462</ele>
        <time>2015-10-11T09:22:50Z</time>
      </trkpt>
      <trkpt lat="50.0006" lon="5.5066">
        <ele>461</ele>
        <time>2015-10-11T09:22:56Z</time>
      </trkpt>
      <trkpt lat="50.00058" lon="5.50669">
        <ele>461</ele>
        <time>2015-10-11T09:23:02Z</time>
      </trkpt>
      <trkpt lat="50.00056" lon="5.50677">
        <ele>461</ele>
        <time>2015-10-11T09:23:07Z</time>
      </trkpt>
      <trkpt lat="50.00053" lon="5.50683">
        <ele>461</ele>
        <time>2015-10-11T09:23:13Z</time>
      </trkpt>
      <trkpt lat="50.00051" lon="5.5069">
        <ele>461</ele>
        <time>2015-10-11T09:23:19Z</time>
      </trkpt>
      <trkpt lat="50.0005" lon="5.50697">
        <ele>461</ele>
        <time>2015-10-11T09:23:24Z</time>
      </trkpt>
      <trkpt lat="50.00049" lon="5.50705">
        <ele>461</ele>
        <time>2015-10-11T09:23:30Z</time>
      </trkpt>
      <trkpt lat="50.00047" lon="5.50712">
        <ele>460</ele>
        <time>2015-10-11T09:23:36Z</time>
      </trkpt>
      <trkpt lat="50.00047" lon="5.50713">
        <ele>460</ele>
        <time>2015-10-11T09:23:43Z</time>
      </trkpt>
      <trkpt lat="50.00046" lon="5.50712">
        <ele>460</ele>
        <time>2015-10-11T09:23:48Z</time>
      </trkpt>
      <trkpt lat="50.00045" lon="5.50713">
        <ele>460</ele>
        <time>2015-10-11T09:23:54Z</time>
      </trkpt>
      <trkpt lat="50.0005" lon="5.50713">
        <ele>460</ele>
        <time>2015-10-11T09:23:59Z</time>
      </trkpt>
      <trkpt lat="50.00053" lon="5.50717">
        <ele>459</ele>
        <time>2015-10-11T09:24:04Z</time>
      </trkpt>
      <trkpt lat="50.00051" lon="5.5072">
        <ele>460</ele>
        <time>2015-10-11T09:24:10Z</time>
      </trkpt>
      <trkpt lat="50.00048" lon="5.50723">
        <ele>460</ele>
        <time>2015-10-11T09:24:16Z</time>
      </trkpt>
      <trkpt lat="50.00045" lon="5.50725">
        <ele>460</ele>
        <time>2015-10-11T09:24:22Z</time>
      </trkpt>
      <trkpt lat="50.00044" lon="5.50728">
        <ele>460</ele>
        <time>2015-10-11T09:24:27Z</time>
      </trkpt>
      <trkpt lat="50.00042" lon="5.50726">
        <ele>460</ele>
        <time>2015-10-11T09:24:33Z</time>
      </trkpt>
      <trkpt lat="50.00041" lon="5.50722">
        <ele>460</ele>
        <time>2015-10-11T09:24:39Z</time>
      </trkpt>
      <trkpt lat="50.00039" lon="5.50721">
        <ele>460</ele>
        <time>2015-10-11T09:24:45Z</time>
      </trkpt>
      <trkpt lat="50.00038" lon="5.50727">
        <ele>460</ele>
        <time>2015-10-11T09:24:51Z</time>
      </trkpt>
      <trkpt lat="50.00037" lon="5.50729">
        <ele>460</ele>
        <time>2015-10-11T09:24:56Z</time>
      </trkpt>
      <trkpt lat="50.00037" lon="5.50733">
        <ele>460</ele>
        <time>2015-10-11T09:25:02Z</time>
      </trkpt>
      <trkpt lat="50.00037" lon="5.50736">
        <ele>460</ele>
        <time>2015-10-11T09:25:07Z</time>
      </trkpt>
      <trkpt lat="50.00037" lon="5.50738">
        <ele>460</ele>
        <time>2015-10-11T09:25:13Z</time>
      </trkpt>
      <trkpt lat="50.00039" lon="5.5074">
        <ele>460</ele>
        <time>2015-10-11T09:25:19Z</time>
      </trkpt>
      <trkpt lat="50.0004" lon="5.5074">
        <ele>460</ele>
        <time>2015-10-11T09:25:24Z</time>
      </trkpt>
      <trkpt lat="50.00043" lon="5.50741">
        <ele>460</ele>
        <time>2015-10-11T09:25:30Z</time>
      </trkpt>
      <trkpt lat="50.00044" lon="5.50741">
        <ele>461</ele>
        <time>2015-10-11T09:25:35Z</time>
      </trkpt>
      <trkpt lat="50.00045" lon="5.50739">
        <ele>461</ele>
        <time>2015-10-11T09:25:41Z</time>
      </trkpt>
      <trkpt lat="50.00045" lon="5.50743">
        <ele>460</ele>
        <time>2015-10-11T09:25:47Z</time>
      </trkpt>
      <trkpt lat="50.00047" lon="5.50744">
        <ele>460</ele>
        <time>2015-10-11T09:25:53Z</time>
      </trkpt>
      <trkpt lat="50.00048" lon="5.50745">
        <ele>460</ele>
        <time>2015-10-11T09:25:59Z</time>
      </trkpt>
      <trkpt lat="50.0005" lon="5.50746">
        <ele>460</ele>
        <time>2015-10-11T09:26:04Z</time>
      </trkpt>
      <trkpt lat="50.00049" lon="5.50751">
        <ele>460</ele>
        <time>2015-10-11T09:26:10Z</time>
      </trkpt>
      <trkpt lat="50.00049" lon="5.50755">
        <ele>459</ele>
        <time>2015-10-11T09:26:15Z</time>
      </trkpt>
      <trkpt lat="50.00048" lon="5.5076">
        <ele>460</ele>
        <time>2015-10-11T09:26:20Z</time>
      </trkpt>
      <trkpt lat="50.00047" lon="5.50766">
        <ele>459</ele>
        <time>2015-10-11T09:26:26Z</time>
      </trkpt>
      <trkpt lat="50.00046" lon="5.50772">
        <ele>459</ele>
        <time>2015-10-11T09:26:32Z</time>
      </trkpt>
      <trkpt lat="50.00045" lon="5.50777">
        <ele>459</ele>
        <time>2015-10-11T09:26:37Z</time>
      </trkpt>
      <trkpt lat="50.00046" lon="5.50779">
        <ele>458</ele>
        <time>2015-10-11T09:26:42Z</time>
      </trkpt>
      <trkpt lat="50.00047" lon="5.50779">
        <ele>459</ele>
        <time>2015-10-11T09:26:48Z</time>
      </trkpt>
      <trkpt lat="50.00048" lon="5.50779">
        <ele>459</ele>
        <time>2015-10-11T09:26:53Z</time>
      </trkpt>
      <trkpt lat="50.0005" lon="5.50776">
        <ele>459</ele>
        <time>2015-10-11T09:26:59Z</time>
      </trkpt>
      <trkpt lat="50.0005" lon="5.50773">
        <ele>459</ele>
        <time>2015-10-11T09:27:04Z</time>
      </trkpt>
      <trkpt lat="50.00049" lon="5.5077">
        <ele>459</ele>
        <time>2015-10-11T09:27:09Z</time>
      </trkpt>
      <trkpt lat="50.00049" lon="5.50764">
        <ele>459</ele>
        <time>2015-10-11T09:27:14Z</time>
      </trkpt>
      <trkpt lat="50.00049" lon="5.50759">
        <ele>459</ele>
        <time>2015-10-11T09:27:19Z</time>
      </trkpt>
      <trkpt lat="50.00049" lon="5.50757">
        <ele>459</ele>
        <time>2015-10-11T09:27:25Z</time>
      </trkpt>
      <trkpt lat="50.00048" lon="5.50758">
        <ele>459</ele>
        <time>2015-10-11T09:27:31Z</time>
      </trkpt>
      <trkpt lat="50.0005" lon="5.50756">
        <ele>460</ele>
        <time>2015-10-11T09:27:37Z</time>
      </trkpt>
      <trkpt lat="50.0005" lon="5.50754">
        <ele>460</ele>
        <time>2015-10-11T09:27:43Z</time>
      </trkpt>
      <trkpt lat="50.0005" lon="5.50753">
        <ele>460</ele>
        <time>2015-10-11T09:27:48Z</time>
      </trkpt>
      <trkpt lat="50.00051" lon="5.50751">
        <ele>460</ele>
        <time>2015-10-11T09:27:54Z</time>
      </trkpt>
      <trkpt lat="50.00051" lon="5.50754">
        <ele>460</ele>
        <time>2015-10-11T09:27:59Z</time>
      </trkpt>
      <trkpt lat="50.0005" lon="5.50757">
        <ele>460</ele>
        <time>2015-10-11T09:28:04Z</time>
      </trkpt>
      <trkpt lat="50.0005" lon="5.50759">
        <ele>459</ele>
        <time>2015-10-11T09:28:10Z</time>
      </trkpt>
      <trkpt lat="50.0005" lon="5.50761">
        <ele>459</ele>
        <time>2015-10-11T09:28:15Z</time>
      </trkpt>
      <trkpt lat="50.0005" lon="5.50766">
        <ele>459</ele>
        <time>2015-10-11T09:28:21Z</time>
      </trkpt>
      <trkpt lat="50.0005" lon="5.50769">
        <ele>459</ele>
        <time>2015-10-11T09:28:27Z</time>
      </trkpt>
      <trkpt lat="50.00049" lon="5.50768">
        <ele>459</ele>
        <time>2015-10-11T09:28:33Z</time>
      </trkpt>
      <trkpt lat="50.00048" lon="5.5077">
        <ele>459</ele>
        <time>2015-10-11T09:28:39Z</time>
      </trkpt>
      <trkpt lat="50.00049" lon="5.5077">
        <ele>459</ele>
        <time>2015-10-11T09:28:45Z</time>
      </trkpt>
      <trkpt lat="50.0005" lon="5.50772">
        <ele>459</ele>
        <time>2015-10-11T09:28:50Z</time>
      </trkpt>
      <trkpt lat="50.00049" lon="5.50769">
        <ele>458</ele>
        <time>2015-10-11T09:28:55Z</time>
      </trkpt>
      <trkpt lat="50.00048" lon="5.50769">
        <ele>459</ele>
        <time>2015-10-11T09:29:01Z</time>
      </trkpt>
      <trkpt lat="50.00047" lon="5.50771">
        <ele>459</ele>
        <time>2015-10-11T09:29:06Z</time>
      </trkpt>
      <trkpt lat="50.00048" lon="5.50773">
        <ele>459</ele>
        <time>2015-10-11T09:29:11Z</time>
      </trkpt>
      <trkpt lat="50.00047" lon="5.50777">
        <ele>458</ele>
        <time>2015-10-11T09:29:17Z</time>
      </trkpt>
      <trkpt lat="50.00046" lon="5.50779">
        <ele>458</ele>
        <time>2015-10-11T09:29:23Z</time>
      </trkpt>
      <trkpt lat="50.00045" lon="5.50781">
        <ele>458</ele>
        <time>2015-10-11T09:29:28Z</time>
      </trkpt>
      <trkpt lat="50.00042" lon="5.50781">
        <ele>458</ele>
        <time>2015-10-11T09:29:34Z</time>
      </trkpt>
      <trkpt lat="50.00039" lon="5.50781">
        <ele>458</ele>
        <time>2015-10-11T09:29:39Z</time>
      </trkpt>
      <trkpt lat="50.00038" lon="5.50781">
        <ele>459</ele>
        <time>2015-10-11T09:29:44Z</time>
      </trkpt>
      <trkpt lat="50.00037" lon="5.50783">
        <ele>459</ele>
        <time>2015-10-11T09:29:50Z</time>
      </trkpt>
      <trkpt lat="50.00037" lon="5.50785">
        <ele>459</ele>
        <time>2015-10-11T09:29:55Z</time>
      </trkpt>
      <trkpt lat="50.00037" lon="5.50786">
        <ele>459</ele>
        <time>2015-10-11T09:30:01Z</time>
      </trkpt>
      <trkpt lat="50.00039" lon="5.50785">
        <ele>458</ele>
        <time>2015-10-11T09:30:06Z</time>
      </trkpt>
      <trkpt lat="50.00041" lon="5.50784">
        <ele>458</ele>
        <time>2015-10-11T09:30:11Z</time>
      </trkpt>
      <trkpt lat="50.00042" lon="5.5078">
        <ele>459</ele>
        <time>2015-10-11T09:30:18Z</time>
      </trkpt>
      <trkpt lat="50.00041" lon="5.5078">
        <ele>458</ele>
        <time>2015-10-11T09:30:23Z</time>
      </trkpt>
      <trkpt lat="50.0004" lon="5.5078">
        <ele>458</ele>
        <time>2015-10-11T09:30:29Z</time>
      </trkpt>
      <trkpt lat="50.00038" lon="5.50779">
        <ele>458</ele>
        <time>2015-10-11T09:30:34Z</time>
      </trkpt>
      <trkpt lat="50.00038" lon="5.50778">
        <ele>458</ele>
        <time>2015-10-11T09:30:39Z</time>
      </trkpt>
      <trkpt lat="50.00039" lon="5.50774">
        <ele>458</ele>
        <time>2015-10-11T09:30:44Z</time>
      </trkpt>
      <trkpt lat="50.00039" lon="5.50771">
        <ele>459</ele>
        <time>2015-10-11T09:30:49Z</time>
      </trkpt>
      <trkpt lat="50.00039" lon="5.50769">
        <ele>459</ele>
        <time>2015-10-11T09:30:54Z</time>
      </trkpt>
      <trkpt lat="50.00037" lon="5.50768">
        <ele>459</ele>
        <time>2015-10-11T09:31:00Z</time>
      </trkpt>
      <trkpt lat="50.00037" lon="5.50767">
        <ele>459</ele>
        <time>2015-10-11T09:31:06Z</time>
      </trkpt>
      <trkpt lat="50.00038" lon="5.50768">
        <ele>459</ele>
        <time>2015-10-11T09:31:11Z</time>
      </trkpt>
      <trkpt lat="50.00039" lon="5.50769">
        <ele>459</ele>
        <time>2015-10-11T09:31:16Z</time>
      </trkpt>
      <trkpt lat="50.0004" lon="5.50768">
        <ele>459</ele>
        <time>2015-10-11T09:31:21Z</time>
      </trkpt>
      <trkpt lat="50.00042" lon="5.5077">
        <ele>459</ele>
        <time>2015-10-11T09:31:27Z</time>
      </trkpt>
      <trkpt lat="50.00042" lon="5.50771">
        <ele>459</ele>
        <time>2015-10-11T09:31:32Z</time>
      </trkpt>
      <trkpt lat="50.00044" lon="5.50775">
        <ele>459</ele>
        <time>2015-10-11T09:31:38Z</time>
      </trkpt>
      <trkpt lat="50.00045" lon="5.50778">
        <ele>458</ele>
        <time>2015-10-11T09:31:44Z</time>
      </trkpt>
      <trkpt lat="50.00046" lon="5.50782">
        <ele>459</ele>
        <time>2015-10-11T09:31:49Z</time>
      </trkpt>
      <trkpt lat="50.00047" lon="5.50783">
        <ele>458</ele>
        <time>2015-10-11T09:31:54Z</time>
      </trkpt>
      <trkpt lat="50.00047" lon="5.50785">
        <ele>458</ele>
        <time>2015-10-11T09:31:59Z</time>
      </trkpt>
      <trkpt lat="50.00045" lon="5.50787">
        <ele>458</ele>
        <time>2015-10-11T09:32:05Z</time>
      </trkpt>
      <trkpt lat="50.00043" lon="5.50787">
        <ele>458</ele>
        <time>2015-10-11T09:32:10Z</time>
      </trkpt>
      <trkpt lat="50.00042" lon="5.50789">
        <ele>458</ele>
        <time>2015-10-11T09:32:16Z</time>
      </trkpt>
      <trkpt lat="50.00042" lon="5.5079">
        <ele>459</ele>
        <time>2015-10-11T09:32:21Z</time>
      </trkpt>
      <trkpt lat="50.00042" lon="5.50792">
        <ele>459</ele>
        <time>2015-10-11T09:32:26Z</time>
      </trkpt>
      <trkpt lat="50.0004" lon="5.50794">
        <ele>459</ele>
        <time>2015-10-11T09:32:32Z</time>
      </trkpt>
      <trkpt lat="50.00039" lon="5.50792">
        <ele>458</ele>
        <time>2015-10-11T09:32:37Z</time>
      </trkpt>
      <trkpt lat="50.00038" lon="5.50787">
        <ele>458</ele>
        <time>2015-10-11T09:32:43Z</time>
      </trkpt>
      <trkpt lat="50.00036" lon="5.50783">
        <ele>458</ele>
        <time>2015-10-11T09:32:48Z</time>
      </trkpt>
      <trkpt lat="50.00033" lon="5.50782">
        <ele>459</ele>
        <time>2015-10-11T09:32:54Z</time>
      </trkpt>
      <trkpt lat="50.00032" lon="5.50782">
        <ele>458</ele>
        <time>2015-10-11T09:33:00Z</time>
      </trkpt>
      <trkpt lat="50.00032" lon="5.50785">
        <ele>459</ele>
        <time>2015-10-11T09:33:06Z</time>
      </trkpt>
      <trkpt lat="50.00033" lon="5.50787">
        <ele>459</ele>
        <time>2015-10-11T09:33:11Z</time>
      </trkpt>
      <trkpt lat="50.00035" lon="5.50789">
        <ele>458</ele>
        <time>2015-10-11T09:33:17Z</time>
      </trkpt>
      <trkpt lat="50.00035" lon="5.50792">
        <ele>458</ele>
        <time>2015-10-11T09:33:22Z</time>
      </trkpt>
      <trkpt lat="50.00037" lon="5.50793">
        <ele>458</ele>
        <time>2015-10-11T09:33:27Z</time>
      </trkpt>
      <trkpt lat="50.00039" lon="5.50792">
        <ele>458</ele>
        <time>2015-10-11T09:33:32Z</time>
      </trkpt>
      <trkpt lat="50.00038" lon="5.50791">
        <ele>458</ele>
        <time>2015-10-11T09:33:37Z</time>
      </trkpt>
      <trkpt lat="50.00037" lon="5.50788">
        <ele>458</ele>
        <time>2015-10-11T09:33:42Z</time>
      </trkpt>
      <trkpt lat="50.00035" lon="5.50785">
        <ele>458</ele>
        <time>2015-10-11T09:33:47Z</time>
      </trkpt>
      <trkpt lat="50.00033" lon="5.50782">
        <ele>458</ele>
        <time>2015-10-11T09:33:53Z</time>
      </trkpt>
      <trkpt lat="50.00032" lon="5.50784">
        <ele>459</ele>
        <time>2015-10-11T09:33:58Z</time>
      </trkpt>
      <trkpt lat="50.00032" lon="5.50785">
        <ele>459</ele>
        <time>2015-10-11T09:34:04Z</time>
      </trkpt>
      <trkpt lat="50.00032" lon="5.50785">
        <ele>459</ele>
        <time>2015-10-11T09:34:09Z</time>
      </trkpt>
      <trkpt lat="50.00032" lon="5.50785">
        <ele>458</ele>
        <time>2015-10-11T09:34:15Z</time>
      </trkpt>
      <trkpt lat="50.00032" lon="5.50786">
        <ele>458</ele>
        <time>2015-10-11T09:34:21Z</time>
      </trkpt>
      <trkpt lat="50.00031" lon="5.50786">
        <ele>458</ele>
        <time>2015-10-11T09:34:27Z</time>
      </trkpt>
      <trkpt lat="50.0003" lon="5.50783">
        <ele>458</ele>
        <time>2015-10-11T09:34:32Z</time>
      </trkpt>
      <trkpt lat="50.0003" lon="5.50781">
        <ele>458</ele>
        <time>2015-10-11T09:34:38Z</time>
      </trkpt>
      <trkpt lat="50.0003" lon="5.50781">
        <ele>458</ele>
        <time>2015-10-11T09:34:44Z</time>
      </trkpt>
      <trkpt lat="50.00029" lon="5.5078">
        <ele>459</ele>
        <time>2015-10-11T09:34:49Z</time>
      </trkpt>
      <trkpt lat="50.00031" lon="5.50779">
        <ele>459</ele>
        <time>2015-10-11T09:34:55Z</time>
      </trkpt>
      <trkpt lat="50.00032" lon="5.50781">
        <ele>458</ele>
        <time>2015-10-11T09:35:01Z</time>
      </trkpt>
      <trkpt lat="50.00032" lon="5.50781">
        <ele>457</ele>
        <time>2015-10-11T09:35:07Z</time>
      </trkpt>
      <trkpt lat="50.00033" lon="5.50783">
        <ele>458</ele>
        <time>2015-10-11T09:35:13Z</time>
      </trkpt>
      <trkpt lat="50.00034" lon="5.50783">
        <ele>458</ele>
        <time>2015-10-11T09:35:18Z</time>
      </trkpt>
      <trkpt lat="50.00037" lon="5.50785">
        <ele>458</ele>
        <time>2015-10-11T09:35:23Z</time>
      </trkpt>
      <trkpt lat="50.00038" lon="5.50784">
        <ele>458</ele>
        <time>2015-10-11T09:35:29Z</time>
      </trkpt>
      <trkpt lat="50.00038" lon="5.50784">
        <ele>458</ele>
        <time>2015-10-11T09:35:34Z</time>
      </trkpt>
      <trkpt lat="50.00039" lon="5.50786">
        <ele>458</ele>
        <time>2015-10-11T09:35:39Z</time>
      </trkpt>
      <trkpt lat="50.00039" lon="5.50787">
        <ele>458</ele>
        <time>2015-10-11T09:35:46Z</time>
      </trkpt>
      <trkpt lat="50.0004" lon="5.50789">
        <ele>457</ele>
        <time>2015-10-11T09:35:51Z</time>
      </trkpt>
      <trkpt lat="50.0004" lon="5.50793">
        <ele>457</ele>
        <time>2015-10-11T09:35:57Z</time>
      </trkpt>
      <trkpt lat="50.00041" lon="5.50795">
        <ele>457</ele>
        <time>2015-10-11T09:36:02Z</time>
      </trkpt>
      <trkpt lat="50.00041" lon="5.50798">
        <ele>457</ele>
        <time>2015-10-11T09:36:08Z</time>
      </trkpt>
      <trkpt lat="50.00042" lon="5.508">
        <ele>457</ele>
        <time>2015-10-11T09:36:13Z</time>
      </trkpt>
      <trkpt lat="50.00042" lon="5.50801">
        <ele>457</ele>
        <time>2015-10-11T09:36:18Z</time>
      </trkpt>
      <trkpt lat="50.00041" lon="5.50801">
        <ele>457</ele>
        <time>2015-10-11T09:36:24Z</time>
      </trkpt>
      <trkpt lat="50.0004" lon="5.50802">
        <ele>457</ele>
        <time>2015-10-11T09:36:29Z</time>
      </trkpt>
      <trkpt lat="50.00039" lon="5.50805">
        <ele>457</ele>
        <time>2015-10-11T09:36:34Z</time>
      </trkpt>
      <trkpt lat="50.00037" lon="5.50807">
        <ele>458</ele>
        <time>2015-10-11T09:36:39Z</time>
      </trkpt>
      <trkpt lat="50.00036" lon="5.50808">
        <ele>458</ele>
        <time>2015-10-11T09:36:44Z</time>
      </trkpt>
      <trkpt lat="50.00035" lon="5.50808">
        <ele>458</ele>
        <time>2015-10-11T09:36:50Z</time>
      </trkpt>
      <trkpt lat="50.00037" lon="5.50808">
        <ele>457</ele>
        <time>2015-10-11T09:36:56Z</time>
      </trkpt>
      <trkpt lat="50.00038" lon="5.50805">
        <ele>458</ele>
        <time>2015-10-11T09:37:02Z</time>
      </trkpt>
      <trkpt lat="50.00037" lon="5.50802">
        <ele>458</ele>
        <time>2015-10-11T09:37:08Z</time>
      </trkpt>
      <trkpt lat="50.00036" lon="5.50802">
        <ele>458</ele>
        <time>2015-10-11T09:37:14Z</time>
      </trkpt>
      <trkpt lat="50.00034" lon="5.50801">
        <ele>457</ele>
        <time>2015-10-11T09:37:20Z</time>
      </trkpt>
      <trkpt lat="50.00033" lon="5.50801">
        <ele>457</ele>
        <time>2015-10-11T09:37:26Z</time>
      </trkpt>
      <trkpt lat="50.00032" lon="5.50801">
        <ele>457</ele>
        <time>2015-10-11T09:37:32Z</time>
      </trkpt>
      <trkpt lat="50.00033" lon="5.50802">
        <ele>457</ele>
        <time>2015-10-11T09:37:37Z</time>
      </trkpt>
      <trkpt lat="50.00033" lon="5.50804">
        <ele>457</ele>
        <time>2015-10-11T09:37:44Z</time>
      </trkpt>
      <trkpt lat="50.00034" lon="5.50803">
        <ele>457</ele>
        <time>2015-10-11T09:37:49Z</time>
      </trkpt>
      <trkpt lat="50.00036" lon="5.50802">
        <ele>456</ele>
        <time>2015-10-11T09:37:55Z</time>
      </trkpt>
      <trkpt lat="50.00036" lon="5.50803">
        <ele>457</ele>
        <time>2015-10-11T09:38:01Z</time>
      </trkpt>
      <trkpt lat="50.00037" lon="5.50805">
        <ele>457</ele>
        <time>2015-10-11T09:38:06Z</time>
      </trkpt>
      <trkpt lat="50.0004" lon="5.50808">
        <ele>457</ele>
        <time>2015-10-11T09:38:12Z</time>
      </trkpt>
      <trkpt lat="50.00039" lon="5.5081">
        <ele>456</ele>
        <time>2015-10-11T09:38:17Z</time>
      </trkpt>
      <trkpt lat="50.00039" lon="5.50812">
        <ele>456</ele>
        <time>2015-10-11T09:38:23Z</time>
      </trkpt>
      <trkpt lat="50.00039" lon="5.50813">
        <ele>456</ele>
        <time>2015-10-11T09:38:28Z</time>
      </trkpt>
      <trkpt lat="50.00037" lon="5.50815">
        <ele>456</ele>
        <time>2015-10-11T09:38:33Z</time>
      </trkpt>
      <trkpt lat="50.00036" lon="5.50818">
        <ele>456</ele>
        <time>2015-10-11T09:38:39Z</time>
      </trkpt>
      <trkpt lat="50.00035" lon="5.50821">
        <ele>456</ele>
        <time>2015-10-11T09:38:45Z</time>
      </trkpt>
      <trkpt lat="50.00034" lon="5.50823">
        <ele>456</ele>
        <time>2015-10-11T09:38:50Z</time>
      </trkpt>
      <trkpt lat="50.00033" lon="5.50828">
        <ele>456</ele>
        <time>2015-10-11T09:38:56Z</time>
      </trkpt>
      <trkpt lat="50.00032" lon="5.50833">
        <ele>456</ele>
        <time>2015-10-11T09:39:02Z</time>
      </trkpt>
      <trkpt lat="50.00031" lon="5.50837">
        <ele>456</ele>
        <time>2015-10-11T09:39:07Z</time>
      </trkpt>
      <trkpt lat="50.00028" lon="5.50839">
        <ele>455</ele>
        <time>2015-10-11T09:39:13Z</time>
      </trkpt>
      <trkpt lat="50.00026" lon="5.50842">
        <ele>455</ele>
        <time>2015-10-11T09:39:19Z</time>
      </trkpt>
      <trkpt lat="50.00025" lon="5.50845">
        <ele>455</ele>
        <time>2015-10-11T09:39:24Z</time>
      </trkpt>
      <trkpt lat="50.00024" lon="5.50849">
        <ele>454</ele>
        <time>2015-10-11T09:39:30Z</time>
      </trkpt>
      <trkpt lat="50.00024" lon="5.50854">
        <ele>455</ele>
        <time>2015-10-11T09:39:35Z</time>
      </trkpt>
      <trkpt lat="50.00023" lon="5.50859">
        <ele>454</ele>
        <time>2015-10-11T09:39:40Z</time>
      </trkpt>
      <trkpt lat="50.00021" lon="5.50864">
        <ele>454</ele>
        <time>2015-10-11T09:39:46Z</time>
      </trkpt>
      <trkpt lat="50.00021" lon="5.5087">
        <ele>454</ele>
        <time>2015-10-11T09:39:52Z</time>
      </trkpt>
      <trkpt lat="50.0002" lon="5.50874">
        <ele>454</ele>
        <time>2015-10-11T09:39:58Z</time>
      </trkpt>
      <trkpt lat="50.00019" lon="5.5088">
        <ele>454</ele>
        <time>2015-10-11T09:40:03Z</time>
      </trkpt>
      <trkpt lat="50.00016" lon="5.50884">
        <ele>454</ele>
        <time>2015-10-11T09:40:08Z</time>
      </trkpt>
      <trkpt lat="50.00013" lon="5.50885">
        <ele>454</ele>
        <time>2015-10-11T09:40:14Z</time>
      </trkpt>
      <trkpt lat="50.00013" lon="5.50888">
        <ele>454</ele>
        <time>2015-10-11T09:40:19Z</time>
      </trkpt>
      <trkpt lat="50.00012" lon="5.5089">
        <ele>454</ele>
        <time>2015-10-11T09:40:25Z</time>
      </trkpt>
      <trkpt lat="50.00012" lon="5.50893">
        <ele>454</ele>
        <time>2015-10-11T09:40:30Z</time>
      </trkpt>
      <trkpt lat="50.00011" lon="5.50896">
        <ele>453</ele>
        <time>2015-10-11T09:40:35Z</time>
      </trkpt>
      <trkpt lat="50.00008" lon="5.50897">
        <ele>453</ele>
        <time>2015-10-11T09:40:41Z</time>
      </trkpt>
      <trkpt lat="50.00006" lon="5.50898">
        <ele>453</ele>
        <time>2015-10-11T09:40:46Z</time>
      </trkpt>
      <trkpt lat="50.00004" lon="5.50899">
        <ele>453</ele>
        <time>2015-10-11T09:40:51Z</time>
      </trkpt>
      <trkpt lat="50.00004" lon="5.50903">
        <ele>453</ele>
        <time>2015-10-11T09:40:57Z</time>
      </trkpt>
      <trkpt lat="50.00005" lon="5.50906">
        <ele>453</ele>
        <time>2015-10-11T09:41:02Z</time>
      </trkpt>
      <trkpt lat="50.00004" lon="5.5091">
        <ele>453</ele>
        <time>2015-10-11T09:41:07Z</time>
      </trkpt>
      <trkpt lat="50.00004" lon="5.50914">
        <ele>452</ele>
        <time>2015-10-11T09:41:12Z</time>
      </trkpt>
      <trkpt lat="50.00005" lon="5.50918">
        <ele>452</ele>
        <time>2015-10-11T09:41:18Z</time>
      </trkpt>
      <trkpt lat="50.00004" lon="5.50921">
        <ele>452</ele>
        <time>2015-10-11T09:41:23Z</time>
      </trkpt>
      <trkpt lat="50.00002" lon="5.50922">
        <ele>452</ele>
        <time>2015-10-11T09:41:29Z</time>
      </trkpt>
      <trkpt lat="50.00001" lon="5.50924">
        <ele>451</ele>
        <time>2015-10-11T09:41:34Z</time>
      </trkpt>
      <trkpt lat="50.00002" lon="5.50928">
        <ele>451</ele>
        <time>2015-10-11T09:41:40Z</time>
      </trkpt>
      <trkpt lat="50.00003" lon="5.50934">
        <ele>452</ele>
        <time>2015-10-11T09:41:45Z</time>
      </trkpt>
      <trkpt lat="50.00003" lon="5.50938">
        <ele>451</ele>
        <time>2015-10-11T09:41:51Z</time>
      </trkpt>
      <trkpt lat="50.00002" lon="5.50944">
        <ele>451</ele>
        <time>2015-10-11T09:41:57Z</time>
      </trkpt>
      <trkpt lat="50.00001" lon="5.50947">
        <ele>451</ele>
        <time>2015-10-11T09:42:02Z</time>
      </trkpt>
      <trkpt lat="50" lon="5.5095">
        <ele>451</ele>
        <time>2015-10-11T09:42:07Z</time>
      </trkpt>
      <trkpt lat="50" lon="5.50954">
        <ele>451</ele>
        <time>2015-10-11T09:42:13Z</time>
      </trkpt>
      <trkpt lat="50" lon="5.50956">
        <ele>451</ele>
        <time>2015-10-11T09:42:19Z</time>
      </trkpt>
      <trkpt lat="49.99999" lon="5.50961">
        <ele>450</ele>
        <time>2015-10-11T09:42:25Z</time>
      </trkpt>
      <trkpt lat="49.99997" lon="5.50964">
        <ele>450</ele>
        <time>2015-10-11T09:42:30Z</time>
      </trkpt>
      <trkpt lat="49.99994" lon="5.50966">
        <ele>450</ele>
        <time>2015-10-11T09:42:35Z</time>
      </trkpt>
      <trkpt lat="49.99991" lon="5.50968">
        <ele>450</ele>
        <time>2015-10-11T09:42:41Z</time>
      </trkpt>
      <trkpt lat="49.99988" lon="5.50972">
        <ele>450</ele>
        <time>2015-10-11T09:42:47Z</time>
      </trkpt>
      <trkpt lat="49.99987" lon="5.50975">
        <ele>450</ele>
        <time>2015-10-11T09:42:52Z</time>
      </trkpt>
      <trkpt lat="49.99984" lon="5.50978">
        <ele>450</ele>
        <time>2015-10-11T09:42:58Z</time>
      </trkpt>
      <trkpt lat="49.99982" lon="5.50979">
        <ele>450</ele>
        <time>2015-10-11T09:43:04Z</time>
      </trkpt>
      <trkpt lat="49.9998" lon="5.50978">
        <ele>450</ele>
        <time>2015-10-11T09:43:10Z</time>
      </trkpt>
      <trkpt lat="49.99979" lon="5.50978">
        <ele>450</ele>
        <time>2015-10-11T09:43:15Z</time>
      </trkpt>
      <trkpt lat="49.99978" lon="5.50979">
        <ele>450</ele>
        <time>2015-10-11T09:43:20Z</time>
      </trkpt>
      <trkpt lat="49.99978" lon="5.50981">
        <ele>450</ele>
        <time>2015-10-11T09:43:25Z</time>
      </trkpt>
      <trkpt lat="49.99978" lon="5.50985">
        <ele>450</ele>
        <time>2015-10-11T09:43:31Z</time>
      </trkpt>
      <trkpt lat="49.99979" lon="5.50988">
        <ele>450</ele>
        <time>2015-10-11T09:43:37Z</time>
      </trkpt>
      <trkpt lat="49.9998" lon="5.50993">
        <ele>450</ele>
        <time>2015-10-11T09:43:43Z</time>
      </trkpt>
      <trkpt lat="49.9998" lon="5.50997">
        <ele>450</ele>
        <time>2015-10-11T09:43:49Z</time>
      </trkpt>
      <trkpt lat="49.9998" lon="5.51001">
        <ele>450</ele>
        <time>2015-10-11T09:43:55Z</time>
      </trkpt>
      <trkpt lat="49.99979" lon="5.51005">
        <ele>450</ele>
        <time>2015-10-11T09:44:01Z</time>
      </trkpt>
      <trkpt lat="49.9998" lon="5.51009">
        <ele>450</ele>
        <time>2015-10-11T09:44:06Z</time>
      </trkpt>
      <trkpt lat="49.9998" lon="5.51013">
        <ele>450</ele>
        <time>2015-10-11T09:44:12Z</time>
      </trkpt>
      <trkpt lat="49.99979" lon="5.51014">
        <ele>449</ele>
        <time>2015-10-11T09:44:18Z</time>
      </trkpt>
      <trkpt lat="49.99978" lon="5.51017">
        <ele>450</ele>
        <time>2015-10-11T09:44:23Z</time>
      </trkpt>
      <trkpt lat="49.99975" lon="5.51021">
        <ele>449</ele>
        <time>2015-10-11T09:44:29Z</time>
      </trkpt>
      <trkpt lat="49.99973" lon="5.51024">
        <ele>449</ele>
        <time>2015-10-11T09:44:34Z</time>
      </trkpt>
      <trkpt lat="49.99971" lon="5.51026">
        <ele>449</ele>
        <time>2015-10-11T09:44:39Z</time>
      </trkpt>
      <trkpt lat="49.99968" lon="5.51026">
        <ele>449</ele>
        <time>2015-10-11T09:44:45Z</time>
      </trkpt>
      <trkpt lat="49.99967" lon="5.51029">
        <ele>449</ele>
        <time>2015-10-11T09:44:50Z</time>
      </trkpt>
      <trkpt lat="49.99967" lon="5.51031">
        <ele>449</ele>
        <time>2015-10-11T09:44:55Z</time>
      </trkpt>
      <trkpt lat="49.99968" lon="5.51034">
        <ele>448</ele>
        <time>2015-10-11T09:45:01Z</time>
      </trkpt>
      <trkpt lat="49.99968" lon="5.51037">
        <ele>449</ele>
        <time>2015-10-11T09:45:06Z</time>
      </trkpt>
      <trkpt lat="49.99968" lon="5.51039">
        <ele>449</ele>
        <time>2015-10-11T09:45:11Z</time>
      </trkpt>
      <trkpt lat="49.99967" lon="5.51042">
        <ele>448</ele>
        <time>2015-10-11T09:45:17Z</time>
      </trkpt>
      <trkpt lat="49.99968" lon="5.51045">
        <ele>448</ele>
        <time>2015-10-11T09:45:23Z</time>
      </trkpt>
      <trkpt lat="49.99968" lon="5.51048">
        <ele>448</ele>
        <time>2015-10-11T09:45:28Z</time>
      </trkpt>
      <trkpt lat="49.99969" lon="5.5105">
        <ele>448</ele>
        <time>2015-10-11T09:45:33Z</time>
      </trkpt>
      <trkpt lat="49.9997" lon="5.51053">
        <ele>448</ele>
        <time>2015-10-11T09:45:38Z</time>
      </trkpt>
      <trkpt lat="49.9997" lon="5.51057">
        <ele>448</ele>
        <time>2015-10-11T09:45:43Z</time>
      </trkpt>
      <trkpt lat="49.99969" lon="5.51062">
        <ele>447</ele>
        <time>2015-10-11T09:45:49Z</time>
      </trkpt>
      <trkpt lat="49.99967" lon="5.51067">
        <ele>447</ele>
        <time>2015-10-11T09:45:54Z</time>
      </trkpt>
      <trkpt lat="49.99963" lon="5.51069">
        <ele>447</ele>
        <time>2015-10-11T09:46:00Z</time>
      </trkpt>
      <trkpt lat="49.99959" lon="5.51069">
        <ele>447</ele>
        <time>2015-10-11T09:46:06Z</time>
      </trkpt>
      <trkpt lat="49.99957" lon="5.51069">
        <ele>447</ele>
        <time>2015-10-11T09:46:12Z</time>
      </trkpt>
      <trkpt lat="49.99956" lon="5.51072">
        <ele>447</ele>
        <time>2015-10-11T09:46:17Z</time>
      </trkpt>
      <trkpt lat="49.99956" lon="5.51074">
        <ele>447</ele>
        <time>2015-10-11T09:46:22Z</time>
      </trkpt>
      <trkpt lat="49.99955" lon="5.51077">
        <ele>447</ele>
        <time>2015-10-11T09:46:28Z</time>
      </trkpt>
      <trkpt lat="49.99954" lon="5.5108">
        <ele>447</ele>
        <time>2015-10-11T09:46:34Z</time>
      </trkpt>
      <trkpt lat="49.99953" lon="5.51084">
        <ele>446</ele>
        <time>2015-10-11T09:46:40Z</time>
      </trkpt>
      <trkpt lat="49.99953" lon="5.51087">
        <ele>446</ele>
        <time>2015-10-11T09:46:45Z</time>
      </trkpt>
      <trkpt lat="49.99954" lon="5.5109">
        <ele>446</ele>
        <time>2015-10-11T09:46:51Z</time>
      </trkpt>
      <trkpt lat="49.99953" lon="5.51093">
        <ele>446</ele>
        <time>2015-10-11T09:46:56Z</time>
      </trkpt>
      <trkpt lat="49.99953" lon="5.51096">
        <ele>446</ele>
        <time>2015-10-11T09:47:02Z</time>
      </trkpt>
      <trkpt lat="49.99952" lon="5.511">
        <ele>446</ele>
        <time>2015-10-11T09:47:08Z</time>
      </trkpt>
      <trkpt lat="49.99952" lon="5.51103">
        <ele>446</ele>
        <time>2015-10-11T09:47:13Z</time>
      </trkpt>
      <trkpt lat="49.99953" lon="5.51107">
        <ele>445</ele>
        <time>2015-10-11T09:47:18Z</time>
      </trkpt>
      <trkpt lat="49.99952" lon="5.51112">
        <ele>445</ele>
        <time>2015-10-11T09:47:24Z</time>
      </trkpt>
      <trkpt lat="49.99952" lon="5.51116">
        <ele>444</ele>
        <time>2015-10-11T09:47:29Z</time>
      </trkpt>
      <trkpt lat="49.99952" lon="5.51122">
        <ele>444</ele>
        <time>2015-10-11T09:47:35Z</time>
      </trkpt>
      <trkpt lat="49.99952" lon="5.51125">
        <ele>444</ele>
        <time>2015-10-11T09:47:40Z</time>
      </trkpt>
      <trkpt lat="49.99953" lon="5.51128">
        <ele>444</ele>
        <time>2015-10-11T09:47:45Z</time>
      </trkpt>
      <trkpt lat="49.99953" lon="5.51132">
        <ele>444</ele>
        <time>2015-10-11T09:47:51Z</time>
      </trkpt>
      <trkpt lat="49.99952" lon="5.51136">
        <ele>444</ele>
        <time>2015-10-11T09:47:56Z</time>
      </trkpt>
      <trkpt lat="49.9995" lon="5.51139">
        <ele>443</ele>
        <time>2015-10-11T09:48:01Z</time>
      </trkpt>
      <trkpt lat="49.99947" lon="5.51144">
        <ele>443</ele>
        <time>2015-10-11T09:48:07Z</time>
      </trkpt>
      <trkpt lat="49.99946" lon="5.51148">
        <ele>442</ele>
        <time>2015-10-11T09:48:12Z</time>
      </trkpt>
      <trkpt lat="49.99945" lon="5.51152">
        <ele>443</ele>
        <time>2015-10-11T09:48:18Z</time>
      </trkpt>
      <trkpt lat="49.99944" lon="5.51156">
        <ele>443</ele>
        <time>2015-10-11T09:48:24Z</time>
      </trkpt>
      <trkpt lat="49.99942" lon="5.5116">
        <ele>442</ele>
        <time>2015-10-11T09:48:30Z</time>
      </trkpt>
      <trkpt lat="49.99939" lon="5.51163">
        <ele>442</ele>
        <time>2015-10-11T09:48:35Z</time>
      </trkpt>
      <trkpt lat="49.99937" lon="5.51165">
        <ele>442</ele>
        <time>2015-10-11T09:48:40Z</time>
      </trkpt>
      <trkpt lat="49.99935" lon="5.51168">
        <ele>442</ele>
        <time>2015-10-11T09:48:45Z</time>
      </trkpt>
      <trkpt lat="49.99934" lon="5.51171">
        <ele>442</ele>
        <time>2015-10-11T09:48:51Z</time>
      </trkpt>
      <trkpt lat="49.99931" lon="5.51174">
        <ele>442</ele>
        <time>2015-10-11T09:48:56Z</time>
      </trkpt>
      <trkpt lat="49.99929" lon="5.51176">
        <ele>442</ele>
        <time>2015-10-11T09:49:02Z</time>
      </trkpt>
      <trkpt lat="49.99927" lon="5.51179">
        <ele>443</ele>
        <time>2015-10-11T09:49:08Z</time>
      </trkpt>
      <trkpt lat="49.99926" lon="5.51181">
        <ele>442</ele>
        <time>2015-10-11T09:49:14Z</time>
      </trkpt>
      <trkpt lat="49.99924" lon="5.51181">
        <ele>442</ele>
        <time>2015-10-11T09:49:20Z</time>
      </trkpt>
      <trkpt lat="49.99921" lon="5.5118">
        <ele>442</ele>
        <time>2015-10-11T09:49:25Z</time>
      </trkpt>
      <trkpt lat="49.99917" lon="5.51179">
        <ele>442</ele>
        <time>2015-10-11T09:49:30Z</time>
      </trkpt>
      <trkpt lat="49.99914" lon="5.51177">
        <ele>442</ele>
        <time>2015-10-11T09:49:36Z</time>
      </trkpt>
      <trkpt lat="49.99914" lon="5.51175">
        <ele>442</ele>
        <time>2015-10-11T09:49:41Z</time>
      </trkpt>
      <trkpt lat="49.99915" lon="5.51173">
        <ele>442</ele>
        <time>2015-10-11T09:49:47Z</time>
      </trkpt>
      <trkpt lat="49.99917" lon="5.51171">
        <ele>442</ele>
        <time>2015-10-11T09:49:52Z</time>
      </trkpt>
      <trkpt lat="49.99919" lon="5.51167">
        <ele>443</ele>
        <time>2015-10-11T09:49:58Z</time>
      </trkpt>
      <trkpt lat="49.99921" lon="5.51163">
        <ele>443</ele>
        <time>2015-10-11T09:50:03Z</time>
      </trkpt>
      <trkpt lat="49.99923" lon="5.51162">
        <ele>443</ele>
        <time>2015-10-11T09:50:09Z</time>
      </trkpt>
      <trkpt lat="49.99925" lon="5.51157">
        <ele>443</ele>
        <time>2015-10-11T09:50:14Z</time>
      </trkpt>
      <trkpt lat="49.99928" lon="5.51148">
        <ele>443</ele>
        <time>2015-10-11T09:50:20Z</time>
      </trkpt>
      <trkpt lat="49.99931" lon="5.51143">
        <ele>444</ele>
        <time>2015-10-11T09:50:26Z</time>
      </trkpt>
      <trkpt lat="49.99933" lon="5.51138">
        <ele>444</ele>
        <time>2015-10-11T09:50:31Z</time>
      </trkpt>
      <trkpt lat="49.99934" lon="5.51133">
        <ele>444</ele>
        <time>2015-10-11T09:50:37Z</time>
      </trkpt>
      <trkpt lat="49.99933" lon="5.51126">
        <ele>444</ele>
        <time>2015-10-11T09:50:43Z</time>
      </trkpt>
      <trkpt lat="49.99933" lon="5.5112">
        <ele>445</ele>
        <time>2015-10-11T09:50:49Z</time>
      </trkpt>
      <trkpt lat="49.99933" lon="5.51113">
        <ele>445</ele>
        <time>2015-10-11T09:50:54Z</time>
      </trkpt>
      <trkpt lat="49.99934" lon="5.51107">
        <ele>446</ele>
        <time>2015-10-11T09:51:00Z</time>
      </trkpt>
      <trkpt lat="49.99935" lon="5.51102">
        <ele>446</ele>
        <time>2015-10-11T09:51:05Z</time>
      </trkpt>
      <trkpt lat="49.99936" lon="5.51098">
        <ele>446</ele>
        <time>2015-10-11T09:51:11Z</time>
      </trkpt>
      <trkpt lat="49.99938" lon="5.51093">
        <ele>446</ele>
        <time>2015-10-11T09:51:16Z</time>
      </trkpt>
      <trkpt lat="49.9994" lon="5.51087">
        <ele>447</ele>
        <time>2015-10-11T09:51:22Z</time>
      </trkpt>
      <trkpt lat="49.99941" lon="5.5108">
        <ele>447</ele>
        <time>2015-10-11T09:51:28Z</time>
      </trkpt>
      <trkpt lat="49.99941" lon="5.51073">
        <ele>447</ele>
        <time>2015-10-11T09:51:34Z</time>
      </trkpt>
      <trkpt lat="49.99939" lon="5.51071">
        <ele>447</ele>
        <time>2015-10-11T09:51:40Z</time>
      </trkpt>
      <trkpt lat="49.99938" lon="5.51068">
        <ele>447</ele>
        <time>2015-10-11T09:51:45Z</time>
      </trkpt>
      <trkpt lat="49.99935" lon="5.51067">
        <ele>447</ele>
        <time>2015-10-11T09:51:51Z</time>
      </trkpt>
      <trkpt lat="49.99935" lon="5.51066">
        <ele>447</ele>
        <time>2015-10-11T09:51:57Z</time>
      </trkpt>
      <trkpt lat="49.99936" lon="5.51066">
        <ele>447</ele>
        <time>2015-10-11T09:52:03Z</time>
      </trkpt>
      <trkpt lat="49.99936" lon="5.51067">
        <ele>447</ele>
        <time>2015-10-11T09:52:08Z</time>
      </trkpt>
      <trkpt lat="49.99937" lon="5.51066">
        <ele>447</ele>
        <time>2015-10-11T09:52:14Z</time>
      </trkpt>
      <trkpt lat="49.99937" lon="5.51068">
        <ele>447</ele>
        <time>2015-10-11T09:52:20Z</time>
      </trkpt>
      <trkpt lat="49.99935" lon="5.51074">
        <ele>446</ele>
        <time>2015-10-11T09:52:26Z</time>
      </trkpt>
      <trkpt lat="49.99934" lon="5.5108">
        <ele>446</ele>
        <time>2015-10-11T09:52:32Z</time>
      </trkpt>
      <trkpt lat="49.99932" lon="5.51084">
        <ele>446</ele>
        <time>2015-10-11T09:52:37Z</time>
      </trkpt>
      <trkpt lat="49.99931" lon="5.51088">
        <ele>445</ele>
        <time>2015-10-11T09:52:43Z</time>
      </trkpt>
      <trkpt lat="49.9993" lon="5.51091">
        <ele>445</ele>
        <time>2015-10-11T09:52:48Z</time>
      </trkpt>
      <trkpt lat="49.99928" lon="5.51099">
        <ele>445</ele>
        <time>2015-10-11T09:52:54Z</time>
      </trkpt>
      <trkpt lat="49.99926" lon="5.51106">
        <ele>445</ele>
        <time>2015-10-11T09:52:59Z</time>
      </trkpt>
      <trkpt lat="49.99924" lon="5.51116">
        <ele>444</ele>
        <time>2015-10-11T09:53:05Z</time>
      </trkpt>
      <trkpt lat="49.99922" lon="5.51121">
        <ele>444</ele>
        <time>2015-10-11T09:53:10Z</time>
      </trkpt>
      <trkpt lat="49.9992" lon="5.51129">
        <ele>443</ele>
        <time>2015-10-11T09:53:16Z</time>
      </trkpt>
      <trkpt lat="49.99918" lon="5.51135">
        <ele>443</ele>
        <time>2015-10-11T09:53:21Z</time>
      </trkpt>
      <trkpt lat="49.99915" lon="5.51142">
        <ele>443</ele>
        <time>2015-10-11T09:53:27Z</time>
      </trkpt>
      <trkpt lat="49.99913" lon="5.51149">
        <ele>442</ele>
        <time>2015-10-11T09:53:32Z</time>
      </trkpt>
      <trkpt lat="49.99911" lon="5.51156">
        <ele>442</ele>
        <time>2015-10-11T09:53:37Z</time>
      </trkpt>
      <trkpt lat="49.99908" lon="5.51164">
        <ele>442</ele>
        <time>2015-10-11T09:53:43Z</time>
      </trkpt>
      <trkpt lat="49.99905" lon="5.51171">
        <ele>442</ele>
        <time>2015-10-11T09:53:48Z</time>
      </trkpt>
      <trkpt lat="49.99903" lon="5.51178">
        <ele>441</ele>
        <time>2015-10-11T09:53:53Z</time>
      </trkpt>
      <trkpt lat="49.99902" lon="5.51185">
        <ele>441</ele>
        <time>2015-10-11T09:53:59Z</time>
      </trkpt>
      <trkpt lat="49.99902" lon="5.51192">
        <ele>441</ele>
        <time>2015-10-11T09:54:04Z</time>
      </trkpt>
      <trkpt lat="49.99902" lon="5.512">
        <ele>441</ele>
        <time>2015-10-11T09:54:10Z</time>
      </trkpt>
      <trkpt lat="49.99899" lon="5.51207">
        <ele>440</ele>
        <time>2015-10-11T09:54:16Z</time>
      </trkpt>
      <trkpt lat="49.99893" lon="5.51211">
        <ele>440</ele>
        <time>2015-10-11T09:54:22Z</time>
      </trkpt>
      <trkpt lat="49.99889" lon="5.5121">
        <ele>440</ele>
        <time>2015-10-11T09:54:28Z</time>
      </trkpt>
      <trkpt lat="49.9989" lon="5.51208">
        <ele>440</ele>
        <time>2015-10-11T09:54:33Z</time>
      </trkpt>
      <trkpt lat="49.99889" lon="5.51209">
        <ele>440</ele>
        <time>2015-10-11T09:54:39Z</time>
      </trkpt>
      <trkpt lat="49.99887" lon="5.51214">
        <ele>440</ele>
        <time>2015-10-11T09:54:44Z</time>
      </trkpt>
      <trkpt lat="49.99883" lon="5.51221">
        <ele>440</ele>
        <time>2015-10-11T09:54:50Z</time>
      </trkpt>
      <trkpt lat="49.9988" lon="5.51228">
        <ele>439</ele>
        <time>2015-10-11T09:54:55Z</time>
      </trkpt>
      <trkpt lat="49.99875" lon="5.51237">
        <ele>439</ele>
        <time>2015-10-11T09:55:01Z</time>
      </trkpt>
      <trkpt lat="49.99872" lon="5.51243">
        <ele>439</ele>
        <time>2015-10-11T09:55:06Z</time>
      </trkpt>
      <trkpt lat="49.99868" lon="5.51249">
        <ele>438</ele>
        <time>2015-10-11T09:55:11Z</time>
      </trkpt>
      <trkpt lat="49.99864" lon="5.51256">
        <ele>438</ele>
        <time>2015-10-11T09:55:17Z</time>
      </trkpt>
      <trkpt lat="49.9986" lon="5.51264">
        <ele>437</ele>
        <time>2015-10-11T09:55:23Z</time>
      </trkpt>
      <trkpt lat="49.99857" lon="5.51269">
        <ele>437</ele>
        <time>2015-10-11T09:55:28Z</time>
      </trkpt>
      <trkpt lat="49.99852" lon="5.51278">
        <ele>436</ele>
        <time>2015-10-11T09:55:34Z</time>
      </trkpt>
      <trkpt lat="49.99849" lon="5.51283">
        <ele>435</ele>
        <time>2015-10-11T09:55:39Z</time>
      </trkpt>
      <trkpt lat="49.99845" lon="5.5129">
        <ele>435</ele>
        <time>2015-10-11T09:55:45Z</time>
      </trkpt>
      <trkpt lat="49.99841" lon="5.51296">
        <ele>435</ele>
        <time>2015-10-11T09:55:50Z</time>
      </trkpt>
      <trkpt lat="49.99836" lon="5.51303">
        <ele>434</ele>
        <time>2015-10-11T09:55:55Z</time>
      </trkpt>
      <trkpt lat="49.99831" lon="5.5131">
        <ele>434</ele>
        <time>2015-10-11T09:56:01Z</time>
      </trkpt>
      <trkpt lat="49.99826" lon="5.51316">
        <ele>433</ele>
        <time>2015-10-11T09:56:06Z</time>
      </trkpt>
      <trkpt lat="49.9982" lon="5.51323">
        <ele>433</ele>
        <time>2015-10-11T09:56:12Z</time>
      </trkpt>
      <trkpt lat="49.99818" lon="5.51329">
        <ele>432</ele>
        <time>2015-10-11T09:56:17Z</time>
      </trkpt>
      <trkpt lat="49.99814" lon="5.51335">
        <ele>432</ele>
        <time>2015-10-11T09:56:22Z</time>
      </trkpt>
      <trkpt lat="49.99809" lon="5.51342">
        <ele>432</ele>
        <time>2015-10-11T09:56:28Z</time>
      </trkpt>
      <trkpt lat="49.99805" lon="5.5135">
        <ele>432</ele>
        <time>2015-10-11T09:56:34Z</time>
      </trkpt>
      <trkpt lat="49.99803" lon="5.51354">
        <ele>432</ele>
        <time>2015-10-11T09:56:39Z</time>
      </trkpt>
      <trkpt lat="49.99799" lon="5.51359">
        <ele>432</ele>
        <time>2015-10-11T09:56:45Z</time>
      </trkpt>
      <trkpt lat="49.99794" lon="5.51364">
        <ele>432</ele>
        <time>2015-10-11T09:56:50Z</time>
      </trkpt>
      <trkpt lat="49.99788" lon="5.51369">
        <ele>432</ele>
        <time>2015-10-11T09:56:56Z</time>
      </trkpt>
      <trkpt lat="49.99781" lon="5.51376">
        <ele>432</ele>
        <time>2015-10-11T09:57:02Z</time>
      </trkpt>
      <trkpt lat="49.99777" lon="5.51385">
        <ele>431</ele>
        <time>2015-10-11T09:57:08Z</time>
      </trkpt>
      <trkpt lat="49.99773" lon="5.51392">
        <ele>431</ele>
        <time>2015-10-11T09:57:14Z</time>
      </trkpt>
      <trkpt lat="49.9977" lon="5.51397">
        <ele>431</ele>
        <time>2015-10-11T09:57:20Z</time>
      </trkpt>
      <trkpt lat="49.99766" lon="5.51401">
        <ele>431</ele>
        <time>2015-10-11T09:57:25Z</time>
      </trkpt>
      <trkpt lat="49.99761" lon="5.51403">
        <ele>431</ele>
        <time>2015-10-11T09:57:30Z</time>
      </trkpt>
      <trkpt lat="49.99753" lon="5.51403">
        <ele>431</ele>
        <time>2015-10-11T09:57:36Z</time>
      </trkpt>
      <trkpt lat="49.99749" lon="5.51402">
        <ele>431</ele>
        <time>2015-10-11T09:57:41Z</time>
      </trkpt>
      <trkpt lat="49.99744" lon="5.51401">
        <ele>431</ele>
        <time>2015-10-11T09:57:47Z</time>
      </trkpt>
      <trkpt lat="49.99738" lon="5.514">
        <ele>431</ele>
        <time>2015-10-11T09:57:53Z</time>
      </trkpt>
      <trkpt lat="49.99733" lon="5.51398">
        <ele>431</ele>
        <time>2015-10-11T09:57:59Z</time>
      </trkpt>
      <trkpt lat="49.9973" lon="5.51397">
        <ele>431</ele>
        <time>2015-10-11T09:58:04Z</time>
      </trkpt>
      <trkpt lat="49.99725" lon="5.51396">
        <ele>432</ele>
        <time>2015-10-11T09:58:10Z</time>
      </trkpt>
      <trkpt lat="49.99719" lon="5.51396">
        <ele>431</ele>
        <time>2015-10-11T09:58:15Z</time>
      </trkpt>
      <trkpt lat="49.99714" lon="5.51395">
        <ele>432</ele>
        <time>2015-10-11T09:58:20Z</time>
      </trkpt>
      <trkpt lat="49.99706" lon="5.51394">
        <ele>432</ele>
        <time>2015-10-11T09:58:26Z</time>
      </trkpt>
      <trkpt lat="49.99699" lon="5.51392">
        <ele>433</ele>
        <time>2015-10-11T09:58:31Z</time>
      </trkpt>
      <trkpt lat="49.99692" lon="5.5139">
        <ele>433</ele>
        <time>2015-10-11T09:58:37Z</time>
      </trkpt>
      <trkpt lat="49.99685" lon="5.51388">
        <ele>433</ele>
        <time>2015-10-11T09:58:43Z</time>
      </trkpt>
      <trkpt lat="49.99676" lon="5.51386">
        <ele>433</ele>
        <time>2015-10-11T09:58:49Z</time>
      </trkpt>
      <trkpt lat="49.9967" lon="5.51383">
        <ele>433</ele>
        <time>2015-10-11T09:58:55Z</time>
      </trkpt>
      <trkpt lat="49.99663" lon="5.51381">
        <ele>433</ele>
        <time>2015-10-11T09:59:00Z</time>
      </trkpt>
      <trkpt lat="49.99656" lon="5.51379">
        <ele>433</ele>
        <time>2015-10-11T09:59:06Z</time>
      </trkpt>
      <trkpt lat="49.99651" lon="5.51377">
        <ele>433</ele>
        <time>2015-10-11T09:59:11Z</time>
      </trkpt>
      <trkpt lat="49.99646" lon="5.51376">
        <ele>433</ele>
        <time>2015-10-11T09:59:17Z</time>
      </trkpt>
      <trkpt lat="49.99641" lon="5.51374">
        <ele>433</ele>
        <time>2015-10-11T09:59:23Z</time>
      </trkpt>
      <trkpt lat="49.99638" lon="5.51371">
        <ele>434</ele>
        <time>2015-10-11T09:59:29Z</time>
      </trkpt>
      <trkpt lat="49.99633" lon="5.51369">
        <ele>434</ele>
        <time>2015-10-11T09:59:34Z</time>
      </trkpt>
      <trkpt lat="49.99626" lon="5.51368">
        <ele>434</ele>
        <time>2015-10-11T09:59:39Z</time>
      </trkpt>
      <trkpt lat="49.99619" lon="5.51366">
        <ele>434</ele>
        <time>2015-10-11T09:59:45Z</time>
      </trkpt>
      <trkpt lat="49.99612" lon="5.51364">
        <ele>434</ele>
        <time>2015-10-11T09:59:50Z</time>
      </trkpt>
      <trkpt lat="49.99606" lon="5.51362">
        <ele>434</ele>
        <time>2015-10-11T09:59:55Z</time>
      </trkpt>
      <trkpt lat="49.99599" lon="5.51361">
        <ele>434</ele>
        <time>2015-10-11T10:00:00Z</time>
      </trkpt>
      <trkpt lat="49.99593" lon="5.5136">
        <ele>435</ele>
        <time>2015-10-11T10:00:06Z</time>
      </trkpt>
      <trkpt lat="49.99587" lon="5.51358">
        <ele>435</ele>
        <time>2015-10-11T10:00:11Z</time>
      </trkpt>
      <trkpt lat="49.99581" lon="5.51355">
        <ele>434</ele>
        <time>2015-10-11T10:00:16Z</time>
      </trkpt>
      <trkpt lat="49.99575" lon="5.51351">
        <ele>435</ele>
        <time>2015-10-11T10:00:22Z</time>
      </trkpt>
      <trkpt lat="49.99569" lon="5.51346">
        <ele>435</ele>
        <time>2015-10-11T10:00:28Z</time>
      </trkpt>
      <trkpt lat="49.99564" lon="5.51341">
        <ele>435</ele>
        <time>2015-10-11T10:00:33Z</time>
      </trkpt>
      <trkpt lat="49.9956" lon="5.51337">
        <ele>435</ele>
        <time>2015-10-11T10:00:38Z</time>
      </trkpt>
      <trkpt lat="49.99554" lon="5.5133">
        <ele>436</ele>
        <time>2015-10-11T10:00:44Z</time>
      </trkpt>
      <trkpt lat="49.99549" lon="5.51322">
        <ele>436</ele>
        <time>2015-10-11T10:00:50Z</time>
      </trkpt>
      <trkpt lat="49.99546" lon="5.51315">
        <ele>436</ele>
        <time>2015-10-11T10:00:55Z</time>
      </trkpt>
      <trkpt lat="49.99542" lon="5.51308">
        <ele>436</ele>
        <time>2015-10-11T10:01:01Z</time>
      </trkpt>
      <trkpt lat="49.99538" lon="5.51304">
        <ele>436</ele>
        <time>2015-10-11T10:01:06Z</time>
      </trkpt>
      <trkpt lat="49.99534" lon="5.51295">
        <ele>435</ele>
        <time>2015-10-11T10:01:12Z</time>
      </trkpt>
      <trkpt lat="49.99529" lon="5.51288">
        <ele>436</ele>
        <time>2015-10-11T10:01:17Z</time>
      </trkpt>
      <trkpt lat="49.99525" lon="5.5128">
        <ele>436</ele>
        <time>2015-10-11T10:01:23Z</time>
      </trkpt>
      <trkpt lat="49.99523" lon="5.51277">
        <ele>436</ele>
        <time>2015-10-11T10:01:29Z</time>
      </trkpt>
      <trkpt lat="49.99518" lon="5.51269">
        <ele>436</ele>
        <time>2015-10-11T10:01:35Z</time>
      </trkpt>
      <trkpt lat="49.99515" lon="5.51263">
        <ele>436</ele>
        <time>2015-10-11T10:01:40Z</time>
      </trkpt>
      <trkpt lat="49.99511" lon="5.51258">
        <ele>437</ele>
        <time>2015-10-11T10:01:45Z</time>
      </trkpt>
      <trkpt lat="49.99506" lon="5.51251">
        <ele>437</ele>
        <time>2015-10-11T10:01:51Z</time>
      </trkpt>
      <trkpt lat="49.99501" lon="5.51244">
        <ele>437</ele>
        <time>2015-10-11T10:01:57Z</time>
      </trkpt>
      <trkpt lat="49.99497" lon="5.51238">
        <ele>437</ele>
        <time>2015-10-11T10:02:02Z</time>
      </trkpt>
      <trkpt lat="49.99492" lon="5.51232">
        <ele>437</ele>
        <time>2015-10-11T10:02:07Z</time>
      </trkpt>
      <trkpt lat="49.99488" lon="5.51225">
        <ele>437</ele>
        <time>2015-10-11T10:02:13Z</time>
      </trkpt>
      <trkpt lat="49.99484" lon="5.51218">
        <ele>438</ele>
        <time>2015-10-11T10:02:18Z</time>
      </trkpt>
      <trkpt lat="49.9948" lon="5.51209">
        <ele>438</ele>
        <time>2015-10-11T10:02:24Z</time>
      </trkpt>
      <trkpt lat="49.99475" lon="5.51202">
        <ele>438</ele>
        <time>2015-10-11T10:02:30Z</time>
      </trkpt>
      <trkpt lat="49.99471" lon="5.51196">
        <ele>438</ele>
        <time>2015-10-11T10:02:35Z</time>
      </trkpt>
      <trkpt lat="49.99466" lon="5.5119">
        <ele>439</ele>
        <time>2015-10-11T10:02:41Z</time>
      </trkpt>
      <trkpt lat="49.99463" lon="5.51184">
        <ele>440</ele>
        <time>2015-10-11T10:02:46Z</time>
      </trkpt>
      <trkpt lat="49.99459" lon="5.51177">
        <ele>440</ele>
        <time>2015-10-11T10:02:52Z</time>
      </trkpt>
      <trkpt lat="49.99455" lon="5.51171">
        <ele>440</ele>
        <time>2015-10-11T10:02:58Z</time>
      </trkpt>
      <trkpt lat="49.99453" lon="5.51166">
        <ele>441</ele>
        <time>2015-10-11T10:03:03Z</time>
      </trkpt>
      <trkpt lat="49.99452" lon="5.51164">
        <ele>441</ele>
        <time>2015-10-11T10:03:09Z</time>
      </trkpt>
      <trkpt lat="49.99451" lon="5.51162">
        <ele>441</ele>
        <time>2015-10-11T10:03:15Z</time>
      </trkpt>
      <trkpt lat="49.99448" lon="5.51156">
        <ele>442</ele>
        <time>2015-10-11T10:03:21Z</time>
      </trkpt>
      <trkpt lat="49.99447" lon="5.51153">
        <ele>442</ele>
        <time>2015-10-11T10:03:27Z</time>
      </trkpt>
      <trkpt lat="49.99448" lon="5.51151">
        <ele>442</ele>
        <time>2015-10-11T10:03:33Z</time>
      </trkpt>
      <trkpt lat="49.99448" lon="5.5115">
        <ele>441</ele>
        <time>2015-10-11T10:03:39Z</time>
      </trkpt>
      <trkpt lat="49.99447" lon="5.5115">
        <ele>442</ele>
        <time>2015-10-11T10:03:44Z</time>
      </trkpt>
      <trkpt lat="49.99443" lon="5.51148">
        <ele>442</ele>
        <time>2015-10-11T10:03:50Z</time>
      </trkpt>
      <trkpt lat="49.99441" lon="5.51145">
        <ele>442</ele>
        <time>2015-10-11T10:03:55Z</time>
      </trkpt>
      <trkpt lat="49.9944" lon="5.51143">
        <ele>443</ele>
        <time>2015-10-11T10:04:01Z</time>
      </trkpt>
      <trkpt lat="49.99438" lon="5.51142">
        <ele>443</ele>
        <time>2015-10-11T10:04:06Z</time>
      </trkpt>
      <trkpt lat="49.99434" lon="5.51137">
        <ele>443</ele>
        <time>2015-10-11T10:04:12Z</time>
      </trkpt>
      <trkpt lat="49.99431" lon="5.51131">
        <ele>444</ele>
        <time>2015-10-11T10:04:17Z</time>
      </trkpt>
      <trkpt lat="49.99428" lon="5.51127">
        <ele>444</ele>
        <time>2015-10-11T10:04:22Z</time>
      </trkpt>
      <trkpt lat="49.99424" lon="5.51123">
        <ele>444</ele>
        <time>2015-10-11T10:04:28Z</time>
      </trkpt>
      <trkpt lat="49.9942" lon="5.51117">
        <ele>444</ele>
        <time>2015-10-11T10:04:34Z</time>
      </trkpt>
      <trkpt lat="49.99417" lon="5.51113">
        <ele>445</ele>
        <time>2015-10-11T10:04:39Z</time>
      </trkpt>
      <trkpt lat="49.99413" lon="5.51108">
        <ele>446</ele>
        <time>2015-10-11T10:04:45Z</time>
      </trkpt>
      <trkpt lat="49.9941" lon="5.51103">
        <ele>446</ele>
        <time>2015-10-11T10:04:50Z</time>
      </trkpt>
      <trkpt lat="49.99405" lon="5.51098">
        <ele>447</ele>
        <time>2015-10-11T10:04:56Z</time>
      </trkpt>
      <trkpt lat="49.99402" lon="5.51093">
        <ele>447</ele>
        <time>2015-10-11T10:05:01Z</time>
      </trkpt>
      <trkpt lat="49.99397" lon="5.51089">
        <ele>447</ele>
        <time>2015-10-11T10:05:07Z</time>
      </trkpt>
      <trkpt lat="49.99393" lon="5.51085">
        <ele>448</ele>
        <time>2015-10-11T10:05:13Z</time>
      </trkpt>
      <trkpt lat="49.99389" lon="5.5108">
        <ele>448</ele>
        <time>2015-10-11T10:05:18Z</time>
      </trkpt>
      <trkpt lat="49.99385" lon="5.51076">
        <ele>449</ele>
        <time>2015-10-11T10:05:24Z</time>
      </trkpt>
      <trkpt lat="49.99385" lon="5.51075">
        <ele>449</ele>
        <time>2015-10-11T10:05:29Z</time>
      </trkpt>
      <trkpt lat="49.99384" lon="5.51072">
        <ele>449</ele>
        <time>2015-10-11T10:05:35Z</time>
      </trkpt>
      <trkpt lat="49.99382" lon="5.51069">
        <ele>449</ele>
        <time>2015-10-11T10:05:40Z</time>
      </trkpt>
      <trkpt lat="49.99378" lon="5.51064">
        <ele>449</ele>
        <time>2015-10-11T10:05:46Z</time>
      </trkpt>
      <trkpt lat="49.99375" lon="5.51061">
        <ele>449</ele>
        <time>2015-10-11T10:05:51Z</time>
      </trkpt>
      <trkpt lat="49.99371" lon="5.51057">
        <ele>450</ele>
        <time>2015-10-11T10:05:56Z</time>
      </trkpt>
      <trkpt lat="49.99367" lon="5.51054">
        <ele>450</ele>
        <time>2015-10-11T10:06:01Z</time>
      </trkpt>
      <trkpt lat="49.99361" lon="5.5105">
        <ele>451</ele>
        <time>2015-10-11T10:06:07Z</time>
      </trkpt>
      <trkpt lat="49.99358" lon="5.51047">
        <ele>451</ele>
        <time>2015-10-11T10:06:12Z</time>
      </trkpt>
      <trkpt lat="49.99353" lon="5.51042">
        <ele>451</ele>
        <time>2015-10-11T10:06:18Z</time>
      </trkpt>
      <trkpt lat="49.99348" lon="5.51038">
        <ele>452</ele>
        <time>2015-10-11T10:06:24Z</time>
      </trkpt>
      <trkpt lat="49.99343" lon="5.51034">
        <ele>452</ele>
        <time>2015-10-11T10:06:29Z</time>
      </trkpt>
      <trkpt lat="49.99341" lon="5.51033">
        <ele>453</ele>
        <time>2015-10-11T10:06:34Z</time>
      </trkpt>
      <trkpt lat="49.99336" lon="5.5103">
        <ele>453</ele>
        <time>2015-10-11T10:06:40Z</time>
      </trkpt>
      <trkpt lat="49.99332" lon="5.51029">
        <ele>453</ele>
        <time>2015-10-11T10:06:45Z</time>
      </trkpt>
      <trkpt lat="49.99325" lon="5.51027">
        <ele>453</ele>
        <time>2015-10-11T10:06:51Z</time>
      </trkpt>
      <trkpt lat="49.9932" lon="5.51024">
        <ele>454</ele>
        <time>2015-10-11T10:06:57Z</time>
      </trkpt>
      <trkpt lat="49.99314" lon="5.51021">
        <ele>454</ele>
        <time>2015-10-11T10:07:03Z</time>
      </trkpt>
      <trkpt lat="49.9931" lon="5.5102">
        <ele>455</ele>
        <time>2015-10-11T10:07:08Z</time>
      </trkpt>
      <trkpt lat="49.99309" lon="5.51019">
        <ele>455</ele>
        <time>2015-10-11T10:07:13Z</time>
      </trkpt>
      <trkpt lat="49.99308" lon="5.51016">
        <ele>455</ele>
        <time>2015-10-11T10:07:18Z</time>
      </trkpt>
      <trkpt lat="49.99305" lon="5.51013">
        <ele>456</ele>
        <time>2015-10-11T10:07:23Z</time>
      </trkpt>
      <trkpt lat="49.993" lon="5.51011">
        <ele>456</ele>
        <time>2015-10-11T10:07:29Z</time>
      </trkpt>
      <trkpt lat="49.99296" lon="5.51009">
        <ele>456</ele>
        <time>2015-10-11T10:07:35Z</time>
      </trkpt>
      <trkpt lat="49.99294" lon="5.51011">
        <ele>457</ele>
        <time>2015-10-11T10:07:40Z</time>
      </trkpt>
      <trkpt lat="49.99295" lon="5.51011">
        <ele>457</ele>
        <time>2015-10-11T10:07:46Z</time>
      </trkpt>
      <trkpt lat="49.99296" lon="5.5101">
        <ele>456</ele>
        <time>2015-10-11T10:07:51Z</time>
      </trkpt>
      <trkpt lat="49.99295" lon="5.51008">
        <ele>456</ele>
        <time>2015-10-11T10:07:56Z</time>
      </trkpt>
      <trkpt lat="49.99294" lon="5.51006">
        <ele>457</ele>
        <time>2015-10-11T10:08:02Z</time>
      </trkpt>
      <trkpt lat="49.99294" lon="5.51007">
        <ele>456</ele>
        <time>2015-10-11T10:08:07Z</time>
      </trkpt>
      <trkpt lat="49.99293" lon="5.51009">
        <ele>456</ele>
        <time>2015-10-11T10:08:12Z</time>
      </trkpt>
      <trkpt lat="49.99294" lon="5.5101">
        <ele>456</ele>
        <time>2015-10-11T10:08:17Z</time>
      </trkpt>
      <trkpt lat="49.99293" lon="5.51011">
        <ele>456</ele>
        <time>2015-10-11T10:08:24Z</time>
      </trkpt>
      <trkpt lat="49.99293" lon="5.51013">
        <ele>456</ele>
        <time>2015-10-11T10:08:29Z</time>
      </trkpt>
      <trkpt lat="49.99293" lon="5.51014">
        <ele>456</ele>
        <time>2015-10-11T10:08:35Z</time>
      </trkpt>
      <trkpt lat="49.99292" lon="5.51015">
        <ele>456</ele>
        <time>2015-10-11T10:08:40Z</time>
      </trkpt>
      <trkpt lat="49.99292" lon="5.51016">
        <ele>456</ele>
        <time>2015-10-11T10:08:45Z</time>
      </trkpt>
      <trkpt lat="49.99289" lon="5.51018">
        <ele>456</ele>
        <time>2015-10-11T10:08:50Z</time>
      </trkpt>
      <trkpt lat="49.99288" lon="5.51018">
        <ele>456</ele>
        <time>2015-10-11T10:08:56Z</time>
      </trkpt>
      <trkpt lat="49.99288" lon="5.5102">
        <ele>456</ele>
        <time>2015-10-11T10:09:03Z</time>
      </trkpt>
      <trkpt lat="49.99286" lon="5.51021">
        <ele>457</ele>
        <time>2015-10-11T10:09:08Z</time>
      </trkpt>
      <trkpt lat="49.99284" lon="5.51019">
        <ele>457</ele>
        <time>2015-10-11T10:09:14Z</time>
      </trkpt>
      <trkpt lat="49.99282" lon="5.51019">
        <ele>457</ele>
        <time>2015-10-11T10:09:19Z</time>
      </trkpt>
      <trkpt lat="49.99278" lon="5.51019">
        <ele>457</ele>
        <time>2015-10-11T10:09:25Z</time>
      </trkpt>
      <trkpt lat="49.99277" lon="5.51017">
        <ele>457</ele>
        <time>2015-10-11T10:09:31Z</time>
      </trkpt>
      <trkpt lat="49.99276" lon="5.51015">
        <ele>457</ele>
        <time>2015-10-11T10:09:36Z</time>
      </trkpt>
      <trkpt lat="49.99275" lon="5.51016">
        <ele>458</ele>
        <time>2015-10-11T10:09:42Z</time>
      </trkpt>
      <trkpt lat="49.99273" lon="5.51018">
        <ele>457</ele>
        <time>2015-10-11T10:09:47Z</time>
      </trkpt>
      <trkpt lat="49.99271" lon="5.51019">
        <ele>458</ele>
        <time>2015-10-11T10:09:52Z</time>
      </trkpt>
      <trkpt lat="49.99269" lon="5.5102">
        <ele>458</ele>
        <time>2015-10-11T10:09:57Z</time>
      </trkpt>
      <trkpt lat="49.99266" lon="5.5102">
        <ele>458</ele>
        <time>2015-10-11T10:10:02Z</time>
      </trkpt>
      <trkpt lat="49.99263" lon="5.51019">
        <ele>458</ele>
        <time>2015-10-11T10:10:08Z</time>
      </trkpt>
      <trkpt lat="49.99261" lon="5.51019">
        <ele>458</ele>
        <time>2015-10-11T10:10:14Z</time>
      </trkpt>
      <trkpt lat="49.99262" lon="5.51018">
        <ele>458</ele>
        <time>2015-10-11T10:10:19Z</time>
      </trkpt>
      <trkpt lat="49.99262" lon="5.51013">
        <ele>458</ele>
        <time>2015-10-11T10:10:25Z</time>
      </trkpt>
      <trkpt lat="49.99261" lon="5.51008">
        <ele>458</ele>
        <time>2015-10-11T10:10:31Z</time>
      </trkpt>
      <trkpt lat="49.9926" lon="5.51001">
        <ele>459</ele>
        <time>2015-10-11T10:10:37Z</time>
      </trkpt>
      <trkpt lat="49.99261" lon="5.50996">
        <ele>459</ele>
        <time>2015-10-11T10:10:42Z</time>
      </trkpt>
      <trkpt lat="49.99262" lon="5.5099">
        <ele>459</ele>
        <time>2015-10-11T10:10:48Z</time>
      </trkpt>
      <trkpt lat="49.9926" lon="5.50986">
        <ele>459</ele>
        <time>2015-10-11T10:10:53Z</time>
      </trkpt>
      <trkpt lat="49.99259" lon="5.50983">
        <ele>458</ele>
        <time>2015-10-11T10:10:59Z</time>
      </trkpt>
      <trkpt lat="49.99256" lon="5.50979">
        <ele>458</ele>
        <time>2015-10-11T10:11:04Z</time>
      </trkpt>
      <trkpt lat="49.99252" lon="5.50974">
        <ele>459</ele>
        <time>2015-10-11T10:11:09Z</time>
      </trkpt>
      <trkpt lat="49.99247" lon="5.50968">
        <ele>460</ele>
        <time>2015-10-11T10:11:14Z</time>
      </trkpt>
      <trkpt lat="49.99243" lon="5.50964">
        <ele>460</ele>
        <time>2015-10-11T10:11:19Z</time>
      </trkpt>
      <trkpt lat="49.99238" lon="5.50959">
        <ele>461</ele>
        <time>2015-10-11T10:11:25Z</time>
      </trkpt>
      <trkpt lat="49.99233" lon="5.50955">
        <ele>461</ele>
        <time>2015-10-11T10:11:30Z</time>
      </trkpt>
      <trkpt lat="49.99229" lon="5.50951">
        <ele>460</ele>
        <time>2015-10-11T10:11:35Z</time>
      </trkpt>
      <trkpt lat="49.99223" lon="5.50949">
        <ele>460</ele>
        <time>2015-10-11T10:11:41Z</time>
      </trkpt>
      <trkpt lat="49.99217" lon="5.50945">
        <ele>460</ele>
        <time>2015-10-11T10:11:47Z</time>
      </trkpt>
      <trkpt lat="49.99211" lon="5.50943">
        <ele>461</ele>
        <time>2015-10-11T10:11:53Z</time>
      </trkpt>
      <trkpt lat="49.99207" lon="5.50941">
        <ele>461</ele>
        <time>2015-10-11T10:11:58Z</time>
      </trkpt>
      <trkpt lat="49.99201" lon="5.50938">
        <ele>461</ele>
        <time>2015-10-11T10:12:04Z</time>
      </trkpt>
      <trkpt lat="49.99196" lon="5.50936">
        <ele>461</ele>
        <time>2015-10-11T10:12:10Z</time>
      </trkpt>
      <trkpt lat="49.99191" lon="5.50931">
        <ele>461</ele>
        <time>2015-10-11T10:12:16Z</time>
      </trkpt>
      <trkpt lat="49.99189" lon="5.50928">
        <ele>461</ele>
        <time>2015-10-11T10:12:21Z</time>
      </trkpt>
      <trkpt lat="49.99189" lon="5.50917">
        <ele>462</ele>
        <time>2015-10-11T10:12:27Z</time>
      </trkpt>
      <trkpt lat="49.99195" lon="5.50909">
        <ele>462</ele>
        <time>2015-10-11T10:12:33Z</time>
      </trkpt>
      <trkpt lat="49.992" lon="5.50905">
        <ele>462</ele>
        <time>2015-10-11T10:12:38Z</time>
      </trkpt>
      <trkpt lat="49.99205" lon="5.509">
        <ele>462</ele>
        <time>2015-10-11T10:12:43Z</time>
      </trkpt>
      <trkpt lat="49.99211" lon="5.50892">
        <ele>462</ele>
        <time>2015-10-11T10:12:49Z</time>
      </trkpt>
      <trkpt lat="49.99216" lon="5.50886">
        <ele>462</ele>
        <time>2015-10-11T10:12:54Z</time>
      </trkpt>
      <trkpt lat="49.99221" lon="5.50881">
        <ele>462</ele>
        <time>2015-10-11T10:12:59Z</time>
      </trkpt>
      <trkpt lat="49.99227" lon="5.50874">
        <ele>462</ele>
        <time>2015-10-11T10:13:05Z</time>
      </trkpt>
      <trkpt lat="49.99232" lon="5.50867">
        <ele>462</ele>
        <time>2015-10-11T10:13:11Z</time>
      </trkpt>
      <trkpt lat="49.99237" lon="5.50862">
        <ele>462</ele>
        <time>2015-10-11T10:13:16Z</time>
      </trkpt>
      <trkpt lat="49.99241" lon="5.50855">
        <ele>463</ele>
        <time>2015-10-11T10:13:21Z</time>
      </trkpt>
      <trkpt lat="49.99247" lon="5.50848">
        <ele>462</ele>
        <time>2015-10-11T10:13:27Z</time>
      </trkpt>
      <trkpt lat="49.99251" lon="5.50842">
        <ele>462</ele>
        <time>2015-10-11T10:13:32Z</time>
      </trkpt>
      <trkpt lat="49.99255" lon="5.50834">
        <ele>462</ele>
        <time>2015-10-11T10:13:38Z</time>
      </trkpt>
      <trkpt lat="49.9926" lon="5.50828">
        <ele>463</ele>
        <time>2015-10-11T10:13:43Z</time>
      </trkpt>
      <trkpt lat="49.99264" lon="5.50821">
        <ele>463</ele>
        <time>2015-10-11T10:13:49Z</time>
      </trkpt>
      <trkpt lat="49.99269" lon="5.50814">
        <ele>462</ele>
        <time>2015-10-11T10:13:55Z</time>
      </trkpt>
      <trkpt lat="49.99274" lon="5.50806">
        <ele>462</ele>
        <time>2015-10-11T10:14:01Z</time>
      </trkpt>
      <trkpt lat="49.99279" lon="5.50799">
        <ele>463</ele>
        <time>2015-10-11T10:14:07Z</time>
      </trkpt>
      <trkpt lat="49.99282" lon="5.50793">
        <ele>463</ele>
        <time>2015-10-11T10:14:12Z</time>
      </trkpt>
      <trkpt lat="49.99287" lon="5.50786">
        <ele>463</ele>
        <time>2015-10-11T10:14:18Z</time>
      </trkpt>
      <trkpt lat="49.99292" lon="5.50778">
        <ele>463</ele>
        <time>2015-10-11T10:14:24Z</time>
      </trkpt>
      <trkpt lat="49.99297" lon="5.5077">
        <ele>463</ele>
        <time>2015-10-11T10:14:30Z</time>
      </trkpt>
      <trkpt lat="49.99301" lon="5.50762">
        <ele>463</ele>
        <time>2015-10-11T10:14:36Z</time>
      </trkpt>
      <trkpt lat="49.99305" lon="5.50756">
        <ele>463</ele>
        <time>2015-10-11T10:14:41Z</time>
      </trkpt>
      <trkpt lat="49.99311" lon="5.50749">
        <ele>463</ele>
        <time>2015-10-11T10:14:47Z</time>
      </trkpt>
      <trkpt lat="49.99315" lon="5.50743">
        <ele>463</ele>
        <time>2015-10-11T10:14:52Z</time>
      </trkpt>
      <trkpt lat="49.99319" lon="5.50737">
        <ele>464</ele>
        <time>2015-10-11T10:14:57Z</time>
      </trkpt>
      <trkpt lat="49.99324" lon="5.5073">
        <ele>464</ele>
        <time>2015-10-11T10:15:03Z</time>
      </trkpt>
      <trkpt lat="49.99329" lon="5.50722">
        <ele>464</ele>
        <time>2015-10-11T10:15:09Z</time>
      </trkpt>
      <trkpt lat="49.99333" lon="5.50717">
        <ele>464</ele>
        <time>2015-10-11T10:15:14Z</time>
      </trkpt>
      <trkpt lat="49.99338" lon="5.50709">
        <ele>464</ele>
        <time>2015-10-11T10:15:20Z</time>
      </trkpt>
      <trkpt lat="49.99342" lon="5.50702">
        <ele>464</ele>
        <time>2015-10-11T10:15:25Z</time>
      </trkpt>
      <trkpt lat="49.99347" lon="5.50695">
        <ele>464</ele>
        <time>2015-10-11T10:15:31Z</time>
      </trkpt>
      <trkpt lat="49.99351" lon="5.50689">
        <ele>464</ele>
        <time>2015-10-11T10:15:37Z</time>
      </trkpt>
      <trkpt lat="49.99351" lon="5.50684">
        <ele>464</ele>
        <time>2015-10-11T10:15:42Z</time>
      </trkpt>
      <trkpt lat="49.99348" lon="5.50678">
        <ele>463</ele>
        <time>2015-10-11T10:15:48Z</time>
      </trkpt>
      <trkpt lat="49.99347" lon="5.50678">
        <ele>463</ele>
        <time>2015-10-11T10:15:53Z</time>
      </trkpt>
      <trkpt lat="49.99345" lon="5.50674">
        <ele>463</ele>
        <time>2015-10-11T10:15:59Z</time>
      </trkpt>
      <trkpt lat="49.99341" lon="5.50668">
        <ele>463</ele>
        <time>2015-10-11T10:16:05Z</time>
      </trkpt>
      <trkpt lat="49.99337" lon="5.50663">
        <ele>462</ele>
        <time>2015-10-11T10:16:11Z</time>
      </trkpt>
      <trkpt lat="49.99332" lon="5.50657">
        <ele>462</ele>
        <time>2015-10-11T10:16:17Z</time>
      </trkpt>
      <trkpt lat="49.99329" lon="5.50652">
        <ele>462</ele>
        <time>2015-10-11T10:16:22Z</time>
      </trkpt>
      <trkpt lat="49.99326" lon="5.50644">
        <ele>462</ele>
        <time>2015-10-11T10:16:28Z</time>
      </trkpt>
      <trkpt lat="49.99323" lon="5.50638">
        <ele>462</ele>
        <time>2015-10-11T10:16:33Z</time>
      </trkpt>
      <trkpt lat="49.9932" lon="5.50632">
        <ele>462</ele>
        <time>2015-10-11T10:16:39Z</time>
      </trkpt>
      <trkpt lat="49.99318" lon="5.50627">
        <ele>462</ele>
        <time>2015-10-11T10:16:45Z</time>
      </trkpt>
      <trkpt lat="49.99316" lon="5.50622">
        <ele>462</ele>
        <time>2015-10-11T10:16:51Z</time>
      </trkpt>
      <trkpt lat="49.99313" lon="5.50617">
        <ele>462</ele>
        <time>2015-10-11T10:16:56Z</time>
      </trkpt>
      <trkpt lat="49.9931" lon="5.50612">
        <ele>461</ele>
        <time>2015-10-11T10:17:02Z</time>
      </trkpt>
      <trkpt lat="49.99311" lon="5.50611">
        <ele>462</ele>
        <time>2015-10-11T10:17:07Z</time>
      </trkpt>
      <trkpt lat="49.9931" lon="5.50606">
        <ele>461</ele>
        <time>2015-10-11T10:17:12Z</time>
      </trkpt>
      <trkpt lat="49.99307" lon="5.506">
        <ele>461</ele>
        <time>2015-10-11T10:17:18Z</time>
      </trkpt>
      <trkpt lat="49.99303" lon="5.50596">
        <ele>461</ele>
        <time>2015-10-11T10:17:23Z</time>
      </trkpt>
      <trkpt lat="49.993" lon="5.5059">
        <ele>461</ele>
        <time>2015-10-11T10:17:28Z</time>
      </trkpt>
      <trkpt lat="49.99294" lon="5.50582">
        <ele>460</ele>
        <time>2015-10-11T10:17:34Z</time>
      </trkpt>
      <trkpt lat="49.99289" lon="5.50576">
        <ele>460</ele>
        <time>2015-10-11T10:17:39Z</time>
      </trkpt>
      <trkpt lat="49.99284" lon="5.50569">
        <ele>460</ele>
        <time>2015-10-11T10:17:45Z</time>
      </trkpt>
      <trkpt lat="49.99281" lon="5.50563">
        <ele>460</ele>
        <time>2015-10-11T10:17:50Z</time>
      </trkpt>
      <trkpt lat="49.99274" lon="5.50557">
        <ele>460</ele>
        <time>2015-10-11T10:17:56Z</time>
      </trkpt>
      <trkpt lat="49.9927" lon="5.50552">
        <ele>459</ele>
        <time>2015-10-11T10:18:01Z</time>
      </trkpt>
      <trkpt lat="49.99268" lon="5.50549">
        <ele>459</ele>
        <time>2015-10-11T10:18:06Z</time>
      </trkpt>
      <trkpt lat="49.99265" lon="5.50545">
        <ele>459</ele>
        <time>2015-10-11T10:18:12Z</time>
      </trkpt>
      <trkpt lat="49.99261" lon="5.50541">
        <ele>459</ele>
        <time>2015-10-11T10:18:17Z</time>
      </trkpt>
      <trkpt lat="49.99258" lon="5.50537">
        <ele>459</ele>
        <time>2015-10-11T10:18:22Z</time>
      </trkpt>
      <trkpt lat="49.99255" lon="5.50532">
        <ele>458</ele>
        <time>2015-10-11T10:18:28Z</time>
      </trkpt>
      <trkpt lat="49.99252" lon="5.50528">
        <ele>458</ele>
        <time>2015-10-11T10:18:33Z</time>
      </trkpt>
      <trkpt lat="49.99249" lon="5.50526">
        <ele>458</ele>
        <time>2015-10-11T10:18:39Z</time>
      </trkpt>
      <trkpt lat="49.99245" lon="5.50521">
        <ele>457</ele>
        <time>2015-10-11T10:18:45Z</time>
      </trkpt>
      <trkpt lat="49.9924" lon="5.50516">
        <ele>457</ele>
        <time>2015-10-11T10:18:50Z</time>
      </trkpt>
      <trkpt lat="49.99239" lon="5.50507">
        <ele>457</ele>
        <time>2015-10-11T10:18:56Z</time>
      </trkpt>
      <trkpt lat="49.9924" lon="5.50497">
        <ele>457</ele>
        <time>2015-10-11T10:19:02Z</time>
      </trkpt>
      <trkpt lat="49.99239" lon="5.50488">
        <ele>458</ele>
        <time>2015-10-11T10:19:07Z</time>
      </trkpt>
      <trkpt lat="49.99237" lon="5.50482">
        <ele>458</ele>
        <time>2015-10-11T10:19:13Z</time>
      </trkpt>
      <trkpt lat="49.99234" lon="5.50477">
        <ele>457</ele>
        <time>2015-10-11T10:19:18Z</time>
      </trkpt>
      <trkpt lat="49.99231" lon="5.50471">
        <ele>457</ele>
        <time>2015-10-11T10:19:24Z</time>
      </trkpt>
      <trkpt lat="49.99229" lon="5.50466">
        <ele>457</ele>
        <time>2015-10-11T10:19:30Z</time>
      </trkpt>
      <trkpt lat="49.99226" lon="5.50464">
        <ele>457</ele>
        <time>2015-10-11T10:19:36Z</time>
      </trkpt>
      <trkpt lat="49.99224" lon="5.50461">
        <ele>457</ele>
        <time>2015-10-11T10:19:41Z</time>
      </trkpt>
      <trkpt lat="49.99222" lon="5.50458">
        <ele>456</ele>
        <time>2015-10-11T10:19:47Z</time>
      </trkpt>
      <trkpt lat="49.99221" lon="5.50453">
        <ele>456</ele>
        <time>2015-10-11T10:19:53Z</time>
      </trkpt>
      <trkpt lat="49.9922" lon="5.5045">
        <ele>456</ele>
        <time>2015-10-11T10:19:58Z</time>
      </trkpt>
      <trkpt lat="49.99216" lon="5.50448">
        <ele>456</ele>
        <time>2015-10-11T10:20:04Z</time>
      </trkpt>
      <trkpt lat="49.99213" lon="5.50445">
        <ele>456</ele>
        <time>2015-10-11T10:20:09Z</time>
      </trkpt>
      <trkpt lat="49.99211" lon="5.50441">
        <ele>456</ele>
        <time>2015-10-11T10:20:15Z</time>
      </trkpt>
      <trkpt lat="49.99211" lon="5.50439">
        <ele>456</ele>
        <time>2015-10-11T10:20:21Z</time>
      </trkpt>
      <trkpt lat="49.99209" lon="5.50435">
        <ele>456</ele>
        <time>2015-10-11T10:20:27Z</time>
      </trkpt>
      <trkpt lat="49.99208" lon="5.50431">
        <ele>456</ele>
        <time>2015-10-11T10:20:33Z</time>
      </trkpt>
      <trkpt lat="49.99207" lon="5.50428">
        <ele>456</ele>
        <time>2015-10-11T10:20:38Z</time>
      </trkpt>
      <trkpt lat="49.99204" lon="5.50426">
        <ele>456</ele>
        <time>2015-10-11T10:20:44Z</time>
      </trkpt>
      <trkpt lat="49.99203" lon="5.50424">
        <ele>455</ele>
        <time>2015-10-11T10:20:49Z</time>
      </trkpt>
      <trkpt lat="49.99201" lon="5.50423">
        <ele>455</ele>
        <time>2015-10-11T10:20:54Z</time>
      </trkpt>
      <trkpt lat="49.992" lon="5.5042">
        <ele>455</ele>
        <time>2015-10-11T10:21:00Z</time>
      </trkpt>
      <trkpt lat="49.99201" lon="5.50416">
        <ele>455</ele>
        <time>2015-10-11T10:21:05Z</time>
      </trkpt>
      <trkpt lat="49.992" lon="5.50413">
        <ele>455</ele>
        <time>2015-10-11T10:21:10Z</time>
      </trkpt>
      <trkpt lat="49.99201" lon="5.50407">
        <ele>455</ele>
        <time>2015-10-11T10:21:16Z</time>
      </trkpt>
      <trkpt lat="49.992" lon="5.50401">
        <ele>455</ele>
        <time>2015-10-11T10:21:21Z</time>
      </trkpt>
      <trkpt lat="49.99198" lon="5.50397">
        <ele>454</ele>
        <time>2015-10-11T10:21:27Z</time>
      </trkpt>
      <trkpt lat="49.99197" lon="5.50394">
        <ele>454</ele>
        <time>2015-10-11T10:21:32Z</time>
      </trkpt>
      <trkpt lat="49.99197" lon="5.50393">
        <ele>454</ele>
        <time>2015-10-11T10:21:38Z</time>
      </trkpt>
      <trkpt lat="49.99197" lon="5.50395">
        <ele>454</ele>
        <time>2015-10-11T10:21:43Z</time>
      </trkpt>
      <trkpt lat="49.99196" lon="5.504">
        <ele>454</ele>
        <time>2015-10-11T10:21:49Z</time>
      </trkpt>
      <trkpt lat="49.99195" lon="5.50403">
        <ele>454</ele>
        <time>2015-10-11T10:21:54Z</time>
      </trkpt>
      <trkpt lat="49.99194" lon="5.50406">
        <ele>454</ele>
        <time>2015-10-11T10:21:59Z</time>
      </trkpt>
      <trkpt lat="49.99193" lon="5.50408">
        <ele>454</ele>
        <time>2015-10-11T10:22:04Z</time>
      </trkpt>
      <trkpt lat="49.99193" lon="5.5041">
        <ele>454</ele>
        <time>2015-10-11T10:22:10Z</time>
      </trkpt>
      <trkpt lat="49.99194" lon="5.50411">
        <ele>454</ele>
        <time>2015-10-11T10:22:16Z</time>
      </trkpt>
      <trkpt lat="49.99194" lon="5.50414">
        <ele>454</ele>
        <time>2015-10-11T10:22:22Z</time>
      </trkpt>
      <trkpt lat="49.99194" lon="5.50414">
        <ele>453</ele>
        <time>2015-10-11T10:22:27Z</time>
      </trkpt>
      <trkpt lat="49.99192" lon="5.50414">
        <ele>454</ele>
        <time>2015-10-11T10:22:33Z</time>
      </trkpt>
      <trkpt lat="49.99189" lon="5.50415">
        <ele>453</ele>
        <time>2015-10-11T10:22:39Z</time>
      </trkpt>
      <trkpt lat="49.99186" lon="5.50417">
        <ele>453</ele>
        <time>2015-10-11T10:22:45Z</time>
      </trkpt>
      <trkpt lat="49.99185" lon="5.50419">
        <ele>453</ele>
        <time>2015-10-11T10:22:50Z</time>
      </trkpt>
      <trkpt lat="49.99184" lon="5.50421">
        <ele>453</ele>
        <time>2015-10-11T10:22:56Z</time>
      </trkpt>
      <trkpt lat="49.99183" lon="5.5042">
        <ele>453</ele>
        <time>2015-10-11T10:23:02Z</time>
      </trkpt>
      <trkpt lat="49.9918" lon="5.50419">
        <ele>453</ele>
        <time>2015-10-11T10:23:08Z</time>
      </trkpt>
      <trkpt lat="49.99179" lon="5.50416">
        <ele>453</ele>
        <time>2015-10-11T10:23:13Z</time>
      </trkpt>
      <trkpt lat="49.99176" lon="5.50413">
        <ele>453</ele>
        <time>2015-10-11T10:23:19Z</time>
      </trkpt>
      <trkpt lat="49.99175" lon="5.50409">
        <ele>453</ele>
        <time>2015-10-11T10:23:24Z</time>
      </trkpt>
      <trkpt lat="49.99174" lon="5.50403">
        <ele>453</ele>
        <time>2015-10-11T10:23:30Z</time>
      </trkpt>
      <trkpt lat="49.99171" lon="5.50402">
        <ele>453</ele>
        <time>2015-10-11T10:23:35Z</time>
      </trkpt>
      <trkpt lat="49.99168" lon="5.50401">
        <ele>453</ele>
        <time>2015-10-11T10:23:40Z</time>
      </trkpt>
      <trkpt lat="49.99164" lon="5.50398">
        <ele>453</ele>
        <time>2015-10-11T10:23:46Z</time>
      </trkpt>
      <trkpt lat="49.99164" lon="5.50396">
        <ele>453</ele>
        <time>2015-10-11T10:23:51Z</time>
      </trkpt>
      <trkpt lat="49.99163" lon="5.50393">
        <ele>453</ele>
        <time>2015-10-11T10:23:56Z</time>
      </trkpt>
      <trkpt lat="49.99162" lon="5.5039">
        <ele>453</ele>
        <time>2015-10-11T10:24:02Z</time>
      </trkpt>
      <trkpt lat="49.99161" lon="5.50389">
        <ele>453</ele>
        <time>2015-10-11T10:24:08Z</time>
      </trkpt>
      <trkpt lat="49.99162" lon="5.50387">
        <ele>453</ele>
        <time>2015-10-11T10:24:13Z</time>
      </trkpt>
      <trkpt lat="49.99163" lon="5.50387">
        <ele>453</ele>
        <time>2015-10-11T10:24:18Z</time>
      </trkpt>
      <trkpt lat="49.99163" lon="5.50385">
        <ele>453</ele>
        <time>2015-10-11T10:24:24Z</time>
      </trkpt>
      <trkpt lat="49.99163" lon="5.50385">
        <ele>453</ele>
        <time>2015-10-11T10:24:30Z</time>
      </trkpt>
      <trkpt lat="49.99163" lon="5.50383">
        <ele>453</ele>
        <time>2015-10-11T10:24:35Z</time>
      </trkpt>
      <trkpt lat="49.99163" lon="5.50381">
        <ele>453</ele>
        <time>2015-10-11T10:24:41Z</time>
      </trkpt>
      <trkpt lat="49.9916" lon="5.50376">
        <ele>453</ele>
        <time>2015-10-11T10:24:46Z</time>
      </trkpt>
      <trkpt lat="49.99158" lon="5.5037">
        <ele>453</ele>
        <time>2015-10-11T10:24:51Z</time>
      </trkpt>
      <trkpt lat="49.99157" lon="5.50361">
        <ele>453</ele>
        <time>2015-10-11T10:24:57Z</time>
      </trkpt>
      <trkpt lat="49.99155" lon="5.50354">
        <ele>453</ele>
        <time>2015-10-11T10:25:02Z</time>
      </trkpt>
      <trkpt lat="49.99154" lon="5.50346">
        <ele>453</ele>
        <time>2015-10-11T10:25:07Z</time>
      </trkpt>
      <trkpt lat="49.99153" lon="5.50337">
        <ele>453</ele>
        <time>2015-10-11T10:25:13Z</time>
      </trkpt>
      <trkpt lat="49.99155" lon="5.5033">
        <ele>453</ele>
        <time>2015-10-11T10:25:19Z</time>
      </trkpt>
      <trkpt lat="49.99156" lon="5.50324">
        <ele>453</ele>
        <time>2015-10-11T10:25:25Z</time>
      </trkpt>
      <trkpt lat="49.99157" lon="5.50319">
        <ele>452</ele>
        <time>2015-10-11T10:25:31Z</time>
      </trkpt>
      <trkpt lat="49.99157" lon="5.50317">
        <ele>452</ele>
        <time>2015-10-11T10:25:37Z</time>
      </trkpt>
      <trkpt lat="49.99157" lon="5.50313">
        <ele>452</ele>
        <time>2015-10-11T10:25:42Z</time>
      </trkpt>
      <trkpt lat="49.99156" lon="5.50309">
        <ele>452</ele>
        <time>2015-10-11T10:25:48Z</time>
      </trkpt>
      <trkpt lat="49.99157" lon="5.50304">
        <ele>452</ele>
        <time>2015-10-11T10:25:53Z</time>
      </trkpt>
      <trkpt lat="49.99157" lon="5.50299">
        <ele>451</ele>
        <time>2015-10-11T10:25:59Z</time>
      </trkpt>
      <trkpt lat="49.99158" lon="5.50294">
        <ele>451</ele>
        <time>2015-10-11T10:26:05Z</time>
      </trkpt>
      <trkpt lat="49.99157" lon="5.5029">
        <ele>452</ele>
        <time>2015-10-11T10:26:10Z</time>
      </trkpt>
      <trkpt lat="49.99155" lon="5.50285">
        <ele>452</ele>
        <time>2015-10-11T10:26:16Z</time>
      </trkpt>
      <trkpt lat="49.99155" lon="5.50278">
        <ele>452</ele>
        <time>2015-10-11T10:26:22Z</time>
      </trkpt>
      <trkpt lat="49.99154" lon="5.50274">
        <ele>451</ele>
        <time>2015-10-11T10:26:28Z</time>
      </trkpt>
      <trkpt lat="49.99155" lon="5.50273">
        <ele>452</ele>
        <time>2015-10-11T10:26:34Z</time>
      </trkpt>
      <trkpt lat="49.99154" lon="5.50272">
        <ele>451</ele>
        <time>2015-10-11T10:26:40Z</time>
      </trkpt>
      <trkpt lat="49.99155" lon="5.50268">
        <ele>452</ele>
        <time>2015-10-11T10:26:46Z</time>
      </trkpt>
      <trkpt lat="49.99155" lon="5.50263">
        <ele>451</ele>
        <time>2015-10-11T10:26:51Z</time>
      </trkpt>
      <trkpt lat="49.99155" lon="5.50259">
        <ele>451</ele>
        <time>2015-10-11T10:26:56Z</time>
      </trkpt>
      <trkpt lat="49.99155" lon="5.50253">
        <ele>451</ele>
        <time>2015-10-11T10:27:02Z</time>
      </trkpt>
      <trkpt lat="49.99154" lon="5.50249">
        <ele>451</ele>
        <time>2015-10-11T10:27:07Z</time>
      </trkpt>
      <trkpt lat="49.99154" lon="5.50247">
        <ele>451</ele>
        <time>2015-10-11T10:27:13Z</time>
      </trkpt>
      <trkpt lat="49.99154" lon="5.50247">
        <ele>451</ele>
        <time>2015-10-11T10:27:19Z</time>
      </trkpt>
      <trkpt lat="49.99153" lon="5.50245">
        <ele>451</ele>
        <time>2015-10-11T10:27:24Z</time>
      </trkpt>
      <trkpt lat="49.99153" lon="5.50242">
        <ele>451</ele>
        <time>2015-10-11T10:27:29Z</time>
      </trkpt>
      <trkpt lat="49.99153" lon="5.50238">
        <ele>451</ele>
        <time>2015-10-11T10:27:34Z</time>
      </trkpt>
      <trkpt lat="49.99152" lon="5.50232">
        <ele>451</ele>
        <time>2015-10-11T10:27:40Z</time>
      </trkpt>
      <trkpt lat="49.99152" lon="5.50226">
        <ele>450</ele>
        <time>2015-10-11T10:27:46Z</time>
      </trkpt>
      <trkpt lat="49.99153" lon="5.50222">
        <ele>450</ele>
        <time>2015-10-11T10:27:52Z</time>
      </trkpt>
      <trkpt lat="49.99156" lon="5.50219">
        <ele>450</ele>
        <time>2015-10-11T10:27:58Z</time>
      </trkpt>
      <trkpt lat="49.99159" lon="5.50215">
        <ele>450</ele>
        <time>2015-10-11T10:28:03Z</time>
      </trkpt>
      <trkpt lat="49.9916" lon="5.50209">
        <ele>450</ele>
        <time>2015-10-11T10:28:08Z</time>
      </trkpt>
      <trkpt lat="49.99159" lon="5.50203">
        <ele>450</ele>
        <time>2015-10-11T10:28:14Z</time>
      </trkpt>
      <trkpt lat="49.9916" lon="5.50201">
        <ele>450</ele>
        <time>2015-10-11T10:28:19Z</time>
      </trkpt>
      <trkpt lat="49.9916" lon="5.50196">
        <ele>449</ele>
        <time>2015-10-11T10:28:24Z</time>
      </trkpt>
      <trkpt lat="49.99159" lon="5.50194">
        <ele>450</ele>
        <time>2015-10-11T10:28:30Z</time>
      </trkpt>
      <trkpt lat="49.9916" lon="5.5019">
        <ele>450</ele>
        <time>2015-10-11T10:28:35Z</time>
      </trkpt>
      <trkpt lat="49.9916" lon="5.50188">
        <ele>449</ele>
        <time>2015-10-11T10:28:40Z</time>
      </trkpt>
      <trkpt lat="49.9916" lon="5.50187">
        <ele>449</ele>
        <time>2015-10-11T10:28:46Z</time>
      </trkpt>
      <trkpt lat="49.99159" lon="5.50186">
        <ele>449</ele>
        <time>2015-10-11T10:28:51Z</time>
      </trkpt>
      <trkpt lat="49.9916" lon="5.50188">
        <ele>449</ele>
        <time>2015-10-11T10:28:57Z</time>
      </trkpt>
      <trkpt lat="49.9916" lon="5.50186">
        <ele>449</ele>
        <time>2015-10-11T10:29:02Z</time>
      </trkpt>
      <trkpt lat="49.9916" lon="5.50184">
        <ele>449</ele>
        <time>2015-10-11T10:29:07Z</time>
      </trkpt>
      <trkpt lat="49.9916" lon="5.50184">
        <ele>449</ele>
        <time>2015-10-11T10:29:13Z</time>
      </trkpt>
      <trkpt lat="49.99161" lon="5.50186">
        <ele>449</ele>
        <time>2015-10-11T10:29:18Z</time>
      </trkpt>
      <trkpt lat="49.99162" lon="5.50188">
        <ele>449</ele>
        <time>2015-10-11T10:29:23Z</time>
      </trkpt>
      <trkpt lat="49.9916" lon="5.50187">
        <ele>450</ele>
        <time>2015-10-11T10:29:28Z</time>
      </trkpt>
      <trkpt lat="49.99157" lon="5.50185">
        <ele>449</ele>
        <time>2015-10-11T10:29:34Z</time>
      </trkpt>
      <trkpt lat="49.99154" lon="5.50183">
        <ele>449</ele>
        <time>2015-10-11T10:29:40Z</time>
      </trkpt>
      <trkpt lat="49.99152" lon="5.50182">
        <ele>450</ele>
        <time>2015-10-11T10:29:46Z</time>
      </trkpt>
      <trkpt lat="49.99149" lon="5.50179">
        <ele>449</ele>
        <time>2015-10-11T10:29:52Z</time>
      </trkpt>
      <trkpt lat="49.99146" lon="5.50175">
        <ele>449</ele>
        <time>2015-10-11T10:29:58Z</time>
      </trkpt>
      <trkpt lat="49.99144" lon="5.50174">
        <ele>448</ele>
        <time>2015-10-11T10:30:04Z</time>
      </trkpt>
      <trkpt lat="49.99141" lon="5.50171">
        <ele>449</ele>
        <time>2015-10-11T10:30:10Z</time>
      </trkpt>
      <trkpt lat="49.99137" lon="5.50168">
        <ele>449</ele>
        <time>2015-10-11T10:30:16Z</time>
      </trkpt>
      <trkpt lat="49.99136" lon="5.50164">
        <ele>449</ele>
        <time>2015-10-11T10:30:21Z</time>
      </trkpt>
      <trkpt lat="49.99135" lon="5.50162">
        <ele>449</ele>
        <time>2015-10-11T10:30:27Z</time>
      </trkpt>
      <trkpt lat="49.99133" lon="5.50158">
        <ele>449</ele>
        <time>2015-10-11T10:30:33Z</time>
      </trkpt>
      <trkpt lat="49.9913" lon="5.50154">
        <ele>449</ele>
        <time>2015-10-11T10:30:38Z</time>
      </trkpt>
      <trkpt lat="49.99129" lon="5.50152">
        <ele>449</ele>
        <time>2015-10-11T10:30:43Z</time>
      </trkpt>
      <trkpt lat="49.99128" lon="5.50151">
        <ele>449</ele>
        <time>2015-10-11T10:30:48Z</time>
      </trkpt>
      <trkpt lat="49.99128" lon="5.50149">
        <ele>449</ele>
        <time>2015-10-11T10:30:54Z</time>
      </trkpt>
      <trkpt lat="49.99127" lon="5.50152">
        <ele>449</ele>
        <time>2015-10-11T10:31:00Z</time>
      </trkpt>
      <trkpt lat="49.99125" lon="5.50154">
        <ele>450</ele>
        <time>2015-10-11T10:31:05Z</time>
      </trkpt>
      <trkpt lat="49.99122" lon="5.50158">
        <ele>449</ele>
        <time>2015-10-11T10:31:10Z</time>
      </trkpt>
      <trkpt lat="49.9912" lon="5.50162">
        <ele>449</ele>
        <time>2015-10-11T10:31:15Z</time>
      </trkpt>
      <trkpt lat="49.99117" lon="5.50166">
        <ele>450</ele>
        <time>2015-10-11T10:31:21Z</time>
      </trkpt>
      <trkpt lat="49.99116" lon="5.50167">
        <ele>450</ele>
        <time>2015-10-11T10:31:26Z</time>
      </trkpt>
      <trkpt lat="49.99116" lon="5.50167">
        <ele>451</ele>
        <time>2015-10-11T10:31:31Z</time>
      </trkpt>
      <trkpt lat="49.99115" lon="5.50167">
        <ele>451</ele>
        <time>2015-10-11T10:31:37Z</time>
      </trkpt>
      <trkpt lat="49.99115" lon="5.50167">
        <ele>451</ele>
        <time>2015-10-11T10:31:43Z</time>
      </trkpt>
      <trkpt lat="49.99115" lon="5.50167">
        <ele>451</ele>
        <time>2015-10-11T10:31:48Z</time>
      </trkpt>
      <trkpt lat="49.99115" lon="5.50166">
        <ele>451</ele>
        <time>2015-10-11T10:31:55Z</time>
      </trkpt>
      <trkpt lat="49.99115" lon="5.50166">
        <ele>451</ele>
        <time>2015-10-11T10:32:00Z</time>
      </trkpt>
      <trkpt lat="49.99114" lon="5.50166">
        <ele>451</ele>
        <time>2015-10-11T10:32:05Z</time>
      </trkpt>
      <trkpt lat="49.99114" lon="5.50166">
        <ele>451</ele>
        <time>2015-10-11T10:32:13Z</time>
      </trkpt>
      <trkpt lat="49.99114" lon="5.50167">
        <ele>451</ele>
        <time>2015-10-11T10:32:19Z</time>
      </trkpt>
      <trkpt lat="49.99114" lon="5.50167">
        <ele>451</ele>
        <time>2015-10-11T10:32:24Z</time>
      </trkpt>
      <trkpt lat="49.99114" lon="5.50167">
        <ele>450</ele>
        <time>2015-10-11T10:32:30Z</time>
      </trkpt>
      <trkpt lat="49.99113" lon="5.50166">
        <ele>450</ele>
        <time>2015-10-11T10:32:36Z</time>
      </trkpt>
      <trkpt lat="49.99111" lon="5.50162">
        <ele>451</ele>
        <time>2015-10-11T10:32:41Z</time>
      </trkpt>
      <trkpt lat="49.99108" lon="5.50156">
        <ele>451</ele>
        <time>2015-10-11T10:32:47Z</time>
      </trkpt>
      <trkpt lat="49.99105" lon="5.50151">
        <ele>451</ele>
        <time>2015-10-11T10:32:52Z</time>
      </trkpt>
      <trkpt lat="49.99102" lon="5.50147">
        <ele>451</ele>
        <time>2015-10-11T10:32:58Z</time>
      </trkpt>
      <trkpt lat="49.99099" lon="5.50143">
        <ele>451</ele>
        <time>2015-10-11T10:33:03Z</time>
      </trkpt>
      <trkpt lat="49.99096" lon="5.50137">
        <ele>451</ele>
        <time>2015-10-11T10:33:08Z</time>
      </trkpt>
      <trkpt lat="49.99092" lon="5.50131">
        <ele>451</ele>
        <time>2015-10-11T10:33:14Z</time>
      </trkpt>
      <trkpt lat="49.99091" lon="5.50125">
        <ele>451</ele>
        <time>2015-10-11T10:33:19Z</time>
      </trkpt>
      <trkpt lat="49.99089" lon="5.50118">
        <ele>451</ele>
        <time>2015-10-11T10:33:25Z</time>
      </trkpt>
      <trkpt lat="49.99088" lon="5.50112">
        <ele>451</ele>
        <time>2015-10-11T10:33:31Z</time>
      </trkpt>
      <trkpt lat="49.99089" lon="5.50106">
        <ele>451</ele>
        <time>2015-10-11T10:33:36Z</time>
      </trkpt>
      <trkpt lat="49.99087" lon="5.50098">
        <ele>450</ele>
        <time>2015-10-11T10:33:42Z</time>
      </trkpt>
      <trkpt lat="49.99085" lon="5.50092">
        <ele>450</ele>
        <time>2015-10-11T10:33:47Z</time>
      </trkpt>
      <trkpt lat="49.99082" lon="5.50087">
        <ele>450</ele>
        <time>2015-10-11T10:33:53Z</time>
      </trkpt>
      <trkpt lat="49.99081" lon="5.50082">
        <ele>451</ele>
        <time>2015-10-11T10:33:58Z</time>
      </trkpt>
      <trkpt lat="49.9908" lon="5.50077">
        <ele>451</ele>
        <time>2015-10-11T10:34:04Z</time>
      </trkpt>
      <trkpt lat="49.99077" lon="5.50073">
        <ele>450</ele>
        <time>2015-10-11T10:34:10Z</time>
      </trkpt>
      <trkpt lat="49.99078" lon="5.50069">
        <ele>450</ele>
        <time>2015-10-11T10:34:15Z</time>
      </trkpt>
      <trkpt lat="49.99075" lon="5.50064">
        <ele>450</ele>
        <time>2015-10-11T10:34:21Z</time>
      </trkpt>
      <trkpt lat="49.99074" lon="5.50059">
        <ele>451</ele>
        <time>2015-10-11T10:34:26Z</time>
      </trkpt>
      <trkpt lat="49.99073" lon="5.50055">
        <ele>451</ele>
        <time>2015-10-11T10:34:32Z</time>
      </trkpt>
      <trkpt lat="49.99074" lon="5.50053">
        <ele>451</ele>
        <time>2015-10-11T10:34:38Z</time>
      </trkpt>
      <trkpt lat="49.99076" lon="5.50054">
        <ele>452</ele>
        <time>2015-10-11T10:34:43Z</time>
      </trkpt>
      <trkpt lat="49.99078" lon="5.50057">
        <ele>451</ele>
        <time>2015-10-11T10:34:48Z</time>
      </trkpt>
      <trkpt lat="49.9908" lon="5.50056">
        <ele>450</ele>
        <time>2015-10-11T10:34:53Z</time>
      </trkpt>
      <trkpt lat="49.99079" lon="5.50053">
        <ele>450</ele>
        <time>2015-10-11T10:34:58Z</time>
      </trkpt>
      <trkpt lat="49.99076" lon="5.50052">
        <ele>450</ele>
        <time>2015-10-11T10:35:04Z</time>
      </trkpt>
      <trkpt lat="49.99074" lon="5.5005">
        <ele>451</ele>
        <time>2015-10-11T10:35:09Z</time>
      </trkpt>
      <trkpt lat="49.99075" lon="5.50048">
        <ele>451</ele>
        <time>2015-10-11T10:35:15Z</time>
      </trkpt>
      <trkpt lat="49.99075" lon="5.50048">
        <ele>450</ele>
        <time>2015-10-11T10:35:21Z</time>
      </trkpt>
      <trkpt lat="49.99075" lon="5.50047">
        <ele>451</ele>
        <time>2015-10-11T10:35:26Z</time>
      </trkpt>
      <trkpt lat="49.99078" lon="5.50049">
        <ele>451</ele>
        <time>2015-10-11T10:35:32Z</time>
      </trkpt>
      <trkpt lat="49.99077" lon="5.50048">
        <ele>451</ele>
        <time>2015-10-11T10:35:38Z</time>
      </trkpt>
      <trkpt lat="49.99076" lon="5.50047">
        <ele>451</ele>
        <time>2015-10-11T10:35:43Z</time>
      </trkpt>
      <trkpt lat="49.99072" lon="5.50047">
        <ele>451</ele>
        <time>2015-10-11T10:35:49Z</time>
      </trkpt>
      <trkpt lat="49.9907" lon="5.50046">
        <ele>451</ele>
        <time>2015-10-11T10:35:54Z</time>
      </trkpt>
      <trkpt lat="49.99069" lon="5.50045">
        <ele>451</ele>
        <time>2015-10-11T10:35:59Z</time>
      </trkpt>
      <trkpt lat="49.99068" lon="5.50043">
        <ele>451</ele>
        <time>2015-10-11T10:36:04Z</time>
      </trkpt>
      <trkpt lat="49.99068" lon="5.5004">
        <ele>451</ele>
        <time>2015-10-11T10:36:10Z</time>
      </trkpt>
      <trkpt lat="49.99068" lon="5.50037">
        <ele>451</ele>
        <time>2015-10-11T10:36:16Z</time>
      </trkpt>
      <trkpt lat="49.99066" lon="5.50038">
        <ele>451</ele>
        <time>2015-10-11T10:36:22Z</time>
      </trkpt>
      <trkpt lat="49.99065" lon="5.5004">
        <ele>451</ele>
        <time>2015-10-11T10:36:27Z</time>
      </trkpt>
      <trkpt lat="49.99065" lon="5.50041">
        <ele>451</ele>
        <time>2015-10-11T10:36:33Z</time>
      </trkpt>
      <trkpt lat="49.99066" lon="5.50043">
        <ele>451</ele>
        <time>2015-10-11T10:36:38Z</time>
      </trkpt>
      <trkpt lat="49.99067" lon="5.50044">
        <ele>451</ele>
        <time>2015-10-11T10:36:43Z</time>
      </trkpt>
      <trkpt lat="49.99066" lon="5.50043">
        <ele>451</ele>
        <time>2015-10-11T10:36:49Z</time>
      </trkpt>
      <trkpt lat="49.99064" lon="5.50042">
        <ele>451</ele>
        <time>2015-10-11T10:36:54Z</time>
      </trkpt>
      <trkpt lat="49.99064" lon="5.50042">
        <ele>451</ele>
        <time>2015-10-11T10:37:01Z</time>
      </trkpt>
      <trkpt lat="49.99064" lon="5.50043">
        <ele>452</ele>
        <time>2015-10-11T10:37:06Z</time>
      </trkpt>
      <trkpt lat="49.99063" lon="5.50039">
        <ele>452</ele>
        <time>2015-10-11T10:37:12Z</time>
      </trkpt>
      <trkpt lat="49.99062" lon="5.50036">
        <ele>451</ele>
        <time>2015-10-11T10:37:18Z</time>
      </trkpt>
      <trkpt lat="49.9906" lon="5.50035">
        <ele>451</ele>
        <time>2015-10-11T10:37:23Z</time>
      </trkpt>
      <trkpt lat="49.99058" lon="5.50031">
        <ele>452</ele>
        <time>2015-10-11T10:37:29Z</time>
      </trkpt>
      <trkpt lat="49.99057" lon="5.50028">
        <ele>452</ele>
        <time>2015-10-11T10:37:35Z</time>
      </trkpt>
      <trkpt lat="49.99054" lon="5.50028">
        <ele>452</ele>
        <time>2015-10-11T10:37:40Z</time>
      </trkpt>
      <trkpt lat="49.99054" lon="5.50026">
        <ele>452</ele>
        <time>2015-10-11T10:37:46Z</time>
      </trkpt>
      <trkpt lat="49.99052" lon="5.50023">
        <ele>452</ele>
        <time>2015-10-11T10:37:52Z</time>
      </trkpt>
      <trkpt lat="49.99051" lon="5.50021">
        <ele>451</ele>
        <time>2015-10-11T10:37:58Z</time>
      </trkpt>
      <trkpt lat="49.99051" lon="5.50018">
        <ele>451</ele>
        <time>2015-10-11T10:38:04Z</time>
      </trkpt>
      <trkpt lat="49.9905" lon="5.50015">
        <ele>452</ele>
        <time>2015-10-11T10:38:09Z</time>
      </trkpt>
      <trkpt lat="49.9905" lon="5.50015">
        <ele>452</ele>
        <time>2015-10-11T10:38:15Z</time>
      </trkpt>
      <trkpt lat="49.99048" lon="5.50018">
        <ele>452</ele>
        <time>2015-10-11T10:38:20Z</time>
      </trkpt>
      <trkpt lat="49.99046" lon="5.50017">
        <ele>452</ele>
        <time>2015-10-11T10:38:25Z</time>
      </trkpt>
      <trkpt lat="49.99045" lon="5.50013">
        <ele>452</ele>
        <time>2015-10-11T10:38:31Z</time>
      </trkpt>
      <trkpt lat="49.99044" lon="5.5001">
        <ele>453</ele>
        <time>2015-10-11T10:38:36Z</time>
      </trkpt>
      <trkpt lat="49.99042" lon="5.50006">
        <ele>453</ele>
        <time>2015-10-11T10:38:41Z</time>
      </trkpt>
      <trkpt lat="49.99038" lon="5.50006">
        <ele>453</ele>
        <time>2015-10-11T10:38:47Z</time>
      </trkpt>
      <trkpt lat="49.99037" lon="5.50006">
        <ele>452</ele>
        <time>2015-10-11T10:38:52Z</time>
      </trkpt>
      <trkpt lat="49.99036" lon="5.50008">
        <ele>452</ele>
        <time>2015-10-11T10:38:59Z</time>
      </trkpt>
      <trkpt lat="49.99035" lon="5.50007">
        <ele>452</ele>
        <time>2015-10-11T10:39:04Z</time>
      </trkpt>
      <trkpt lat="49.99035" lon="5.50008">
        <ele>453</ele>
        <time>2015-10-11T10:39:10Z</time>
      </trkpt>
      <trkpt lat="49.99035" lon="5.50008">
        <ele>453</ele>
        <time>2015-10-11T10:39:16Z</time>
      </trkpt>
      <trkpt lat="49.99037" lon="5.50007">
        <ele>453</ele>
        <time>2015-10-11T10:39:22Z</time>
      </trkpt>
      <trkpt lat="49.99039" lon="5.50005">
        <ele>453</ele>
        <time>2015-10-11T10:39:28Z</time>
      </trkpt>
      <trkpt lat="49.99039" lon="5.50003">
        <ele>453</ele>
        <time>2015-10-11T10:39:34Z</time>
      </trkpt>
      <trkpt lat="49.99037" lon="5.49999">
        <ele>453</ele>
        <time>2015-10-11T10:39:39Z</time>
      </trkpt>
      <trkpt lat="49.99034" lon="5.49996">
        <ele>454</ele>
        <time>2015-10-11T10:39:45Z</time>
      </trkpt>
      <trkpt lat="49.99029" lon="5.49995">
        <ele>453</ele>
        <time>2015-10-11T10:39:51Z</time>
      </trkpt>
      <trkpt lat="49.99025" lon="5.49996">
        <ele>454</ele>
        <time>2015-10-11T10:39:57Z</time>
      </trkpt>
      <trkpt lat="49.99019" lon="5.49993">
        <ele>454</ele>
        <time>2015-10-11T10:40:02Z</time>
      </trkpt>
      <trkpt lat="49.99019" lon="5.4999">
        <ele>454</ele>
        <time>2015-10-11T10:40:08Z</time>
      </trkpt>
      <trkpt lat="49.99017" lon="5.49988">
        <ele>454</ele>
        <time>2015-10-11T10:40:13Z</time>
      </trkpt>
      <trkpt lat="49.99013" lon="5.49981">
        <ele>454</ele>
        <time>2015-10-11T10:40:19Z</time>
      </trkpt>
      <trkpt lat="49.9901" lon="5.49976">
        <ele>454</ele>
        <time>2015-10-11T10:40:24Z</time>
      </trkpt>
      <trkpt lat="49.99007" lon="5.4997">
        <ele>455</ele>
        <time>2015-10-11T10:40:30Z</time>
      </trkpt>
      <trkpt lat="49.99003" lon="5.49965">
        <ele>455</ele>
        <time>2015-10-11T10:40:35Z</time>
      </trkpt>
      <trkpt lat="49.98998" lon="5.4996">
        <ele>455</ele>
        <time>2015-10-11T10:40:41Z</time>
      </trkpt>
      <trkpt lat="49.98994" lon="5.49952">
        <ele>455</ele>
        <time>2015-10-11T10:40:47Z</time>
      </trkpt>
      <trkpt lat="49.98991" lon="5.49945">
        <ele>456</ele>
        <time>2015-10-11T10:40:52Z</time>
      </trkpt>
      <trkpt lat="49.98987" lon="5.49939">
        <ele>456</ele>
        <time>2015-10-11T10:40:57Z</time>
      </trkpt>
      <trkpt lat="49.98984" lon="5.49931">
        <ele>457</ele>
        <time>2015-10-11T10:41:03Z</time>
      </trkpt>
      <trkpt lat="49.98983" lon="5.49927">
        <ele>457</ele>
        <time>2015-10-11T10:41:09Z</time>
      </trkpt>
      <trkpt lat="49.9898" lon="5.49919">
        <ele>457</ele>
        <time>2015-10-11T10:41:14Z</time>
      </trkpt>
      <trkpt lat="49.98976" lon="5.49913">
        <ele>458</ele>
        <time>2015-10-11T10:41:19Z</time>
      </trkpt>
      <trkpt lat="49.98971" lon="5.49904">
        <ele>458</ele>
        <time>2015-10-11T10:41:25Z</time>
      </trkpt>
      <trkpt lat="49.98968" lon="5.49898">
        <ele>458</ele>
        <time>2015-10-11T10:41:30Z</time>
      </trkpt>
      <trkpt lat="49.98965" lon="5.49892">
        <ele>458</ele>
        <time>2015-10-11T10:41:35Z</time>
      </trkpt>
      <trkpt lat="49.98962" lon="5.49886">
        <ele>459</ele>
        <time>2015-10-11T10:41:40Z</time>
      </trkpt>
      <trkpt lat="49.98959" lon="5.4988">
        <ele>459</ele>
        <time>2015-10-11T10:41:45Z</time>
      </trkpt>
      <trkpt lat="49.98955" lon="5.49872">
        <ele>460</ele>
        <time>2015-10-11T10:41:51Z</time>
      </trkpt>
      <trkpt lat="49.98952" lon="5.49865">
        <ele>460</ele>
        <time>2015-10-11T10:41:56Z</time>
      </trkpt>
      <trkpt lat="49.98949" lon="5.49858">
        <ele>460</ele>
        <time>2015-10-11T10:42:02Z</time>
      </trkpt>
      <trkpt lat="49.98945" lon="5.49853">
        <ele>460</ele>
        <time>2015-10-11T10:42:07Z</time>
      </trkpt>
      <trkpt lat="49.98941" lon="5.49846">
        <ele>460</ele>
        <time>2015-10-11T10:42:12Z</time>
      </trkpt>
      <trkpt lat="49.98938" lon="5.4984">
        <ele>461</ele>
        <time>2015-10-11T10:42:18Z</time>
      </trkpt>
      <trkpt lat="49.98935" lon="5.49834">
        <ele>461</ele>
        <time>2015-10-11T10:42:23Z</time>
      </trkpt>
      <trkpt lat="49.98933" lon="5.49831">
        <ele>461</ele>
        <time>2015-10-11T10:42:29Z</time>
      </trkpt>
      <trkpt lat="49.9893" lon="5.49827">
        <ele>461</ele>
        <time>2015-10-11T10:42:35Z</time>
      </trkpt>
      <trkpt lat="49.98927" lon="5.49821">
        <ele>461</ele>
        <time>2015-10-11T10:42:41Z</time>
      </trkpt>
      <trkpt lat="49.98923" lon="5.49816">
        <ele>461</ele>
        <time>2015-10-11T10:42:46Z</time>
      </trkpt>
      <trkpt lat="49.98919" lon="5.49809">
        <ele>461</ele>
        <time>2015-10-11T10:42:52Z</time>
      </trkpt>
      <trkpt lat="49.98918" lon="5.49805">
        <ele>461</ele>
        <time>2015-10-11T10:42:57Z</time>
      </trkpt>
      <trkpt lat="49.98916" lon="5.49803">
        <ele>461</ele>
        <time>2015-10-11T10:43:02Z</time>
      </trkpt>
      <trkpt lat="49.98915" lon="5.498">
        <ele>462</ele>
        <time>2015-10-11T10:43:08Z</time>
      </trkpt>
      <trkpt lat="49.98915" lon="5.49799">
        <ele>461</ele>
        <time>2015-10-11T10:43:14Z</time>
      </trkpt>
      <trkpt lat="49.98914" lon="5.49799">
        <ele>461</ele>
        <time>2015-10-11T10:43:19Z</time>
      </trkpt>
      <trkpt lat="49.98913" lon="5.49798">
        <ele>461</ele>
        <time>2015-10-11T10:43:25Z</time>
      </trkpt>
      <trkpt lat="49.98911" lon="5.49793">
        <ele>461</ele>
        <time>2015-10-11T10:43:31Z</time>
      </trkpt>
      <trkpt lat="49.98909" lon="5.4979">
        <ele>461</ele>
        <time>2015-10-11T10:43:37Z</time>
      </trkpt>
      <trkpt lat="49.98907" lon="5.49788">
        <ele>461</ele>
        <time>2015-10-11T10:43:42Z</time>
      </trkpt>
      <trkpt lat="49.98905" lon="5.49782">
        <ele>461</ele>
        <time>2015-10-11T10:43:48Z</time>
      </trkpt>
      <trkpt lat="49.98903" lon="5.49778">
        <ele>461</ele>
        <time>2015-10-11T10:43:53Z</time>
      </trkpt>
      <trkpt lat="49.989" lon="5.49772">
        <ele>460</ele>
        <time>2015-10-11T10:43:58Z</time>
      </trkpt>
      <trkpt lat="49.98898" lon="5.49768">
        <ele>460</ele>
        <time>2015-10-11T10:44:04Z</time>
      </trkpt>
      <trkpt lat="49.98896" lon="5.49763">
        <ele>460</ele>
        <time>2015-10-11T10:44:09Z</time>
      </trkpt>
      <trkpt lat="49.98892" lon="5.49758">
        <ele>460</ele>
        <time>2015-10-11T10:44:14Z</time>
      </trkpt>
      <trkpt lat="49.9889" lon="5.49753">
        <ele>461</ele>
        <time>2015-10-11T10:44:20Z</time>
      </trkpt>
      <trkpt lat="49.98886" lon="5.49748">
        <ele>460</ele>
        <time>2015-10-11T10:44:26Z</time>
      </trkpt>
      <trkpt lat="49.98883" lon="5.49743">
        <ele>460</ele>
        <time>2015-10-11T10:44:31Z</time>
      </trkpt>
      <trkpt lat="49.9888" lon="5.49737">
        <ele>460</ele>
        <time>2015-10-11T10:44:37Z</time>
      </trkpt>
      <trkpt lat="49.98876" lon="5.4973">
        <ele>460</ele>
        <time>2015-10-11T10:44:43Z</time>
      </trkpt>
      <trkpt lat="49.98872" lon="5.49723">
        <ele>459</ele>
        <time>2015-10-11T10:44:49Z</time>
      </trkpt>
      <trkpt lat="49.98869" lon="5.49717">
        <ele>459</ele>
        <time>2015-10-11T10:44:54Z</time>
      </trkpt>
      <trkpt lat="49.98866" lon="5.49709">
        <ele>460</ele>
        <time>2015-10-11T10:44:59Z</time>
      </trkpt>
      <trkpt lat="49.98864" lon="5.49706">
        <ele>460</ele>
        <time>2015-10-11T10:45:05Z</time>
      </trkpt>
      <trkpt lat="49.98859" lon="5.49696">
        <ele>460</ele>
        <time>2015-10-11T10:45:11Z</time>
      </trkpt>
      <trkpt lat="49.98854" lon="5.49689">
        <ele>460</ele>
        <time>2015-10-11T10:45:16Z</time>
      </trkpt>
      <trkpt lat="49.98851" lon="5.49682">
        <ele>460</ele>
        <time>2015-10-11T10:45:22Z</time>
      </trkpt>
      <trkpt lat="49.98846" lon="5.49674">
        <ele>460</ele>
        <time>2015-10-11T10:45:27Z</time>
      </trkpt>
      <trkpt lat="49.98843" lon="5.49667">
        <ele>460</ele>
        <time>2015-10-11T10:45:33Z</time>
      </trkpt>
      <trkpt lat="49.98839" lon="5.4966">
        <ele>460</ele>
        <time>2015-10-11T10:45:38Z</time>
      </trkpt>
      <trkpt lat="49.98836" lon="5.49653">
        <ele>460</ele>
        <time>2015-10-11T10:45:43Z</time>
      </trkpt>
      <trkpt lat="49.98832" lon="5.49644">
        <ele>460</ele>
        <time>2015-10-11T10:45:49Z</time>
      </trkpt>
      <trkpt lat="49.98827" lon="5.49634">
        <ele>460</ele>
        <time>2015-10-11T10:45:55Z</time>
      </trkpt>
      <trkpt lat="49.98824" lon="5.49626">
        <ele>460</ele>
        <time>2015-10-11T10:46:00Z</time>
      </trkpt>
      <trkpt lat="49.98819" lon="5.49618">
        <ele>460</ele>
        <time>2015-10-11T10:46:05Z</time>
      </trkpt>
      <trkpt lat="49.98816" lon="5.49611">
        <ele>460</ele>
        <time>2015-10-11T10:46:11Z</time>
      </trkpt>
      <trkpt lat="49.98812" lon="5.49604">
        <ele>460</ele>
        <time>2015-10-11T10:46:16Z</time>
      </trkpt>
      <trkpt lat="49.98808" lon="5.49594">
        <ele>460</ele>
        <time>2015-10-11T10:46:22Z</time>
      </trkpt>
      <trkpt lat="49.98804" lon="5.49586">
        <ele>460</ele>
        <time>2015-10-11T10:46:28Z</time>
      </trkpt>
      <trkpt lat="49.98801" lon="5.49578">
        <ele>460</ele>
        <time>2015-10-11T10:46:33Z</time>
      </trkpt>
      <trkpt lat="49.98798" lon="5.4957">
        <ele>460</ele>
        <time>2015-10-11T10:46:39Z</time>
      </trkpt>
      <trkpt lat="49.98794" lon="5.49562">
        <ele>460</ele>
        <time>2015-10-11T10:46:45Z</time>
      </trkpt>
      <trkpt lat="49.9879" lon="5.49553">
        <ele>460</ele>
        <time>2015-10-11T10:46:51Z</time>
      </trkpt>
      <trkpt lat="49.98788" lon="5.49545">
        <ele>460</ele>
        <time>2015-10-11T10:46:56Z</time>
      </trkpt>
      <trkpt lat="49.98784" lon="5.49536">
        <ele>461</ele>
        <time>2015-10-11T10:47:01Z</time>
      </trkpt>
      <trkpt lat="49.98781" lon="5.49529">
        <ele>461</ele>
        <time>2015-10-11T10:47:07Z</time>
      </trkpt>
      <trkpt lat="49.98778" lon="5.49522">
        <ele>461</ele>
        <time>2015-10-11T10:47:12Z</time>
      </trkpt>
      <trkpt lat="49.98774" lon="5.49512">
        <ele>460</ele>
        <time>2015-10-11T10:47:17Z</time>
      </trkpt>
      <trkpt lat="49.9877" lon="5.49504">
        <ele>461</ele>
        <time>2015-10-11T10:47:23Z</time>
      </trkpt>
      <trkpt lat="49.98768" lon="5.49497">
        <ele>461</ele>
        <time>2015-10-11T10:47:28Z</time>
      </trkpt>
      <trkpt lat="49.98765" lon="5.49488">
        <ele>460</ele>
        <time>2015-10-11T10:47:34Z</time>
      </trkpt>
      <trkpt lat="49.98763" lon="5.49481">
        <ele>460</ele>
        <time>2015-10-11T10:47:39Z</time>
      </trkpt>
      <trkpt lat="49.9876" lon="5.49474">
        <ele>461</ele>
        <time>2015-10-11T10:47:45Z</time>
      </trkpt>
      <trkpt lat="49.98757" lon="5.49467">
        <ele>461</ele>
        <time>2015-10-11T10:47:50Z</time>
      </trkpt>
      <trkpt lat="49.98753" lon="5.49458">
        <ele>460</ele>
        <time>2015-10-11T10:47:56Z</time>
      </trkpt>
      <trkpt lat="49.98752" lon="5.49453">
        <ele>460</ele>
        <time>2015-10-11T10:48:01Z</time>
      </trkpt>
      <trkpt lat="49.98751" lon="5.49451">
        <ele>461</ele>
        <time>2015-10-11T10:48:07Z</time>
      </trkpt>
      <trkpt lat="49.98746" lon="5.49443">
        <ele>461</ele>
        <time>2015-10-11T10:48:13Z</time>
      </trkpt>
      <trkpt lat="49.98742" lon="5.49434">
        <ele>461</ele>
        <time>2015-10-11T10:48:18Z</time>
      </trkpt>
      <trkpt lat="49.98738" lon="5.49427">
        <ele>461</ele>
        <time>2015-10-11T10:48:24Z</time>
      </trkpt>
      <trkpt lat="49.98734" lon="5.4942">
        <ele>461</ele>
        <time>2015-10-11T10:48:29Z</time>
      </trkpt>
      <trkpt lat="49.98729" lon="5.49413">
        <ele>461</ele>
        <time>2015-10-11T10:48:34Z</time>
      </trkpt>
      <trkpt lat="49.98724" lon="5.49406">
        <ele>461</ele>
        <time>2015-10-11T10:48:40Z</time>
      </trkpt>
      <trkpt lat="49.98719" lon="5.49399">
        <ele>461</ele>
        <time>2015-10-11T10:48:45Z</time>
      </trkpt>
      <trkpt lat="49.98714" lon="5.49392">
        <ele>461</ele>
        <time>2015-10-11T10:48:50Z</time>
      </trkpt>
      <trkpt lat="49.98711" lon="5.49386">
        <ele>460</ele>
        <time>2015-10-11T10:48:56Z</time>
      </trkpt>
      <trkpt lat="49.98706" lon="5.4938">
        <ele>460</ele>
        <time>2015-10-11T10:49:01Z</time>
      </trkpt>
      <trkpt lat="49.98701" lon="5.49375">
        <ele>460</ele>
        <time>2015-10-11T10:49:07Z</time>
      </trkpt>
      <trkpt lat="49.98697" lon="5.49369">
        <ele>460</ele>
        <time>2015-10-11T10:49:12Z</time>
      </trkpt>
      <trkpt lat="49.98693" lon="5.49363">
        <ele>460</ele>
        <time>2015-10-11T10:49:17Z</time>
      </trkpt>
      <trkpt lat="49.98687" lon="5.49355">
        <ele>460</ele>
        <time>2015-10-11T10:49:23Z</time>
      </trkpt>
      <trkpt lat="49.98683" lon="5.49349">
        <ele>460</ele>
        <time>2015-10-11T10:49:28Z</time>
      </trkpt>
      <trkpt lat="49.98678" lon="5.49343">
        <ele>459</ele>
        <time>2015-10-11T10:49:34Z</time>
      </trkpt>
      <trkpt lat="49.98673" lon="5.49338">
        <ele>459</ele>
        <time>2015-10-11T10:49:39Z</time>
      </trkpt>
      <trkpt lat="49.98669" lon="5.49333">
        <ele>460</ele>
        <time>2015-10-11T10:49:44Z</time>
      </trkpt>
      <trkpt lat="49.98664" lon="5.49328">
        <ele>460</ele>
        <time>2015-10-11T10:49:49Z</time>
      </trkpt>
      <trkpt lat="49.98658" lon="5.49321">
        <ele>460</ele>
        <time>2015-10-11T10:49:55Z</time>
      </trkpt>
      <trkpt lat="49.98653" lon="5.49315">
        <ele>459</ele>
        <time>2015-10-11T10:50:01Z</time>
      </trkpt>
      <trkpt lat="49.98649" lon="5.49309">
        <ele>459</ele>
        <time>2015-10-11T10:50:06Z</time>
      </trkpt>
      <trkpt lat="49.98644" lon="5.49304">
        <ele>459</ele>
        <time>2015-10-11T10:50:11Z</time>
      </trkpt>
      <trkpt lat="49.98639" lon="5.49298">
        <ele>459</ele>
        <time>2015-10-11T10:50:17Z</time>
      </trkpt>
      <trkpt lat="49.98633" lon="5.49291">
        <ele>459</ele>
        <time>2015-10-11T10:50:23Z</time>
      </trkpt>
      <trkpt lat="49.98628" lon="5.49286">
        <ele>459</ele>
        <time>2015-10-11T10:50:28Z</time>
      </trkpt>
      <trkpt lat="49.98623" lon="5.4928">
        <ele>459</ele>
        <time>2015-10-11T10:50:33Z</time>
      </trkpt>
      <trkpt lat="49.98618" lon="5.49274">
        <ele>460</ele>
        <time>2015-10-11T10:50:38Z</time>
      </trkpt>
      <trkpt lat="49.98613" lon="5.49268">
        <ele>459</ele>
        <time>2015-10-11T10:50:43Z</time>
      </trkpt>
      <trkpt lat="49.98609" lon="5.49264">
        <ele>460</ele>
        <time>2015-10-11T10:50:50Z</time>
      </trkpt>
      <trkpt lat="49.98605" lon="5.49265">
        <ele>459</ele>
        <time>2015-10-11T10:50:56Z</time>
      </trkpt>
      <trkpt lat="49.98603" lon="5.4926">
        <ele>459</ele>
        <time>2015-10-11T10:51:02Z</time>
      </trkpt>
      <trkpt lat="49.986" lon="5.49254">
        <ele>459</ele>
        <time>2015-10-11T10:51:08Z</time>
      </trkpt>
      <trkpt lat="49.98596" lon="5.49248">
        <ele>460</ele>
        <time>2015-10-11T10:51:13Z</time>
      </trkpt>
      <trkpt lat="49.9859" lon="5.49239">
        <ele>459</ele>
        <time>2015-10-11T10:51:19Z</time>
      </trkpt>
      <trkpt lat="49.98587" lon="5.49234">
        <ele>459</ele>
        <time>2015-10-11T10:51:24Z</time>
      </trkpt>
      <trkpt lat="49.98583" lon="5.49225">
        <ele>460</ele>
        <time>2015-10-11T10:51:30Z</time>
      </trkpt>
      <trkpt lat="49.9858" lon="5.49218">
        <ele>459</ele>
        <time>2015-10-11T10:51:36Z</time>
      </trkpt>
      <trkpt lat="49.98577" lon="5.49213">
        <ele>460</ele>
        <time>2015-10-11T10:51:42Z</time>
      </trkpt>
      <trkpt lat="49.98574" lon="5.49206">
        <ele>460</ele>
        <time>2015-10-11T10:51:47Z</time>
      </trkpt>
      <trkpt lat="49.98571" lon="5.49199">
        <ele>460</ele>
        <time>2015-10-11T10:51:52Z</time>
      </trkpt>
      <trkpt lat="49.98566" lon="5.49191">
        <ele>460</ele>
        <time>2015-10-11T10:51:58Z</time>
      </trkpt>
      <trkpt lat="49.98563" lon="5.49184">
        <ele>461</ele>
        <time>2015-10-11T10:52:04Z</time>
      </trkpt>
      <trkpt lat="49.98559" lon="5.49177">
        <ele>461</ele>
        <time>2015-10-11T10:52:10Z</time>
      </trkpt>
      <trkpt lat="49.98555" lon="5.49169">
        <ele>461</ele>
        <time>2015-10-11T10:52:16Z</time>
      </trkpt>
      <trkpt lat="49.98551" lon="5.49163">
        <ele>461</ele>
        <time>2015-10-11T10:52:21Z</time>
      </trkpt>
      <trkpt lat="49.98546" lon="5.49156">
        <ele>461</ele>
        <time>2015-10-11T10:52:27Z</time>
      </trkpt>
      <trkpt lat="49.98542" lon="5.49149">
        <ele>461</ele>
        <time>2015-10-11T10:52:32Z</time>
      </trkpt>
      <trkpt lat="49.98538" lon="5.49139">
        <ele>462</ele>
        <time>2015-10-11T10:52:38Z</time>
      </trkpt>
      <trkpt lat="49.98533" lon="5.49132">
        <ele>461</ele>
        <time>2015-10-11T10:52:44Z</time>
      </trkpt>
      <trkpt lat="49.98529" lon="5.49125">
        <ele>461</ele>
        <time>2015-10-11T10:52:49Z</time>
      </trkpt>
      <trkpt lat="49.98524" lon="5.49117">
        <ele>461</ele>
        <time>2015-10-11T10:52:55Z</time>
      </trkpt>
      <trkpt lat="49.9852" lon="5.49112">
        <ele>461</ele>
        <time>2015-10-11T10:53:00Z</time>
      </trkpt>
      <trkpt lat="49.98516" lon="5.49103">
        <ele>462</ele>
        <time>2015-10-11T10:53:06Z</time>
      </trkpt>
      <trkpt lat="49.98513" lon="5.49098">
        <ele>462</ele>
        <time>2015-10-11T10:53:11Z</time>
      </trkpt>
      <trkpt lat="49.98508" lon="5.4909">
        <ele>462</ele>
        <time>2015-10-11T10:53:16Z</time>
      </trkpt>
      <trkpt lat="49.98505" lon="5.49084">
        <ele>463</ele>
        <time>2015-10-11T10:53:22Z</time>
      </trkpt>
      <trkpt lat="49.98501" lon="5.49075">
        <ele>463</ele>
        <time>2015-10-11T10:53:28Z</time>
      </trkpt>
      <trkpt lat="49.98496" lon="5.49068">
        <ele>463</ele>
        <time>2015-10-11T10:53:34Z</time>
      </trkpt>
      <trkpt lat="49.98491" lon="5.4906">
        <ele>464</ele>
        <time>2015-10-11T10:53:40Z</time>
      </trkpt>
      <trkpt lat="49.98487" lon="5.49052">
        <ele>464</ele>
        <time>2015-10-11T10:53:45Z</time>
      </trkpt>
      <trkpt lat="49.98484" lon="5.49042">
        <ele>464</ele>
        <time>2015-10-11T10:53:51Z</time>
      </trkpt>
      <trkpt lat="49.98481" lon="5.49034">
        <ele>464</ele>
        <time>2015-10-11T10:53:56Z</time>
      </trkpt>
      <trkpt lat="49.98478" lon="5.49026">
        <ele>464</ele>
        <time>2015-10-11T10:54:01Z</time>
      </trkpt>
      <trkpt lat="49.98475" lon="5.49015">
        <ele>464</ele>
        <time>2015-10-11T10:54:06Z</time>
      </trkpt>
      <trkpt lat="49.98473" lon="5.49006">
        <ele>465</ele>
        <time>2015-10-11T10:54:12Z</time>
      </trkpt>
      <trkpt lat="49.9847" lon="5.48998">
        <ele>465</ele>
        <time>2015-10-11T10:54:18Z</time>
      </trkpt>
      <trkpt lat="49.98465" lon="5.48992">
        <ele>465</ele>
        <time>2015-10-11T10:54:23Z</time>
      </trkpt>
      <trkpt lat="49.98461" lon="5.4899">
        <ele>465</ele>
        <time>2015-10-11T10:54:29Z</time>
      </trkpt>
      <trkpt lat="49.98455" lon="5.48987">
        <ele>464</ele>
        <time>2015-10-11T10:54:34Z</time>
      </trkpt>
      <trkpt lat="49.9845" lon="5.48985">
        <ele>465</ele>
        <time>2015-10-11T10:54:39Z</time>
      </trkpt>
      <trkpt lat="49.98444" lon="5.48982">
        <ele>465</ele>
        <time>2015-10-11T10:54:44Z</time>
      </trkpt>
      <trkpt lat="49.98438" lon="5.4898">
        <ele>465</ele>
        <time>2015-10-11T10:54:50Z</time>
      </trkpt>
      <trkpt lat="49.98432" lon="5.48977">
        <ele>465</ele>
        <time>2015-10-11T10:54:55Z</time>
      </trkpt>
      <trkpt lat="49.98425" lon="5.48973">
        <ele>465</ele>
        <time>2015-10-11T10:55:01Z</time>
      </trkpt>
      <trkpt lat="49.98418" lon="5.48966">
        <ele>465</ele>
        <time>2015-10-11T10:55:06Z</time>
      </trkpt>
      <trkpt lat="49.98414" lon="5.48959">
        <ele>465</ele>
        <time>2015-10-11T10:55:11Z</time>
      </trkpt>
      <trkpt lat="49.9841" lon="5.48952">
        <ele>465</ele>
        <time>2015-10-11T10:55:17Z</time>
      </trkpt>
      <trkpt lat="49.98405" lon="5.48945">
        <ele>464</ele>
        <time>2015-10-11T10:55:22Z</time>
      </trkpt>
      <trkpt lat="49.98402" lon="5.48938">
        <ele>464</ele>
        <time>2015-10-11T10:55:27Z</time>
      </trkpt>
      <trkpt lat="49.98398" lon="5.48928">
        <ele>464</ele>
        <time>2015-10-11T10:55:33Z</time>
      </trkpt>
      <trkpt lat="49.98395" lon="5.4892">
        <ele>464</ele>
        <time>2015-10-11T10:55:38Z</time>
      </trkpt>
      <trkpt lat="49.98392" lon="5.48913">
        <ele>464</ele>
        <time>2015-10-11T10:55:44Z</time>
      </trkpt>
      <trkpt lat="49.98391" lon="5.48905">
        <ele>464</ele>
        <time>2015-10-11T10:55:49Z</time>
      </trkpt>
      <trkpt lat="49.98387" lon="5.48896">
        <ele>464</ele>
        <time>2015-10-11T10:55:55Z</time>
      </trkpt>
      <trkpt lat="49.98383" lon="5.48887">
        <ele>464</ele>
        <time>2015-10-11T10:56:00Z</time>
      </trkpt>
      <trkpt lat="49.9838" lon="5.48879">
        <ele>463</ele>
        <time>2015-10-11T10:56:06Z</time>
      </trkpt>
      <trkpt lat="49.98377" lon="5.48872">
        <ele>463</ele>
        <time>2015-10-11T10:56:11Z</time>
      </trkpt>
      <trkpt lat="49.98374" lon="5.48862">
        <ele>463</ele>
        <time>2015-10-11T10:56:17Z</time>
      </trkpt>
      <trkpt lat="49.98371" lon="5.48855">
        <ele>463</ele>
        <time>2015-10-11T10:56:22Z</time>
      </trkpt>
      <trkpt lat="49.98367" lon="5.48846">
        <ele>463</ele>
        <time>2015-10-11T10:56:28Z</time>
      </trkpt>
      <trkpt lat="49.98365" lon="5.48839">
        <ele>463</ele>
        <time>2015-10-11T10:56:34Z</time>
      </trkpt>
      <trkpt lat="49.98364" lon="5.48837">
        <ele>463</ele>
        <time>2015-10-11T10:56:39Z</time>
      </trkpt>
      <trkpt lat="49.98364" lon="5.48837">
        <ele>463</ele>
        <time>2015-10-11T10:56:45Z</time>
      </trkpt>
      <trkpt lat="49.98363" lon="5.48835">
        <ele>462</ele>
        <time>2015-10-11T10:56:50Z</time>
      </trkpt>
      <trkpt lat="49.9836" lon="5.48826">
        <ele>463</ele>
        <time>2015-10-11T10:56:56Z</time>
      </trkpt>
      <trkpt lat="49.98358" lon="5.48822">
        <ele>462</ele>
        <time>2015-10-11T10:57:04Z</time>
      </trkpt>
      <trkpt lat="49.98354" lon="5.48813">
        <ele>461</ele>
        <time>2015-10-11T10:57:10Z</time>
      </trkpt>
      <trkpt lat="49.98351" lon="5.48804">
        <ele>461</ele>
        <time>2015-10-11T10:57:15Z</time>
      </trkpt>
      <trkpt lat="49.98349" lon="5.48796">
        <ele>461</ele>
        <time>2015-10-11T10:57:20Z</time>
      </trkpt>
      <trkpt lat="49.98347" lon="5.48791">
        <ele>461</ele>
        <time>2015-10-11T10:57:26Z</time>
      </trkpt>
      <trkpt lat="49.98344" lon="5.48785">
        <ele>461</ele>
        <time>2015-10-11T10:57:31Z</time>
      </trkpt>
      <trkpt lat="49.9834" lon="5.48777">
        <ele>460</ele>
        <time>2015-10-11T10:57:37Z</time>
      </trkpt>
      <trkpt lat="49.98335" lon="5.48769">
        <ele>460</ele>
        <time>2015-10-11T10:57:43Z</time>
      </trkpt>
      <trkpt lat="49.98331" lon="5.48763">
        <ele>460</ele>
        <time>2015-10-11T10:57:48Z</time>
      </trkpt>
      <trkpt lat="49.9833" lon="5.48761">
        <ele>459</ele>
        <time>2015-10-11T10:57:53Z</time>
      </trkpt>
      <trkpt lat="49.98326" lon="5.48755">
        <ele>459</ele>
        <time>2015-10-11T10:57:59Z</time>
      </trkpt>
      <trkpt lat="49.98321" lon="5.48748">
        <ele>459</ele>
        <time>2015-10-11T10:58:05Z</time>
      </trkpt>
      <trkpt lat="49.98317" lon="5.48742">
        <ele>459</ele>
        <time>2015-10-11T10:58:10Z</time>
      </trkpt>
      <trkpt lat="49.98313" lon="5.48736">
        <ele>458</ele>
        <time>2015-10-11T10:58:15Z</time>
      </trkpt>
      <trkpt lat="49.98309" lon="5.4873">
        <ele>458</ele>
        <time>2015-10-11T10:58:20Z</time>
      </trkpt>
      <trkpt lat="49.98304" lon="5.48723">
        <ele>458</ele>
        <time>2015-10-11T10:58:26Z</time>
      </trkpt>
      <trkpt lat="49.98299" lon="5.48714">
        <ele>457</ele>
        <time>2015-10-11T10:58:32Z</time>
      </trkpt>
      <trkpt lat="49.98295" lon="5.48705">
        <ele>457</ele>
        <time>2015-10-11T10:58:38Z</time>
      </trkpt>
      <trkpt lat="49.98292" lon="5.48695">
        <ele>457</ele>
        <time>2015-10-11T10:58:44Z</time>
      </trkpt>
      <trkpt lat="49.98291" lon="5.48686">
        <ele>457</ele>
        <time>2015-10-11T10:58:49Z</time>
      </trkpt>
      <trkpt lat="49.98291" lon="5.48677">
        <ele>458</ele>
        <time>2015-10-11T10:58:54Z</time>
      </trkpt>
      <trkpt lat="49.98292" lon="5.48667">
        <ele>458</ele>
        <time>2015-10-11T10:59:00Z</time>
      </trkpt>
      <trkpt lat="49.98294" lon="5.48658">
        <ele>457</ele>
        <time>2015-10-11T10:59:05Z</time>
      </trkpt>
      <trkpt lat="49.98295" lon="5.48647">
        <ele>457</ele>
        <time>2015-10-11T10:59:11Z</time>
      </trkpt>
      <trkpt lat="49.98295" lon="5.48642">
        <ele>456</ele>
        <time>2015-10-11T10:59:16Z</time>
      </trkpt>
      <trkpt lat="49.98294" lon="5.48637">
        <ele>456</ele>
        <time>2015-10-11T10:59:22Z</time>
      </trkpt>
      <trkpt lat="49.98291" lon="5.48628">
        <ele>456</ele>
        <time>2015-10-11T10:59:28Z</time>
      </trkpt>
      <trkpt lat="49.98288" lon="5.48621">
        <ele>455</ele>
        <time>2015-10-11T10:59:33Z</time>
      </trkpt>
      <trkpt lat="49.98283" lon="5.48611">
        <ele>455</ele>
        <time>2015-10-11T10:59:38Z</time>
      </trkpt>
      <trkpt lat="49.9828" lon="5.48603">
        <ele>455</ele>
        <time>2015-10-11T10:59:44Z</time>
      </trkpt>
      <trkpt lat="49.98276" lon="5.48595">
        <ele>454</ele>
        <time>2015-10-11T10:59:49Z</time>
      </trkpt>
      <trkpt lat="49.98271" lon="5.48586">
        <ele>454</ele>
        <time>2015-10-11T10:59:55Z</time>
      </trkpt>
      <trkpt lat="49.98267" lon="5.4858">
        <ele>454</ele>
        <time>2015-10-11T11:00:00Z</time>
      </trkpt>
      <trkpt lat="49.98262" lon="5.48576">
        <ele>453</ele>
        <time>2015-10-11T11:00:06Z</time>
      </trkpt>
      <trkpt lat="49.98255" lon="5.48579">
        <ele>453</ele>
        <time>2015-10-11T11:00:11Z</time>
      </trkpt>
      <trkpt lat="49.9825" lon="5.48582">
        <ele>453</ele>
        <time>2015-10-11T11:00:16Z</time>
      </trkpt>
      <trkpt lat="49.98244" lon="5.48583">
        <ele>453</ele>
        <time>2015-10-11T11:00:22Z</time>
      </trkpt>
      <trkpt lat="49.98246" lon="5.48574">
        <ele>452</ele>
        <time>2015-10-11T11:00:28Z</time>
      </trkpt>
      <trkpt lat="49.9825" lon="5.48566">
        <ele>452</ele>
        <time>2015-10-11T11:00:34Z</time>
      </trkpt>
      <trkpt lat="49.98254" lon="5.48559">
        <ele>451</ele>
        <time>2015-10-11T11:00:39Z</time>
      </trkpt>
      <trkpt lat="49.98258" lon="5.48552">
        <ele>451</ele>
        <time>2015-10-11T11:00:44Z</time>
      </trkpt>
      <trkpt lat="49.98262" lon="5.48546">
        <ele>451</ele>
        <time>2015-10-11T11:00:50Z</time>
      </trkpt>
      <trkpt lat="49.98266" lon="5.48538">
        <ele>450</ele>
        <time>2015-10-11T11:00:56Z</time>
      </trkpt>
      <trkpt lat="49.9827" lon="5.4853">
        <ele>450</ele>
        <time>2015-10-11T11:01:02Z</time>
      </trkpt>
      <trkpt lat="49.98274" lon="5.48523">
        <ele>449</ele>
        <time>2015-10-11T11:01:08Z</time>
      </trkpt>
      <trkpt lat="49.98278" lon="5.48515">
        <ele>448</ele>
        <time>2015-10-11T11:01:13Z</time>
      </trkpt>
      <trkpt lat="49.98282" lon="5.48508">
        <ele>448</ele>
        <time>2015-10-11T11:01:19Z</time>
      </trkpt>
      <trkpt lat="49.98287" lon="5.48498">
        <ele>447</ele>
        <time>2015-10-11T11:01:25Z</time>
      </trkpt>
      <trkpt lat="49.98292" lon="5.48489">
        <ele>447</ele>
        <time>2015-10-11T11:01:31Z</time>
      </trkpt>
      <trkpt lat="49.98296" lon="5.4848">
        <ele>447</ele>
        <time>2015-10-11T11:01:37Z</time>
      </trkpt>
      <trkpt lat="49.98299" lon="5.48472">
        <ele>447</ele>
        <time>2015-10-11T11:01:42Z</time>
      </trkpt>
      <trkpt lat="49.98303" lon="5.48462">
        <ele>447</ele>
        <time>2015-10-11T11:01:48Z</time>
      </trkpt>
      <trkpt lat="49.98306" lon="5.48452">
        <ele>447</ele>
        <time>2015-10-11T11:01:54Z</time>
      </trkpt>
      <trkpt lat="49.98308" lon="5.48443">
        <ele>447</ele>
        <time>2015-10-11T11:01:59Z</time>
      </trkpt>
      <trkpt lat="49.98309" lon="5.48434">
        <ele>446</ele>
        <time>2015-10-11T11:02:04Z</time>
      </trkpt>
      <trkpt lat="49.98311" lon="5.48426">
        <ele>446</ele>
        <time>2015-10-11T11:02:09Z</time>
      </trkpt>
      <trkpt lat="49.98312" lon="5.48417">
        <ele>446</ele>
        <time>2015-10-11T11:02:14Z</time>
      </trkpt>
      <trkpt lat="49.98313" lon="5.48408">
        <ele>447</ele>
        <time>2015-10-11T11:02:20Z</time>
      </trkpt>
      <trkpt lat="49.98313" lon="5.48404">
        <ele>447</ele>
        <time>2015-10-11T11:02:25Z</time>
      </trkpt>
      <trkpt lat="49.98314" lon="5.48396">
        <ele>448</ele>
        <time>2015-10-11T11:02:30Z</time>
      </trkpt>
      <trkpt lat="49.98314" lon="5.48388">
        <ele>449</ele>
        <time>2015-10-11T11:02:35Z</time>
      </trkpt>
      <trkpt lat="49.98314" lon="5.48381">
        <ele>449</ele>
        <time>2015-10-11T11:02:40Z</time>
      </trkpt>
      <trkpt lat="49.98314" lon="5.48373">
        <ele>450</ele>
        <time>2015-10-11T11:02:45Z</time>
      </trkpt>
      <trkpt lat="49.98314" lon="5.48366">
        <ele>450</ele>
        <time>2015-10-11T11:02:51Z</time>
      </trkpt>
      <trkpt lat="49.98313" lon="5.48357">
        <ele>450</ele>
        <time>2015-10-11T11:02:57Z</time>
      </trkpt>
      <trkpt lat="49.98312" lon="5.48348">
        <ele>450</ele>
        <time>2015-10-11T11:03:02Z</time>
      </trkpt>
      <trkpt lat="49.98313" lon="5.4834">
        <ele>450</ele>
        <time>2015-10-11T11:03:08Z</time>
      </trkpt>
      <trkpt lat="49.98313" lon="5.48329">
        <ele>450</ele>
        <time>2015-10-11T11:03:14Z</time>
      </trkpt>
      <trkpt lat="49.98314" lon="5.48318">
        <ele>450</ele>
        <time>2015-10-11T11:03:20Z</time>
      </trkpt>
      <trkpt lat="49.98314" lon="5.48307">
        <ele>449</ele>
        <time>2015-10-11T11:03:26Z</time>
      </trkpt>
      <trkpt lat="49.98314" lon="5.48298">
        <ele>449</ele>
        <time>2015-10-11T11:03:31Z</time>
      </trkpt>
      <trkpt lat="49.98314" lon="5.48293">
        <ele>449</ele>
        <time>2015-10-11T11:03:36Z</time>
      </trkpt>
      <trkpt lat="49.98314" lon="5.4829">
        <ele>449</ele>
        <time>2015-10-11T11:03:42Z</time>
      </trkpt>
      <trkpt lat="49.98313" lon="5.48288">
        <ele>449</ele>
        <time>2015-10-11T11:03:47Z</time>
      </trkpt>
      <trkpt lat="49.98313" lon="5.48287">
        <ele>449</ele>
        <time>2015-10-11T11:03:52Z</time>
      </trkpt>
      <trkpt lat="49.98313" lon="5.48285">
        <ele>450</ele>
        <time>2015-10-11T11:03:58Z</time>
      </trkpt>
      <trkpt lat="49.98314" lon="5.48281">
        <ele>449</ele>
        <time>2015-10-11T11:04:04Z</time>
      </trkpt>
      <trkpt lat="49.98315" lon="5.48278">
        <ele>449</ele>
        <time>2015-10-11T11:04:10Z</time>
      </trkpt>
      <trkpt lat="49.98318" lon="5.48272">
        <ele>449</ele>
        <time>2015-10-11T11:04:16Z</time>
      </trkpt>
      <trkpt lat="49.9832" lon="5.48266">
        <ele>449</ele>
        <time>2015-10-11T11:04:21Z</time>
      </trkpt>
      <trkpt lat="49.98321" lon="5.48258">
        <ele>449</ele>
        <time>2015-10-11T11:04:26Z</time>
      </trkpt>
      <trkpt lat="49.98323" lon="5.4825">
        <ele>448</ele>
        <time>2015-10-11T11:04:31Z</time>
      </trkpt>
      <trkpt lat="49.98324" lon="5.48242">
        <ele>449</ele>
        <time>2015-10-11T11:04:37Z</time>
      </trkpt>
      <trkpt lat="49.98325" lon="5.48231">
        <ele>449</ele>
        <time>2015-10-11T11:04:43Z</time>
      </trkpt>
      <trkpt lat="49.98326" lon="5.48223">
        <ele>448</ele>
        <time>2015-10-11T11:04:48Z</time>
      </trkpt>
      <trkpt lat="49.98326" lon="5.48215">
        <ele>448</ele>
        <time>2015-10-11T11:04:54Z</time>
      </trkpt>
      <trkpt lat="49.98328" lon="5.48205">
        <ele>448</ele>
        <time>2015-10-11T11:05:00Z</time>
      </trkpt>
      <trkpt lat="49.9833" lon="5.48196">
        <ele>448</ele>
        <time>2015-10-11T11:05:05Z</time>
      </trkpt>
      <trkpt lat="49.98333" lon="5.48185">
        <ele>448</ele>
        <time>2015-10-11T11:05:11Z</time>
      </trkpt>
      <trkpt lat="49.98336" lon="5.48179">
        <ele>447</ele>
        <time>2015-10-11T11:05:16Z</time>
      </trkpt>
      <trkpt lat="49.98338" lon="5.48172">
        <ele>447</ele>
        <time>2015-10-11T11:05:22Z</time>
      </trkpt>
      <trkpt lat="49.98339" lon="5.48165">
        <ele>447</ele>
        <time>2015-10-11T11:05:28Z</time>
      </trkpt>
      <trkpt lat="49.9834" lon="5.48158">
        <ele>447</ele>
        <time>2015-10-11T11:05:34Z</time>
      </trkpt>
      <trkpt lat="49.98341" lon="5.48151">
        <ele>447</ele>
        <time>2015-10-11T11:05:40Z</time>
      </trkpt>
      <trkpt lat="49.98342" lon="5.48144">
        <ele>447</ele>
        <time>2015-10-11T11:05:45Z</time>
      </trkpt>
      <trkpt lat="49.98343" lon="5.48138">
        <ele>447</ele>
        <time>2015-10-11T11:05:50Z</time>
      </trkpt>
      <trkpt lat="49.98343" lon="5.48134">
        <ele>447</ele>
        <time>2015-10-11T11:05:55Z</time>
      </trkpt>
      <trkpt lat="49.98342" lon="5.48128">
        <ele>447</ele>
        <time>2015-10-11T11:06:00Z</time>
      </trkpt>
      <trkpt lat="49.98338" lon="5.48125">
        <ele>446</ele>
        <time>2015-10-11T11:06:06Z</time>
      </trkpt>
      <trkpt lat="49.98335" lon="5.48121">
        <ele>445</ele>
        <time>2015-10-11T11:06:11Z</time>
      </trkpt>
      <trkpt lat="49.98331" lon="5.48117">
        <ele>445</ele>
        <time>2015-10-11T11:06:17Z</time>
      </trkpt>
      <trkpt lat="49.98328" lon="5.48115">
        <ele>444</ele>
        <time>2015-10-11T11:06:22Z</time>
      </trkpt>
      <trkpt lat="49.98325" lon="5.48111">
        <ele>443</ele>
        <time>2015-10-11T11:06:27Z</time>
      </trkpt>
      <trkpt lat="49.98324" lon="5.48109">
        <ele>443</ele>
        <time>2015-10-11T11:06:32Z</time>
      </trkpt>
      <trkpt lat="49.98323" lon="5.48108">
        <ele>443</ele>
        <time>2015-10-11T11:06:38Z</time>
      </trkpt>
      <trkpt lat="49.98323" lon="5.4811">
        <ele>443</ele>
        <time>2015-10-11T11:06:44Z</time>
      </trkpt>
      <trkpt lat="49.98324" lon="5.48111">
        <ele>443</ele>
        <time>2015-10-11T11:06:49Z</time>
      </trkpt>
      <trkpt lat="49.98327" lon="5.48111">
        <ele>444</ele>
        <time>2015-10-11T11:06:55Z</time>
      </trkpt>
      <trkpt lat="49.9833" lon="5.48113">
        <ele>445</ele>
        <time>2015-10-11T11:07:01Z</time>
      </trkpt>
      <trkpt lat="49.98333" lon="5.48115">
        <ele>446</ele>
        <time>2015-10-11T11:07:07Z</time>
      </trkpt>
      <trkpt lat="49.98338" lon="5.48115">
        <ele>447</ele>
        <time>2015-10-11T11:07:12Z</time>
      </trkpt>
      <trkpt lat="49.98343" lon="5.48112">
        <ele>447</ele>
        <time>2015-10-11T11:07:18Z</time>
      </trkpt>
      <trkpt lat="49.98347" lon="5.48109">
        <ele>446</ele>
        <time>2015-10-11T11:07:23Z</time>
      </trkpt>
      <trkpt lat="49.98352" lon="5.48105">
        <ele>445</ele>
        <time>2015-10-11T11:07:29Z</time>
      </trkpt>
      <trkpt lat="49.98356" lon="5.48099">
        <ele>445</ele>
        <time>2015-10-11T11:07:34Z</time>
      </trkpt>
      <trkpt lat="49.98361" lon="5.48094">
        <ele>444</ele>
        <time>2015-10-11T11:07:40Z</time>
      </trkpt>
      <trkpt lat="49.98362" lon="5.48088">
        <ele>443</ele>
        <time>2015-10-11T11:07:46Z</time>
      </trkpt>
      <trkpt lat="49.98363" lon="5.4808">
        <ele>443</ele>
        <time>2015-10-11T11:07:51Z</time>
      </trkpt>
      <trkpt lat="49.98364" lon="5.48072">
        <ele>442</ele>
        <time>2015-10-11T11:07:57Z</time>
      </trkpt>
      <trkpt lat="49.98364" lon="5.48062">
        <ele>441</ele>
        <time>2015-10-11T11:08:03Z</time>
      </trkpt>
      <trkpt lat="49.98364" lon="5.48056">
        <ele>441</ele>
        <time>2015-10-11T11:08:09Z</time>
      </trkpt>
      <trkpt lat="49.98365" lon="5.4805">
        <ele>441</ele>
        <time>2015-10-11T11:08:14Z</time>
      </trkpt>
      <trkpt lat="49.98364" lon="5.48043">
        <ele>441</ele>
        <time>2015-10-11T11:08:21Z</time>
      </trkpt>
      <trkpt lat="49.98365" lon="5.48034">
        <ele>440</ele>
        <time>2015-10-11T11:08:26Z</time>
      </trkpt>
      <trkpt lat="49.98365" lon="5.48026">
        <ele>440</ele>
        <time>2015-10-11T11:08:32Z</time>
      </trkpt>
      <trkpt lat="49.98367" lon="5.48016">
        <ele>440</ele>
        <time>2015-10-11T11:08:37Z</time>
      </trkpt>
      <trkpt lat="49.98368" lon="5.48009">
        <ele>439</ele>
        <time>2015-10-11T11:08:42Z</time>
      </trkpt>
      <trkpt lat="49.9837" lon="5.48003">
        <ele>439</ele>
        <time>2015-10-11T11:08:48Z</time>
      </trkpt>
      <trkpt lat="49.98372" lon="5.47994">
        <ele>438</ele>
        <time>2015-10-11T11:08:53Z</time>
      </trkpt>
      <trkpt lat="49.98374" lon="5.47986">
        <ele>438</ele>
        <time>2015-10-11T11:08:58Z</time>
      </trkpt>
      <trkpt lat="49.98376" lon="5.47978">
        <ele>437</ele>
        <time>2015-10-11T11:09:04Z</time>
      </trkpt>
      <trkpt lat="49.9838" lon="5.4797">
        <ele>437</ele>
        <time>2015-10-11T11:09:09Z</time>
      </trkpt>
      <trkpt lat="49.98383" lon="5.47958">
        <ele>437</ele>
        <time>2015-10-11T11:09:14Z</time>
      </trkpt>
      <trkpt lat="49.98387" lon="5.47947">
        <ele>436</ele>
        <time>2015-10-11T11:09:21Z</time>
      </trkpt>
      <trkpt lat="49.98389" lon="5.47942">
        <ele>436</ele>
        <time>2015-10-11T11:09:26Z</time>
      </trkpt>
      <trkpt lat="49.98393" lon="5.47933">
        <ele>436</ele>
        <time>2015-10-11T11:09:31Z</time>
      </trkpt>
      <trkpt lat="49.98398" lon="5.47925">
        <ele>435</ele>
        <time>2015-10-11T11:09:37Z</time>
      </trkpt>
      <trkpt lat="49.98402" lon="5.47919">
        <ele>434</ele>
        <time>2015-10-11T11:09:43Z</time>
      </trkpt>
      <trkpt lat="49.98407" lon="5.47913">
        <ele>434</ele>
        <time>2015-10-11T11:09:48Z</time>
      </trkpt>
      <trkpt lat="49.98412" lon="5.47905">
        <ele>434</ele>
        <time>2015-10-11T11:09:53Z</time>
      </trkpt>
      <trkpt lat="49.98418" lon="5.47901">
        <ele>433</ele>
        <time>2015-10-11T11:09:58Z</time>
      </trkpt>
      <trkpt lat="49.98424" lon="5.47894">
        <ele>433</ele>
        <time>2015-10-11T11:10:04Z</time>
      </trkpt>
      <trkpt lat="49.98429" lon="5.47886">
        <ele>432</ele>
        <time>2015-10-11T11:10:10Z</time>
      </trkpt>
      <trkpt lat="49.98435" lon="5.47877">
        <ele>432</ele>
        <time>2015-10-11T11:10:16Z</time>
      </trkpt>
      <trkpt lat="49.9844" lon="5.47869">
        <ele>431</ele>
        <time>2015-10-11T11:10:21Z</time>
      </trkpt>
      <trkpt lat="49.98446" lon="5.47862">
        <ele>430</ele>
        <time>2015-10-11T11:10:28Z</time>
      </trkpt>
      <trkpt lat="49.98452" lon="5.47855">
        <ele>429</ele>
        <time>2015-10-11T11:10:33Z</time>
      </trkpt>
      <trkpt lat="49.98458" lon="5.47848">
        <ele>429</ele>
        <time>2015-10-11T11:10:39Z</time>
      </trkpt>
      <trkpt lat="49.98464" lon="5.4784">
        <ele>428</ele>
        <time>2015-10-11T11:10:45Z</time>
      </trkpt>
      <trkpt lat="49.98469" lon="5.47834">
        <ele>427</ele>
        <time>2015-10-11T11:10:52Z</time>
      </trkpt>
      <trkpt lat="49.98474" lon="5.47826">
        <ele>427</ele>
        <time>2015-10-11T11:10:58Z</time>
      </trkpt>
      <trkpt lat="49.98478" lon="5.47821">
        <ele>427</ele>
        <time>2015-10-11T11:11:04Z</time>
      </trkpt>
      <trkpt lat="49.98481" lon="5.47818">
        <ele>427</ele>
        <time>2015-10-11T11:11:10Z</time>
      </trkpt>
      <trkpt lat="49.98488" lon="5.47812">
        <ele>426</ele>
        <time>2015-10-11T11:11:15Z</time>
      </trkpt>
      <trkpt lat="49.98494" lon="5.47805">
        <ele>426</ele>
        <time>2015-10-11T11:11:22Z</time>
      </trkpt>
      <trkpt lat="49.985" lon="5.47799">
        <ele>425</ele>
        <time>2015-10-11T11:11:28Z</time>
      </trkpt>
      <trkpt lat="49.98506" lon="5.47792">
        <ele>425</ele>
        <time>2015-10-11T11:11:33Z</time>
      </trkpt>
      <trkpt lat="49.98512" lon="5.47786">
        <ele>424</ele>
        <time>2015-10-11T11:11:39Z</time>
      </trkpt>
      <trkpt lat="49.98516" lon="5.47779">
        <ele>423</ele>
        <time>2015-10-11T11:11:45Z</time>
      </trkpt>
      <trkpt lat="49.98522" lon="5.47772">
        <ele>423</ele>
        <time>2015-10-11T11:11:50Z</time>
      </trkpt>
      <trkpt lat="49.98527" lon="5.47766">
        <ele>422</ele>
        <time>2015-10-11T11:11:56Z</time>
      </trkpt>
      <trkpt lat="49.98532" lon="5.4776">
        <ele>422</ele>
        <time>2015-10-11T11:12:02Z</time>
      </trkpt>
      <trkpt lat="49.98536" lon="5.47754">
        <ele>421</ele>
        <time>2015-10-11T11:12:07Z</time>
      </trkpt>
      <trkpt lat="49.9854" lon="5.47748">
        <ele>420</ele>
        <time>2015-10-11T11:12:12Z</time>
      </trkpt>
      <trkpt lat="49.98544" lon="5.47743">
        <ele>420</ele>
        <time>2015-10-11T11:12:18Z</time>
      </trkpt>
      <trkpt lat="49.9855" lon="5.47739">
        <ele>420</ele>
        <time>2015-10-11T11:12:23Z</time>
      </trkpt>
      <trkpt lat="49.98555" lon="5.47733">
        <ele>419</ele>
        <time>2015-10-11T11:12:29Z</time>
      </trkpt>
      <trkpt lat="49.9856" lon="5.47724">
        <ele>419</ele>
        <time>2015-10-11T11:12:34Z</time>
      </trkpt>
      <trkpt lat="49.98564" lon="5.47717">
        <ele>418</ele>
        <time>2015-10-11T11:12:40Z</time>
      </trkpt>
      <trkpt lat="49.98569" lon="5.47708">
        <ele>417</ele>
        <time>2015-10-11T11:12:45Z</time>
      </trkpt>
      <trkpt lat="49.98574" lon="5.47702">
        <ele>417</ele>
        <time>2015-10-11T11:12:51Z</time>
      </trkpt>
      <trkpt lat="49.98579" lon="5.47695">
        <ele>417</ele>
        <time>2015-10-11T11:12:56Z</time>
      </trkpt>
      <trkpt lat="49.98583" lon="5.47688">
        <ele>417</ele>
        <time>2015-10-11T11:13:01Z</time>
      </trkpt>
      <trkpt lat="49.98587" lon="5.47682">
        <ele>416</ele>
        <time>2015-10-11T11:13:07Z</time>
      </trkpt>
      <trkpt lat="49.98592" lon="5.47676">
        <ele>416</ele>
        <time>2015-10-11T11:13:12Z</time>
      </trkpt>
      <trkpt lat="49.98596" lon="5.4767">
        <ele>415</ele>
        <time>2015-10-11T11:13:17Z</time>
      </trkpt>
      <trkpt lat="49.98601" lon="5.47663">
        <ele>415</ele>
        <time>2015-10-11T11:13:24Z</time>
      </trkpt>
      <trkpt lat="49.98605" lon="5.47657">
        <ele>414</ele>
        <time>2015-10-11T11:13:29Z</time>
      </trkpt>
      <trkpt lat="49.9861" lon="5.47649">
        <ele>413</ele>
        <time>2015-10-11T11:13:34Z</time>
      </trkpt>
      <trkpt lat="49.98613" lon="5.47642">
        <ele>413</ele>
        <time>2015-10-11T11:13:40Z</time>
      </trkpt>
      <trkpt lat="49.98618" lon="5.47635">
        <ele>412</ele>
        <time>2015-10-11T11:13:45Z</time>
      </trkpt>
      <trkpt lat="49.98623" lon="5.47626">
        <ele>412</ele>
        <time>2015-10-11T11:13:52Z</time>
      </trkpt>
      <trkpt lat="49.98629" lon="5.47621">
        <ele>411</ele>
        <time>2015-10-11T11:13:58Z</time>
      </trkpt>
      <trkpt lat="49.98634" lon="5.47613">
        <ele>411</ele>
        <time>2015-10-11T11:14:04Z</time>
      </trkpt>
      <trkpt lat="49.9864" lon="5.47605">
        <ele>410</ele>
        <time>2015-10-11T11:14:09Z</time>
      </trkpt>
      <trkpt lat="49.98646" lon="5.47596">
        <ele>410</ele>
        <time>2015-10-11T11:14:15Z</time>
      </trkpt>
      <trkpt lat="49.98651" lon="5.47589">
        <ele>410</ele>
        <time>2015-10-11T11:14:20Z</time>
      </trkpt>
      <trkpt lat="49.98657" lon="5.47581">
        <ele>409</ele>
        <time>2015-10-11T11:14:26Z</time>
      </trkpt>
      <trkpt lat="49.98661" lon="5.47574">
        <ele>409</ele>
        <time>2015-10-11T11:14:32Z</time>
      </trkpt>
      <trkpt lat="49.98663" lon="5.47574">
        <ele>408</ele>
        <time>2015-10-11T11:14:38Z</time>
      </trkpt>
      <trkpt lat="49.98667" lon="5.4757">
        <ele>409</ele>
        <time>2015-10-11T11:14:45Z</time>
      </trkpt>
      <trkpt lat="49.98671" lon="5.47562">
        <ele>408</ele>
        <time>2015-10-11T11:14:50Z</time>
      </trkpt>
      <trkpt lat="49.98674" lon="5.47555">
        <ele>408</ele>
        <time>2015-10-11T11:14:55Z</time>
      </trkpt>
      <trkpt lat="49.98678" lon="5.47549">
        <ele>407</ele>
        <time>2015-10-11T11:15:00Z</time>
      </trkpt>
      <trkpt lat="49.98684" lon="5.47542">
        <ele>407</ele>
        <time>2015-10-11T11:15:06Z</time>
      </trkpt>
      <trkpt lat="49.98689" lon="5.47536">
        <ele>406</ele>
        <time>2015-10-11T11:15:12Z</time>
      </trkpt>
      <trkpt lat="49.98693" lon="5.4753">
        <ele>405</ele>
        <time>2015-10-11T11:15:18Z</time>
      </trkpt>
      <trkpt lat="49.98698" lon="5.47522">
        <ele>405</ele>
        <time>2015-10-11T11:15:23Z</time>
      </trkpt>
      <trkpt lat="49.98701" lon="5.47514">
        <ele>405</ele>
        <time>2015-10-11T11:15:29Z</time>
      </trkpt>
      <trkpt lat="49.98704" lon="5.47507">
        <ele>404</ele>
        <time>2015-10-11T11:15:34Z</time>
      </trkpt>
      <trkpt lat="49.98708" lon="5.47498">
        <ele>404</ele>
        <time>2015-10-11T11:15:39Z</time>
      </trkpt>
      <trkpt lat="49.98713" lon="5.47489">
        <ele>403</ele>
        <time>2015-10-11T11:15:46Z</time>
      </trkpt>
      <trkpt lat="49.98717" lon="5.4748">
        <ele>403</ele>
        <time>2015-10-11T11:15:51Z</time>
      </trkpt>
      <trkpt lat="49.98722" lon="5.47472">
        <ele>403</ele>
        <time>2015-10-11T11:15:58Z</time>
      </trkpt>
      <trkpt lat="49.98726" lon="5.47463">
        <ele>403</ele>
        <time>2015-10-11T11:16:03Z</time>
      </trkpt>
      <trkpt lat="49.98727" lon="5.47458">
        <ele>403</ele>
        <time>2015-10-11T11:16:10Z</time>
      </trkpt>
      <trkpt lat="49.98729" lon="5.4745">
        <ele>403</ele>
        <time>2015-10-11T11:16:15Z</time>
      </trkpt>
      <trkpt lat="49.98731" lon="5.4745">
        <ele>402</ele>
        <time>2015-10-11T11:16:22Z</time>
      </trkpt>
      <trkpt lat="49.98734" lon="5.47448">
        <ele>402</ele>
        <time>2015-10-11T11:16:27Z</time>
      </trkpt>
      <trkpt lat="49.98737" lon="5.47445">
        <ele>402</ele>
        <time>2015-10-11T11:16:33Z</time>
      </trkpt>
      <trkpt lat="49.98742" lon="5.47442">
        <ele>402</ele>
        <time>2015-10-11T11:16:38Z</time>
      </trkpt>
      <trkpt lat="49.98747" lon="5.4744">
        <ele>402</ele>
        <time>2015-10-11T11:16:43Z</time>
      </trkpt>
      <trkpt lat="49.98752" lon="5.47434">
        <ele>402</ele>
        <time>2015-10-11T11:16:49Z</time>
      </trkpt>
      <trkpt lat="49.98758" lon="5.47427">
        <ele>402</ele>
        <time>2015-10-11T11:16:55Z</time>
      </trkpt>
      <trkpt lat="49.98762" lon="5.4742">
        <ele>402</ele>
        <time>2015-10-11T11:17:00Z</time>
      </trkpt>
      <trkpt lat="49.98767" lon="5.47412">
        <ele>401</ele>
        <time>2015-10-11T11:17:06Z</time>
      </trkpt>
      <trkpt lat="49.98772" lon="5.47406">
        <ele>402</ele>
        <time>2015-10-11T11:17:11Z</time>
      </trkpt>
      <trkpt lat="49.98777" lon="5.47399">
        <ele>401</ele>
        <time>2015-10-11T11:17:17Z</time>
      </trkpt>
      <trkpt lat="49.98782" lon="5.47394">
        <ele>401</ele>
        <time>2015-10-11T11:17:23Z</time>
      </trkpt>
      <trkpt lat="49.98788" lon="5.47386">
        <ele>402</ele>
        <time>2015-10-11T11:17:29Z</time>
      </trkpt>
      <trkpt lat="49.98793" lon="5.47379">
        <ele>401</ele>
        <time>2015-10-11T11:17:34Z</time>
      </trkpt>
      <trkpt lat="49.988" lon="5.47373">
        <ele>401</ele>
        <time>2015-10-11T11:17:40Z</time>
      </trkpt>
      <trkpt lat="49.98806" lon="5.47366">
        <ele>401</ele>
        <time>2015-10-11T11:17:46Z</time>
      </trkpt>
      <trkpt lat="49.98812" lon="5.47359">
        <ele>401</ele>
        <time>2015-10-11T11:17:52Z</time>
      </trkpt>
      <trkpt lat="49.98817" lon="5.47354">
        <ele>401</ele>
        <time>2015-10-11T11:17:57Z</time>
      </trkpt>
      <trkpt lat="49.98819" lon="5.47352">
        <ele>401</ele>
        <time>2015-10-11T11:18:02Z</time>
      </trkpt>
      <trkpt lat="49.98821" lon="5.4735">
        <ele>401</ele>
        <time>2015-10-11T11:18:07Z</time>
      </trkpt>
      <trkpt lat="49.98825" lon="5.47344">
        <ele>401</ele>
        <time>2015-10-11T11:18:13Z</time>
      </trkpt>
      <trkpt lat="49.98831" lon="5.47338">
        <ele>401</ele>
        <time>2015-10-11T11:18:19Z</time>
      </trkpt>
      <trkpt lat="49.98836" lon="5.4733">
        <ele>401</ele>
        <time>2015-10-11T11:18:25Z</time>
      </trkpt>
      <trkpt lat="49.98841" lon="5.47324">
        <ele>401</ele>
        <time>2015-10-11T11:18:31Z</time>
      </trkpt>
      <trkpt lat="49.98845" lon="5.47319">
        <ele>401</ele>
        <time>2015-10-11T11:18:37Z</time>
      </trkpt>
      <trkpt lat="49.98849" lon="5.4731">
        <ele>401</ele>
        <time>2015-10-11T11:18:42Z</time>
      </trkpt>
      <trkpt lat="49.98853" lon="5.47303">
        <ele>401</ele>
        <time>2015-10-11T11:18:47Z</time>
      </trkpt>
      <trkpt lat="49.98856" lon="5.47296">
        <ele>401</ele>
        <time>2015-10-11T11:18:52Z</time>
      </trkpt>
      <trkpt lat="49.98858" lon="5.47288">
        <ele>401</ele>
        <time>2015-10-11T11:18:58Z</time>
      </trkpt>
      <trkpt lat="49.98861" lon="5.4728">
        <ele>401</ele>
        <time>2015-10-11T11:19:04Z</time>
      </trkpt>
      <trkpt lat="49.98862" lon="5.47278">
        <ele>401</ele>
        <time>2015-10-11T11:19:10Z</time>
      </trkpt>
      <trkpt lat="49.98862" lon="5.47276">
        <ele>401</ele>
        <time>2015-10-11T11:19:15Z</time>
      </trkpt>
      <trkpt lat="49.98862" lon="5.47277">
        <ele>401</ele>
        <time>2015-10-11T11:19:20Z</time>
      </trkpt>
      <trkpt lat="49.98863" lon="5.47277">
        <ele>401</ele>
        <time>2015-10-11T11:19:25Z</time>
      </trkpt>
      <trkpt lat="49.98864" lon="5.47278">
        <ele>402</ele>
        <time>2015-10-11T11:19:31Z</time>
      </trkpt>
      <trkpt lat="49.98865" lon="5.47274">
        <ele>402</ele>
        <time>2015-10-11T11:19:36Z</time>
      </trkpt>
      <trkpt lat="49.98866" lon="5.47274">
        <ele>401</ele>
        <time>2015-10-11T11:19:42Z</time>
      </trkpt>
      <trkpt lat="49.98866" lon="5.47276">
        <ele>401</ele>
        <time>2015-10-11T11:19:47Z</time>
      </trkpt>
      <trkpt lat="49.98868" lon="5.47278">
        <ele>401</ele>
        <time>2015-10-11T11:19:52Z</time>
      </trkpt>
      <trkpt lat="49.98868" lon="5.47279">
        <ele>401</ele>
        <time>2015-10-11T11:19:57Z</time>
      </trkpt>
      <trkpt lat="49.98869" lon="5.47282">
        <ele>401</ele>
        <time>2015-10-11T11:20:03Z</time>
      </trkpt>
      <trkpt lat="49.9887" lon="5.47284">
        <ele>402</ele>
        <time>2015-10-11T11:20:09Z</time>
      </trkpt>
      <trkpt lat="49.98868" lon="5.47283">
        <ele>401</ele>
        <time>2015-10-11T11:20:15Z</time>
      </trkpt>
      <trkpt lat="49.98867" lon="5.47273">
        <ele>401</ele>
        <time>2015-10-11T11:20:21Z</time>
      </trkpt>
      <trkpt lat="49.98867" lon="5.47266">
        <ele>401</ele>
        <time>2015-10-11T11:20:26Z</time>
      </trkpt>
      <trkpt lat="49.98868" lon="5.47256">
        <ele>401</ele>
        <time>2015-10-11T11:20:32Z</time>
      </trkpt>
      <trkpt lat="49.98869" lon="5.47244">
        <ele>400</ele>
        <time>2015-10-11T11:20:38Z</time>
      </trkpt>
      <trkpt lat="49.9887" lon="5.47233">
        <ele>400</ele>
        <time>2015-10-11T11:20:44Z</time>
      </trkpt>
      <trkpt lat="49.98872" lon="5.47222">
        <ele>400</ele>
        <time>2015-10-11T11:20:50Z</time>
      </trkpt>
      <trkpt lat="49.98874" lon="5.47212">
        <ele>400</ele>
        <time>2015-10-11T11:20:56Z</time>
      </trkpt>
      <trkpt lat="49.98876" lon="5.47203">
        <ele>400</ele>
        <time>2015-10-11T11:21:02Z</time>
      </trkpt>
      <trkpt lat="49.98878" lon="5.47193">
        <ele>400</ele>
        <time>2015-10-11T11:21:07Z</time>
      </trkpt>
      <trkpt lat="49.9888" lon="5.47183">
        <ele>401</ele>
        <time>2015-10-11T11:21:13Z</time>
      </trkpt>
      <trkpt lat="49.98882" lon="5.47173">
        <ele>401</ele>
        <time>2015-10-11T11:21:19Z</time>
      </trkpt>
      <trkpt lat="49.98883" lon="5.47165">
        <ele>400</ele>
        <time>2015-10-11T11:21:24Z</time>
      </trkpt>
      <trkpt lat="49.98885" lon="5.47155">
        <ele>400</ele>
        <time>2015-10-11T11:21:30Z</time>
      </trkpt>
      <trkpt lat="49.98888" lon="5.47146">
        <ele>400</ele>
        <time>2015-10-11T11:21:36Z</time>
      </trkpt>
      <trkpt lat="49.98891" lon="5.4714">
        <ele>399</ele>
        <time>2015-10-11T11:21:41Z</time>
      </trkpt>
      <trkpt lat="49.98895" lon="5.47132">
        <ele>400</ele>
        <time>2015-10-11T11:21:46Z</time>
      </trkpt>
      <trkpt lat="49.98897" lon="5.47126">
        <ele>400</ele>
        <time>2015-10-11T11:21:51Z</time>
      </trkpt>
      <trkpt lat="49.989" lon="5.47119">
        <ele>400</ele>
        <time>2015-10-11T11:21:57Z</time>
      </trkpt>
      <trkpt lat="49.98904" lon="5.47111">
        <ele>400</ele>
        <time>2015-10-11T11:22:03Z</time>
      </trkpt>
      <trkpt lat="49.98907" lon="5.47103">
        <ele>400</ele>
        <time>2015-10-11T11:22:09Z</time>
      </trkpt>
      <trkpt lat="49.98911" lon="5.47097">
        <ele>400</ele>
        <time>2015-10-11T11:22:14Z</time>
      </trkpt>
      <trkpt lat="49.98915" lon="5.47091">
        <ele>400</ele>
        <time>2015-10-11T11:22:19Z</time>
      </trkpt>
      <trkpt lat="49.98918" lon="5.47084">
        <ele>400</ele>
        <time>2015-10-11T11:22:24Z</time>
      </trkpt>
      <trkpt lat="49.98921" lon="5.47074">
        <ele>401</ele>
        <time>2015-10-11T11:22:30Z</time>
      </trkpt>
      <trkpt lat="49.98923" lon="5.47065">
        <ele>400</ele>
        <time>2015-10-11T11:22:36Z</time>
      </trkpt>
      <trkpt lat="49.98925" lon="5.47056">
        <ele>401</ele>
        <time>2015-10-11T11:22:42Z</time>
      </trkpt>
      <trkpt lat="49.98927" lon="5.47048">
        <ele>401</ele>
        <time>2015-10-11T11:22:47Z</time>
      </trkpt>
      <trkpt lat="49.98929" lon="5.47038">
        <ele>401</ele>
        <time>2015-10-11T11:22:53Z</time>
      </trkpt>
      <trkpt lat="49.9893" lon="5.4703">
        <ele>401</ele>
        <time>2015-10-11T11:22:58Z</time>
      </trkpt>
      <trkpt lat="49.98932" lon="5.47022">
        <ele>401</ele>
        <time>2015-10-11T11:23:03Z</time>
      </trkpt>
      <trkpt lat="49.98933" lon="5.47014">
        <ele>401</ele>
        <time>2015-10-11T11:23:08Z</time>
      </trkpt>
      <trkpt lat="49.98936" lon="5.47005">
        <ele>401</ele>
        <time>2015-10-11T11:23:14Z</time>
      </trkpt>
      <trkpt lat="49.98939" lon="5.46998">
        <ele>401</ele>
        <time>2015-10-11T11:23:19Z</time>
      </trkpt>
      <trkpt lat="49.98942" lon="5.4699">
        <ele>402</ele>
        <time>2015-10-11T11:23:25Z</time>
      </trkpt>
      <trkpt lat="49.98945" lon="5.46982">
        <ele>402</ele>
        <time>2015-10-11T11:23:30Z</time>
      </trkpt>
      <trkpt lat="49.98948" lon="5.46978">
        <ele>402</ele>
        <time>2015-10-11T11:23:35Z</time>
      </trkpt>
      <trkpt lat="49.98949" lon="5.46979">
        <ele>402</ele>
        <time>2015-10-11T11:23:41Z</time>
      </trkpt>
      <trkpt lat="49.9895" lon="5.46978">
        <ele>403</ele>
        <time>2015-10-11T11:23:46Z</time>
      </trkpt>
      <trkpt lat="49.98953" lon="5.46969">
        <ele>402</ele>
        <time>2015-10-11T11:23:52Z</time>
      </trkpt>
      <trkpt lat="49.98956" lon="5.46961">
        <ele>403</ele>
        <time>2015-10-11T11:23:58Z</time>
      </trkpt>
      <trkpt lat="49.98959" lon="5.46958">
        <ele>404</ele>
        <time>2015-10-11T11:24:03Z</time>
      </trkpt>
      <trkpt lat="49.98963" lon="5.46961">
        <ele>404</ele>
        <time>2015-10-11T11:24:08Z</time>
      </trkpt>
      <trkpt lat="49.98967" lon="5.46966">
        <ele>404</ele>
        <time>2015-10-11T11:24:13Z</time>
      </trkpt>
      <trkpt lat="49.98972" lon="5.46969">
        <ele>404</ele>
        <time>2015-10-11T11:24:18Z</time>
      </trkpt>
      <trkpt lat="49.98977" lon="5.46975">
        <ele>404</ele>
        <time>2015-10-11T11:24:24Z</time>
      </trkpt>
      <trkpt lat="49.98982" lon="5.4698">
        <ele>404</ele>
        <time>2015-10-11T11:24:29Z</time>
      </trkpt>
      <trkpt lat="49.98986" lon="5.46986">
        <ele>404</ele>
        <time>2015-10-11T11:24:34Z</time>
      </trkpt>
      <trkpt lat="49.98992" lon="5.46992">
        <ele>404</ele>
        <time>2015-10-11T11:24:40Z</time>
      </trkpt>
      <trkpt lat="49.98998" lon="5.46998">
        <ele>404</ele>
        <time>2015-10-11T11:24:46Z</time>
      </trkpt>
      <trkpt lat="49.99002" lon="5.47003">
        <ele>404</ele>
        <time>2015-10-11T11:24:51Z</time>
      </trkpt>
      <trkpt lat="49.99007" lon="5.47007">
        <ele>404</ele>
        <time>2015-10-11T11:24:56Z</time>
      </trkpt>
      <trkpt lat="49.99012" lon="5.47013">
        <ele>403</ele>
        <time>2015-10-11T11:25:02Z</time>
      </trkpt>
      <trkpt lat="49.99016" lon="5.47017">
        <ele>404</ele>
        <time>2015-10-11T11:25:07Z</time>
      </trkpt>
      <trkpt lat="49.99022" lon="5.47023">
        <ele>404</ele>
        <time>2015-10-11T11:25:13Z</time>
      </trkpt>
      <trkpt lat="49.99026" lon="5.47028">
        <ele>404</ele>
        <time>2015-10-11T11:25:19Z</time>
      </trkpt>
      <trkpt lat="49.99032" lon="5.47033">
        <ele>404</ele>
        <time>2015-10-11T11:25:24Z</time>
      </trkpt>
      <trkpt lat="49.99035" lon="5.47038">
        <ele>404</ele>
        <time>2015-10-11T11:25:29Z</time>
      </trkpt>
      <trkpt lat="49.99034" lon="5.47044">
        <ele>404</ele>
        <time>2015-10-11T11:25:34Z</time>
      </trkpt>
      <trkpt lat="49.99033" lon="5.4705">
        <ele>403</ele>
        <time>2015-10-11T11:25:39Z</time>
      </trkpt>
      <trkpt lat="49.9903" lon="5.47059">
        <ele>403</ele>
        <time>2015-10-11T11:25:45Z</time>
      </trkpt>
      <trkpt lat="49.99028" lon="5.47067">
        <ele>403</ele>
        <time>2015-10-11T11:25:50Z</time>
      </trkpt>
      <trkpt lat="49.99026" lon="5.47076">
        <ele>403</ele>
        <time>2015-10-11T11:25:55Z</time>
      </trkpt>
      <trkpt lat="49.99025" lon="5.47084">
        <ele>402</ele>
        <time>2015-10-11T11:26:00Z</time>
      </trkpt>
      <trkpt lat="49.99022" lon="5.47091">
        <ele>402</ele>
        <time>2015-10-11T11:26:05Z</time>
      </trkpt>
      <trkpt lat="49.99023" lon="5.47098">
        <ele>402</ele>
        <time>2015-10-11T11:26:11Z</time>
      </trkpt>
      <trkpt lat="49.99022" lon="5.47107">
        <ele>402</ele>
        <time>2015-10-11T11:26:17Z</time>
      </trkpt>
      <trkpt lat="49.99022" lon="5.47111">
        <ele>401</ele>
        <time>2015-10-11T11:26:22Z</time>
      </trkpt>
      <trkpt lat="49.99022" lon="5.47113">
        <ele>401</ele>
        <time>2015-10-11T11:26:28Z</time>
      </trkpt>
      <trkpt lat="49.99023" lon="5.47113">
        <ele>402</ele>
        <time>2015-10-11T11:26:33Z</time>
      </trkpt>
      <trkpt lat="49.99019" lon="5.47115">
        <ele>402</ele>
        <time>2015-10-11T11:26:39Z</time>
      </trkpt>
      <trkpt lat="49.9902" lon="5.47119">
        <ele>401</ele>
        <time>2015-10-11T11:26:45Z</time>
      </trkpt>
      <trkpt lat="49.99017" lon="5.47123">
        <ele>401</ele>
        <time>2015-10-11T11:26:50Z</time>
      </trkpt>
      <trkpt lat="49.9902" lon="5.47123">
        <ele>402</ele>
        <time>2015-10-11T11:26:55Z</time>
      </trkpt>
      <trkpt lat="49.99019" lon="5.47124">
        <ele>402</ele>
        <time>2015-10-11T11:27:01Z</time>
      </trkpt>
      <trkpt lat="49.99014" lon="5.47121">
        <ele>401</ele>
        <time>2015-10-11T11:27:06Z</time>
      </trkpt>
      <trkpt lat="49.99009" lon="5.47117">
        <ele>402</ele>
        <time>2015-10-11T11:27:12Z</time>
      </trkpt>
      <trkpt lat="49.99007" lon="5.47118">
        <ele>402</ele>
        <time>2015-10-11T11:27:18Z</time>
      </trkpt>
      <trkpt lat="49.99006" lon="5.47111">
        <ele>402</ele>
        <time>2015-10-11T11:27:24Z</time>
      </trkpt>
      <trkpt lat="49.99005" lon="5.47105">
        <ele>402</ele>
        <time>2015-10-11T11:27:29Z</time>
      </trkpt>
      <trkpt lat="49.99002" lon="5.47098">
        <ele>402</ele>
        <time>2015-10-11T11:27:35Z</time>
      </trkpt>
      <trkpt lat="49.99001" lon="5.47097">
        <ele>402</ele>
        <time>2015-10-11T11:27:40Z</time>
      </trkpt>
      <trkpt lat="49.99" lon="5.47095">
        <ele>401</ele>
        <time>2015-10-11T11:27:46Z</time>
      </trkpt>
      <trkpt lat="49.98999" lon="5.47095">
        <ele>402</ele>
        <time>2015-10-11T11:27:52Z</time>
      </trkpt>
      <trkpt lat="49.99" lon="5.47093">
        <ele>402</ele>
        <time>2015-10-11T11:27:57Z</time>
      </trkpt>
      <trkpt lat="49.99" lon="5.47095">
        <ele>402</ele>
        <time>2015-10-11T11:28:02Z</time>
      </trkpt>
      <trkpt lat="49.99001" lon="5.47102">
        <ele>401</ele>
        <time>2015-10-11T11:28:07Z</time>
      </trkpt>
      <trkpt lat="49.99" lon="5.47105">
        <ele>401</ele>
        <time>2015-10-11T11:28:13Z</time>
      </trkpt>
      <trkpt lat="49.99" lon="5.47105">
        <ele>401</ele>
        <time>2015-10-11T11:28:14Z</time>
      </trkpt>
    </trkseg>
  </trk>
</gpx>